[[{"header":{"parameterUnit":"m.s-1","parameterCategory":1,"la1":30.6,"la2":28.766,"lo1":-90.7593,"lo2":-88.6598,"dy":0.0162,"dx":0.0183,"nx":116,"ny":114,"refTime":"2023-09-13T00:00:00:Z","depth":0,"parameterNumber":2,"parameterNumberName":"U-component_of_WINDS"},"data":[0.0,0.0,0.0,0.0,0.0,0.0,0.0,0.0,0.0,0.0,0.0,0.0,0.0,0.0,0.0,0.0,0.0,0.0,0.0,0.0,0.0,0.0,0.0,0.0,0.0,0.0,0.0,0.0,0.0,0.0,0.0,0.0,0.0,0.0,0.0,0.0,0.0,0.0,0.0,0.0,0.0,0.0,0.0,0.0,0.0,0.0,0.0,0.0,0.0,0.0,0.0,0.0,0.0,0.0,0.0,0.0,0.0,0.0,0.0,0.0,0.0,0.0,0.0,0.0,0.0,0.0,0.0,0.0,0.0,0.0,0.0,0.0,0.0,0.0,0.0,0.0,0.0,0.0,0.0,0.0,0.0,0.0,0.0,0.0,0.0,0.0,0.0,0.0,0.0,0.0,0.0,0.0,0.0,0.0,0.0,0.0,0.0,0.0,0.0,0.0,0.0,0.0,0.0,0.0,0.0,0.0,0.0,0.0,0.0,0.0,0.0,0.0,0.0,0.0,0.0,0.0,0.0,0.0,0.0,0.0,0.0,0.0,0.0,0.0,0.0,0.0,0.0,0.0,0.0,0.0,0.0,0.0,0.0,0.0,0.0,0.0,0.0,0.0,0.0,0.0,0.0,0.0,0.0,0.0,0.0,0.0,0.0,0.0,0.0,0.0,0.0,0.0,0.0,0.0,0.0,0.0,0.0,0.0,0.0,0.0,0.0,0.0,0.0,0.0,0.0,0.0,0.0,0.0,0.0,0.0,0.0,0.0,0.0,0.0,0.0,0.0,0.0,0.0,0.0,0.0,0.0,0.0,0.0,0.0,0.0,0.0,0.0,0.0,0.0,0.0,0.0,0.0,0.0,0.0,0.0,0.0,0.0,0.0,0.0,0.0,0.0,0.0,0.0,0.0,0.0,0.0,0.0,0.0,0.0,0.0,0.0,0.0,0.0,0.0,0.0,0.0,0.0,0.0,0.0,0.0,0.0,0.0,0.0,0.0,0.0,0.0,0.0,0.0,0.0,0.0,0.0,0.0,0.0,0.0,0.0,0.0,0.0,0.0,0.0,0.0,0.0,0.0,0.0,0.0,0.0,0.0,0.0,0.0,0.0,0.0,0.0,0.0,0.0,0.0,0.0,0.0,0.0,0.0,0.0,0.0,0.0,0.0,0.0,0.0,0.0,0.0,0.0,0.0,0.0,0.0,0.0,0.0,0.0,0.0,0.0,0.0,0.0,0.0,0.0,0.0,0.0,0.0,0.0,0.0,0.0,0.0,0.0,0.0,0.0,0.0,0.0,0.0,0.0,0.0,0.0,0.0,0.0,0.0,0.0,0.0,0.0,0.0,0.0,0.0,0.0,0.0,0.0,0.0,0.0,0.0,0.0,0.0,0.0,0.0,0.0,0.0,0.0,0.0,0.0,0.0,0.0,0.0,0.0,0.0,0.0,0.0,0.0,0.0,0.0,0.0,0.0,0.0,0.0,0.0,0.0,0.0,0.0,0.0,0.0,0.0,0.0,0.0,0.0,0.0,0.0,0.0,0.0,0.0,0.0,0.0,0.0,0.0,0.0,0.0,0.0,0.0,0.0,0.0,0.0,0.0,0.0,0.0,0.0,0.0,0.0,0.0,0.0,0.0,0.0,0.0,0.0,0.0,0.0,0.0,0.0,0.0,0.0,0.0,0.0,0.0,0.0,0.0,0.0,0.0,0.0,0.0,0.0,0.0,0.0,0.0,0.0,0.0,0.0,0.0,0.0,0.0,0.0,0.0,0.0,0.0,0.0,0.0,0.0,0.0,0.0,0.0,0.0,0.0,0.0,0.0,0.0,0.0,0.0,0.0,0.0,0.0,0.0,0.0,0.0,0.0,0.0,0.0,0.0,0.0,0.0,0.0,0.0,0.0,0.0,0.0,0.0,0.0,0.0,0.0,0.0,0.0,0.0,0.0,0.0,0.0,0.0,0.0,0.0,0.0,0.0,0.0,0.0,0.0,0.0,0.0,0.0,0.0,0.0,0.0,0.0,0.0,0.0,0.0,0.0,0.0,0.0,0.0,0.0,0.0,0.0,0.0,0.0,0.0,0.0,0.0,0.0,0.0,0.0,0.0,0.0,0.0,0.0,0.0,0.0,0.0,0.0,0.0,0.0,0.0,0.0,0.0,0.0,0.0,0.0,0.0,0.0,0.0,0.0,0.0,0.0,0.0,0.0,0.0,0.0,0.0,0.0,0.0,0.0,0.0,0.0,0.0,0.0,0.0,0.0,0.0,0.0,0.0,0.0,0.0,0.0,0.0,0.0,0.0,0.0,0.0,0.0,0.0,0.0,0.0,0.0,0.0,0.0,0.0,0.0,0.0,0.0,0.0,0.0,0.0,0.0,0.0,0.0,0.0,0.0,0.0,0.0,0.0,0.0,0.0,0.0,0.0,0.0,0.0,0.0,0.0,0.0,0.0,0.0,0.0,0.0,0.0,0.0,0.0,0.0,0.0,0.0,0.0,0.0,0.0,0.0,0.0,0.0,0.0,0.0,0.0,0.0,0.0,0.0,0.0,0.0,0.0,0.0,0.0,0.0,0.0,0.0,0.0,0.0,0.0,0.0,0.0,0.0,0.0,0.0,0.0,0.0,0.0,0.0,0.0,0.0,0.0,0.0,0.0,0.0,0.0,0.0,0.0,0.0,0.0,0.0,0.0,0.0,0.0,0.0,0.0,0.0,0.0,0.0,0.0,0.0,0.0,0.0,0.0,0.0,0.0,0.0,0.0,0.0,0.0,0.0,0.0,0.0,0.0,0.0,0.0,0.0,0.0,0.0,0.0,0.0,0.0,0.0,0.0,0.0,0.0,0.0,0.0,0.0,0.0,0.0,0.0,0.0,0.0,0.0,0.0,0.0,0.0,0.0,0.0,0.0,0.0,0.0,0.0,0.0,0.0,0.0,0.0,0.0,0.0,0.0,0.0,0.0,0.0,0.0,0.0,0.0,0.0,0.0,0.0,0.0,0.0,0.0,0.0,0.0,0.0,0.0,0.0,0.0,0.0,0.0,0.0,0.0,0.0,0.0,0.0,0.0,0.0,0.0,0.0,0.0,0.0,0.0,0.0,0.0,0.0,0.0,0.0,0.0,0.0,0.0,0.0,0.0,0.0,0.0,0.0,0.0,0.0,0.0,0.0,0.0,0.0,0.0,0.0,0.0,0.0,0.0,0.0,0.0,0.0,0.0,0.0,0.0,0.0,0.0,0.0,0.0,0.0,0.0,0.0,0.0,0.0,0.0,0.0,0.0,0.0,0.0,0.0,0.0,0.0,0.0,0.0,0.0,0.0,0.0,0.0,0.0,0.0,0.0,0.0,0.0,0.0,0.0,0.0,0.0,0.0,0.0,0.0,0.0,0.0,0.0,0.0,0.0,0.0,0.0,0.0,0.0,0.0,0.0,0.0,0.0,0.0,0.0,0.0,0.0,0.0,0.0,0.0,0.0,0.0,0.0,0.0,0.0,0.0,0.0,0.0,0.0,0.0,0.0,0.0,0.0,0.0,0.0,0.0,0.0,0.0,0.0,0.0,0.0,0.0,0.0,0.0,0.0,0.0,0.0,0.0,0.0,0.0,0.0,0.0,0.0,0.0,0.0,0.0,0.0,0.0,0.0,0.0,0.0,0.0,0.0,0.0,0.0,0.0,0.0,0.0,0.0,0.0,0.0,0.0,0.0,0.0,0.0,0.0,0.0,0.0,0.0,0.0,0.0,0.0,0.0,0.0,0.0,0.0,0.0,0.0,0.0,0.0,0.0,0.0,0.0,0.0,0.0,0.0,0.0,0.0,0.0,0.0,0.0,0.0,0.0,0.0,0.0,0.0,0.0,0.0,0.0,0.0,0.0,0.0,0.0,0.0,0.0,0.0,0.0,0.0,0.0,0.0,0.0,0.0,0.0,0.0,0.0,0.0,0.0,0.0,0.0,0.0,0.0,0.0,0.0,0.0,0.0,0.0,0.0,0.0,0.0,0.0,0.0,0.0,0.0,0.0,0.0,0.0,0.0,0.0,0.0,0.0,0.0,0.0,0.0,0.0,0.0,0.0,0.0,0.0,0.0,0.0,0.0,0.0,0.0,0.0,0.0,0.0,0.0,0.0,0.0,0.0,0.0,0.0,0.0,0.0,0.0,0.0,0.0,0.0,0.0,0.0,0.0,0.0,0.0,0.0,0.0,0.0,0.0,0.0,0.0,0.0,0.0,0.0,0.0,0.0,0.0,0.0,0.0,0.0,0.0,0.0,0.0,0.0,0.0,0.0,0.0,0.0,0.0,0.0,0.0,0.0,0.0,0.0,0.0,0.0,0.0,0.0,0.0,0.0,0.0,0.0,0.0,0.0,0.0,0.0,0.0,0.0,0.0,0.0,0.0,0.0,0.0,0.0,0.0,0.0,0.0,0.0,0.0,0.0,0.0,0.0,0.0,0.0,0.0,0.0,0.0,0.0,0.0,0.0,0.0,0.0,0.0,0.0,0.0,0.0,0.0,0.0,0.0,0.0,0.0,0.0,0.0,0.0,0.0,0.0,0.0,0.0,0.0,0.0,0.0,0.0,0.0,0.0,0.0,0.0,0.0,0.0,0.0,0.0,0.0,0.0,0.0,0.0,0.0,0.0,0.0,0.0,0.0,0.0,0.0,0.0,0.0,0.0,0.0,0.0,0.0,0.0,0.0,0.0,0.0,0.0,0.0,0.0,0.0,0.0,0.0,0.0,0.0,0.0,0.0,0.0,0.0,0.0,0.0,0.0,0.0,0.0,0.0,0.0,0.0,0.0,0.0,0.0,0.0,0.0,0.0,0.0,0.0,0.0,0.0,0.0,0.0,0.0,0.0,0.0,0.0,0.0,0.0,0.0,0.0,0.0,0.0,0.0,0.0,0.0,0.0,0.0,0.0,0.0,0.0,0.0,0.0,0.0,0.0,0.0,0.0,0.0,0.0,0.0,0.0,0.0,0.0,0.0,0.0,0.0,0.0,0.0,0.0,0.0,0.0,0.0,0.0,0.0,0.0,0.0,0.0,0.0,0.0,0.0,0.0,0.0,0.0,0.0,0.0,0.0,0.0,0.0,0.0,0.0,0.0,0.0,0.0,0.0,0.0,0.0,0.0,0.0,0.0,0.0,0.0,0.0,0.0,0.0,0.0,0.0,0.0,0.0,0.0,0.0,0.0,0.0,0.0,0.0,0.0,0.0,0.0,0.0,0.0,0.0,0.0,0.0,0.0,0.0,0.0,0.0,0.0,0.0,0.0,0.0,0.0,0.0,0.0,0.0,0.0,0.0,0.0,0.0,0.0,0.0,0.0,0.0,0.0,0.0,0.0,0.0,0.0,0.0,0.0,0.0,0.0,0.0,0.0,0.0,0.0,0.0,0.0,0.0,0.0,0.0,0.0,0.0,0.0,0.0,0.0,0.0,0.0,0.0,0.0,0.0,0.0,0.0,0.0,0.0,0.0,0.0,0.0,0.0,0.0,0.0,0.0,0.0,0.0,0.0,0.0,0.0,0.0,0.0,0.0,0.0,0.0,0.0,0.0,0.0,0.0,0.0,0.0,0.0,0.0,0.0,0.0,0.0,0.0,0.0,0.0,0.0,0.0,0.0,0.0,0.0,0.0,0.0,0.0,0.0,0.0,0.0,0.0,0.0,0.0,0.0,0.0,0.0,0.0,0.0,0.0,0.0,0.0,0.0,0.0,0.0,0.0,0.0,0.0,0.0,0.0,0.0,0.0,0.0,0.0,0.0,0.0,0.0,0.0,0.0,0.0,0.0,0.0,0.0,0.0,0.0,0.0,0.0,0.0,0.0,0.0,0.0,0.0,0.0,0.0,0.0,0.0,0.0,0.0,0.0,0.0,0.0,0.0,0.0,0.0,0.0,0.0,0.0,0.0,0.0,0.0,0.0,0.0,0.0,0.0,0.0,0.0,0.0,0.0,0.0,0.0,0.0,0.0,0.0,0.0,0.0,0.0,0.0,0.0,0.0,0.0,0.0,0.0,0.0,0.0,0.0,0.0,0.0,0.0,0.0,0.0,0.0,0.0,0.0,0.0,0.0,0.0,0.0,0.0,0.0,0.0,0.0,0.0,0.0,0.0,0.0,3.2227,0.0,0.0,0.0,0.0,0.0,0.0,0.0,0.0,0.0,0.0,0.0,0.0,0.0,0.0,0.0,0.0,0.0,0.0,0.0,0.0,0.0,0.0,0.0,0.0,0.0,0.0,0.0,0.0,0.0,0.0,0.0,0.0,0.0,0.0,0.0,0.0,0.0,0.0,0.0,0.0,0.0,0.0,0.0,0.0,0.0,0.0,0.0,0.0,0.0,0.0,0.0,0.0,0.0,0.0,0.0,0.0,0.0,0.0,0.0,0.0,0.0,0.0,0.0,0.0,0.0,0.0,0.0,0.0,0.0,0.0,0.0,0.0,0.0,0.0,0.0,0.0,0.0,0.0,0.0,0.0,0.0,0.0,0.0,0.0,0.0,0.0,0.0,0.0,0.0,0.0,0.0,0.0,0.0,0.0,0.0,0.0,0.0,0.0,0.0,0.0,0.0,0.0,0.0,0.0,0.0,0.0,0.0,0.0,0.0,0.0,0.0,0.0,0.0,0.0,0.0,0.0,3.2078,0.0,0.0,0.0,0.0,0.0,0.0,0.0,0.0,0.0,0.0,0.0,0.0,0.0,0.0,0.0,0.0,0.0,0.0,0.0,0.0,0.0,0.0,0.0,0.0,0.0,0.0,0.0,0.0,0.0,0.0,0.0,0.0,0.0,0.0,0.0,0.0,0.0,0.0,0.0,0.0,0.0,0.0,0.0,0.0,0.0,0.0,0.0,0.0,0.0,0.0,0.0,0.0,0.0,0.0,0.0,0.0,0.0,0.0,0.0,0.0,0.0,0.0,0.0,0.0,0.0,0.0,0.0,0.0,0.0,0.0,0.0,0.0,0.0,0.0,0.0,0.0,0.0,0.0,0.0,0.0,0.0,0.0,0.0,0.0,0.0,0.0,0.0,0.0,0.0,0.0,0.0,0.0,0.0,0.0,0.0,0.0,0.0,0.0,0.0,0.0,0.0,0.0,0.0,0.0,0.0,0.0,0.0,0.0,3.4156,3.4267,3.3829,3.4869,3.4746,3.374,3.4499,3.4396,3.3648,0.0,0.0,0.0,0.0,0.0,0.0,0.0,0.0,0.0,0.0,0.0,0.0,0.0,0.0,0.0,0.0,0.0,0.0,0.0,0.0,0.0,0.0,0.0,0.0,0.0,0.0,0.0,0.0,0.0,0.0,0.0,0.0,0.0,0.0,0.0,0.0,0.0,0.0,2.0187,2.0296,2.0093,2.0009,2.002,1.9958,0.0,0.0,0.0,0.0,0.0,0.0,0.0,0.0,0.0,0.0,0.0,0.0,0.0,0.0,0.0,0.0,0.0,0.0,0.0,0.0,0.0,0.0,0.0,0.0,0.0,0.0,0.0,0.0,0.0,0.0,0.0,0.0,0.0,0.0,0.0,0.0,0.0,0.0,0.0,0.0,0.0,0.0,0.0,3.1821,3.3097,0.0,0.0,0.0,0.0,0.0,0.0,0.0,0.0,0.0,0.0,0.0,0.0,0.0,0.0,3.3612,3.5044,3.5496,3.4921,3.6353,3.6984,3.6912,3.7088,3.7066,3.6867,3.629,0.0,3.4858,3.4717,0.0,0.0,0.0,0.0,0.0,0.0,0.0,0.0,0.0,0.0,0.0,0.0,0.0,0.0,0.0,0.0,0.0,0.0,0.0,0.0,0.0,0.0,0.0,0.0,0.0,0.0,0.0,0.0,0.0,0.0,0.0,0.0,0.0,0.0,0.0,0.0,2.1168,2.1706,2.2427,2.2346,2.2305,2.2334,2.265,2.1888,2.0419,2.083,0.0,0.0,0.0,0.0,0.0,0.0,0.0,0.0,0.0,0.0,0.0,0.0,0.0,0.0,0.0,0.0,0.0,0.0,0.0,0.0,0.0,0.0,0.0,0.0,0.0,0.0,0.0,0.0,0.0,0.0,0.0,0.0,0.0,0.0,0.0,0.0,0.0,0.0,0.0,3.1258,3.2214,3.3938,3.3892,3.361,0.0,0.0,0.0,0.0,0.0,0.0,0.0,0.0,0.0,3.4129,3.5327,3.5685,3.5072,3.6862,3.7678,3.7502,3.8197,3.8503,3.8509,3.8597,3.8629,3.8612,3.8334,3.8012,3.7584,3.6266,3.5473,3.4989,0.0,0.0,0.0,0.0,3.1343,3.1844,0.0,0.0,0.0,0.0,0.0,0.0,0.0,0.0,0.0,0.0,0.0,0.0,0.0,0.0,0.0,2.0031,0.0,0.0,0.0,0.0,0.0,0.0,0.0,0.0,0.0,0.0,0.0,2.2241,2.2687,2.3487,2.4556,2.4556,2.4511,2.4442,2.503,2.4068,2.2036,2.2686,2.2788,0.0,0.0,0.0,0.0,0.0,0.0,0.0,0.0,0.0,0.0,0.0,0.0,0.0,0.0,0.0,0.0,0.0,0.0,0.0,0.0,0.0,0.0,0.0,0.0,0.0,0.0,0.0,0.0,0.0,0.0,0.0,0.0,0.0,0.0,0.0,0.0,0.0,0.0,3.22,3.3113,3.4901,3.4906,3.4686,0.0,0.0,0.0,0.0,0.0,0.0,3.5341,3.4931,3.4752,3.4943,3.6496,3.7104,3.6656,3.8183,3.903,3.9215,3.9279,3.9319,3.9369,3.9484,3.9544,3.955,3.9668,3.9677,3.9528,3.7861,3.6797,3.6199,3.5964,3.5086,3.3926,3.3589,3.37,3.4016,0.0,0.0,0.0,0.0,0.0,0.0,0.0,0.0,0.0,0.0,0.0,0.0,0.0,0.0,2.0532,2.0893,2.0795,2.0482,0.0,0.0,0.0,0.0,0.0,0.0,0.0,0.0,0.0,2.3977,2.4563,2.5197,2.5816,2.5816,2.5816,2.5837,2.6427,2.5533,2.3618,2.4227,2.4215,2.3695,0.0,0.0,0.0,0.0,0.0,0.0,0.0,0.0,0.0,0.0,0.0,0.0,0.0,0.0,0.0,0.0,0.0,0.0,0.0,0.0,0.0,0.0,0.0,0.0,0.0,0.0,0.0,0.0,0.0,0.0,0.0,0.0,0.0,0.0,0.0,0.0,0.0,0.0,0.0,3.6043,3.6598,0.0,0.0,0.0,0.0,3.5784,3.5538,3.6028,3.7464,3.7394,3.7627,3.8323,3.8589,3.8681,3.8655,3.8763,3.888,3.9016,3.9202,3.9365,3.9495,3.9635,3.969,3.969,3.9697,3.9635,3.9504,3.9521,3.9422,3.9148,3.7878,3.7172,3.6734,3.5457,3.5883,3.7053,0.0,0.0,0.0,0.0,0.0,0.0,0.0,0.0,0.0,0.0,0.0,0.0,0.0,2.108,2.1706,2.129,2.1948,2.1976,2.1048,0.0,0.0,0.0,0.0,0.0,0.0,0.0,2.3822,2.5267,2.5858,2.649,2.7116,2.7116,2.7116,2.7151,2.7755,2.7606,2.691,2.6728,2.6316,2.5734,2.5279,2.4459,0.0,0.0,0.0,0.0,0.0,0.0,0.0,0.0,0.0,0.0,0.0,0.0,0.0,0.0,0.0,0.0,0.0,0.0,0.0,0.0,0.0,0.0,0.0,0.0,0.0,0.0,0.0,0.0,0.0,0.0,0.0,0.0,0.0,0.0,0.0,0.0,0.0,3.6014,3.6533,0.0,3.7032,3.7062,3.6983,3.6812,3.7152,3.7599,3.8119,3.8107,3.8193,3.8462,3.8525,3.8572,3.8662,3.9142,3.9448,3.9579,4.0137,4.0416,4.0466,4.061,4.0663,4.0644,4.0434,4.0314,4.0254,4.0037,3.9729,3.9329,3.8931,3.8673,3.8476,3.8074,3.8259,3.8708,0.0,0.0,0.0,0.0,0.0,0.0,0.0,0.0,0.0,0.0,0.0,2.0148,2.0556,2.1938,2.2637,2.2147,2.2998,2.3069,2.188,0.0,0.0,0.0,2.0789,0.0,0.0,2.4315,2.5408,2.6842,2.7242,2.7776,2.8409,2.8409,2.8409,2.8423,2.8837,2.8998,2.897,2.8584,2.8141,2.7713,2.7298,2.6194,2.4681,0.0,0.0,0.0,0.0,0.0,0.0,0.0,0.0,0.0,0.0,0.0,0.0,0.0,0.0,0.0,0.0,0.0,0.0,0.0,0.0,0.0,0.0,0.0,0.0,0.0,0.0,0.0,0.0,0.0,0.0,0.0,0.0,0.0,0.0,0.0,3.509,3.5936,3.674,3.7302,3.7575,3.7808,3.7858,3.7679,3.8109,3.8391,3.8391,3.8391,3.8391,3.8391,3.8391,3.8434,3.8525,3.902,3.9326,3.9465,4.0253,4.0647,4.0706,4.1087,4.1043,4.0659,4.0684,4.0464,4.0062,4.0043,3.98,3.9458,3.9577,3.955,3.9451,3.9537,3.9596,3.9629,0.0,0.0,0.0,0.0,0.0,0.0,0.0,0.0,0.0,0.0,1.9623,2.038,2.1807,2.2668,2.3235,2.3474,2.3884,2.3578,2.2292,2.1665,0.0,0.0,0.0,0.0,2.5928,2.5985,2.6884,2.8725,2.8725,2.9026,2.9595,2.9595,2.9595,2.9595,2.9595,2.9595,2.9595,2.9595,2.9595,2.9496,2.8325,2.7095,2.5844,0.0,0.0,0.0,0.0,0.0,0.0,0.0,0.0,0.0,0.0,0.0,0.0,0.0,0.0,0.0,0.0,0.0,0.0,0.0,0.0,0.0,0.0,0.0,0.0,0.0,0.0,0.0,0.0,0.0,0.0,0.0,0.0,0.0,3.3777,3.6042,3.7178,3.5844,3.7294,3.8134,3.7469,3.799,3.837,3.8391,3.8403,3.8403,3.8424,3.8424,3.8424,3.8424,3.8424,3.8424,3.8424,3.8472,3.8576,3.8702,3.9565,4.0057,4.0217,4.1062,4.0825,3.977,4.0481,4.0089,3.898,3.969,3.9895,3.9764,3.9866,3.9807,3.9703,3.9703,3.9781,3.9901,0.0,0.0,0.0,0.0,0.0,0.0,0.0,0.0,0.0,0.0,2.013,2.079,2.1096,2.2869,2.3824,2.3261,2.4158,2.4068,2.2442,0.0,0.0,0.0,0.0,0.0,2.7242,2.7706,2.8394,2.935,2.935,2.944,2.9595,2.9595,2.9595,2.9595,2.9595,2.9595,2.9595,2.9595,2.9595,2.9567,2.9237,2.8404,2.7307,0.0,0.0,0.0,0.0,0.0,0.0,0.0,0.0,0.0,0.0,0.0,0.0,0.0,0.0,0.0,0.0,0.0,0.0,0.0,0.0,0.0,0.0,0.0,0.0,0.0,0.0,0.0,0.0,0.0,0.0,0.0,0.0,3.4144,3.43,3.5681,3.6392,3.558,3.7216,3.8134,3.7469,3.7565,3.7873,3.8356,3.8456,3.8677,3.9178,3.9199,3.9199,3.9199,3.9199,3.9199,3.9199,4.0211,4.0736,4.0782,4.1518,4.1873,4.1936,4.2558,4.275,4.2599,4.2895,4.252,4.1714,4.187,4.1536,4.0857,4.0056,3.9729,3.9703,3.9703,3.9781,3.9836,0.0,0.0,0.0,0.0,0.0,0.0,0.0,0.0,0.0,0.0,2.0127,2.0723,2.1094,2.3048,2.4103,2.357,2.4662,2.4724,2.3207,0.0,0.0,0.0,0.0,2.7186,2.8528,2.8908,2.922,2.9517,2.9517,2.947,2.9391,2.9391,2.9391,2.9391,2.9391,2.9391,2.9391,2.9391,2.9391,2.9391,2.9391,2.8774,2.7857,2.7857,2.7173,2.6212,2.6199,2.6662,2.7268,2.7135,0.0,0.0,0.0,0.0,0.0,0.0,0.0,0.0,0.0,0.0,0.0,0.0,0.0,0.0,0.0,0.0,0.0,0.0,0.0,0.0,0.0,0.0,0.0,0.0,3.3669,3.4216,3.4537,3.5837,3.6325,3.5126,3.7004,3.8146,3.7495,3.7647,3.8193,3.9206,3.8741,3.8863,3.9868,3.963,3.9479,3.95,3.9766,3.9912,3.9912,4.1037,4.175,4.2026,4.2731,4.3063,4.308,4.3695,4.3767,0.0,4.3828,4.3465,4.2645,4.292,4.2741,0.0,0.0,0.0,0.0,0.0,4.0506,4.0305,0.0,0.0,0.0,0.0,0.0,0.0,0.0,0.0,0.0,0.0,0.0,2.0443,2.1507,2.3076,2.404,2.3992,2.5098,2.5394,0.0,0.0,0.0,2.6897,2.804,2.8931,2.9526,2.9532,2.9485,2.9368,2.9429,2.9384,2.9196,2.9265,2.9306,2.9306,2.9306,2.9265,2.9196,2.9196,2.9154,2.9099,2.9099,2.8649,2.7994,2.804,2.7406,2.6508,2.6625,2.6666,2.6713,2.6954,0.0,0.0,0.0,0.0,0.0,0.0,0.0,0.0,0.0,0.0,0.0,0.0,0.0,0.0,0.0,0.0,0.0,0.0,0.0,0.0,0.0,0.0,0.0,0.0,3.3477,3.4113,3.4712,3.6285,3.6677,3.4743,3.6816,3.817,3.754,3.806,3.8975,4.0282,3.9258,3.9146,4.052,0.0,0.0,0.0,0.0,4.0749,4.083,4.155,4.2206,4.279,4.3444,4.3776,4.3808,4.4528,4.4286,4.3352,4.4069,4.3769,4.2806,4.3509,4.3774,4.3642,4.2562,4.2112,4.2056,4.1958,4.1647,4.1221,0.0,0.0,0.0,0.0,0.0,0.0,0.0,0.0,0.0,1.9893,2.0142,2.0623,2.1648,2.2595,2.318,2.3286,2.4445,2.5439,0.0,0.0,2.5202,2.783,2.8169,2.8584,2.918,2.9202,2.9178,2.9162,2.9653,2.9864,2.9845,3.0314,3.0549,3.0549,3.0549,3.0287,2.9831,2.9831,2.9541,2.9099,2.9099,2.9103,2.9089,2.9098,2.9035,2.8924,2.8947,2.8954,2.8907,2.8598,2.8312,2.8208,2.8905,0.0,0.0,0.0,0.0,0.0,0.0,0.0,0.0,0.0,0.0,0.0,0.0,0.0,0.0,0.0,0.0,0.0,0.0,0.0,0.0,3.342,3.4487,3.5283,3.5414,3.6522,3.6784,3.5373,3.7143,3.8184,3.7402,3.8499,3.9359,3.9603,3.9953,4.0444,4.1101,4.1009,0.0,4.1816,4.1961,4.2284,4.284,4.3565,4.3926,4.3897,0.0,0.0,4.4362,4.4936,4.5223,4.5283,4.5869,4.5682,4.5014,4.5432,4.551,4.5233,4.4056,4.34,4.3016,4.2317,4.2357,4.2586,0.0,0.0,0.0,0.0,0.0,0.0,0.0,0.0,0.0,0.0,1.9951,2.0469,2.1173,2.2187,2.2927,2.3263,2.4038,0.0,0.0,2.5696,2.6166,2.8554,2.8643,2.8795,2.9085,2.9403,2.9506,2.9401,3.0,3.0275,3.0205,3.0506,3.0643,3.0643,3.0643,3.0478,3.0205,3.0205,3.0027,2.9745,2.9745,2.9846,2.9966,2.9557,2.9477,2.9595,2.9595,2.9595,2.9591,2.9512,2.9381,2.9417,3.0394,3.0156,2.9514,0.0,0.0,0.0,0.0,0.0,0.0,0.0,0.0,0.0,0.0,0.0,0.0,0.0,0.0,3.173,0.0,0.0,3.3825,3.4233,3.5026,3.5722,3.6049,3.6592,3.6681,3.5936,3.7696,3.862,3.777,3.8999,3.9976,4.0282,4.067,4.1319,4.2294,4.2348,4.2474,4.2743,4.3112,4.3457,4.3793,4.4532,4.5018,4.5243,4.5243,4.5295,4.5405,4.5687,4.5893,4.6074,4.634,4.6248,4.5961,4.6126,4.6038,4.5799,4.5654,4.5295,4.4793,4.4351,4.4239,4.4178,0.0,0.0,0.0,0.0,0.0,0.0,0.0,0.0,0.0,0.0,1.9725,2.021,2.0684,2.1753,2.2729,0.0,0.0,0.0,0.0,2.6471,2.7118,2.8913,2.8996,2.9059,2.9183,2.9651,2.9885,2.9842,3.0443,3.0675,3.0573,3.0681,3.0758,3.0758,3.0758,3.0681,3.0573,3.0573,3.0505,3.0396,3.0396,3.0486,3.0528,2.9874,2.9754,2.9905,2.9905,2.9936,3.0013,3.028,3.0436,3.067,3.1593,3.1947,3.1922,3.1352,3.1909,0.0,0.0,0.0,0.0,0.0,0.0,0.0,0.0,0.0,3.1391,3.1353,3.2364,3.3145,3.2749,3.3936,3.5037,3.5198,3.5652,3.6158,3.6699,3.6964,3.7053,3.6876,3.8386,3.9106,3.8314,3.9656,4.0792,4.1289,4.1449,4.2105,4.3456,4.3521,4.3505,4.3465,4.4041,4.4417,4.4576,4.5161,4.571,4.6207,4.6207,4.6225,4.6261,4.6261,4.6278,4.6298,4.6298,4.6298,4.6298,4.6342,4.6242,4.6157,4.6938,4.6996,4.6624,4.6497,4.6197,4.5822,0.0,0.0,0.0,0.0,0.0,0.0,0.0,0.0,0.0,0.0,0.0,0.0,0.0,0.0,0.0,0.0,0.0,0.0,2.637,2.6163,2.6761,2.8583,2.8659,2.8904,2.9435,2.9525,2.9812,3.0327,3.0933,3.1209,3.1214,3.1752,3.1997,3.1997,3.1997,3.1689,3.1192,3.1192,3.0893,3.0396,3.0396,3.0486,3.0584,3.0504,3.0698,3.1018,3.1018,3.1134,3.1291,3.1338,3.1614,3.1981,3.2117,3.2478,3.2737,3.2081,0.0,3.218,2.9843,2.9242,2.9672,3.123,3.2007,3.2373,0.0,0.0,3.4193,3.4003,3.4666,3.539,3.5723,3.6105,3.6385,3.6406,3.6894,3.7306,3.7393,3.828,3.8903,3.8884,3.9238,3.9295,3.8764,4.0705,4.1908,4.1745,4.2338,4.306,4.3878,4.3932,4.4201,4.4762,4.4866,4.5232,4.5875,4.598,4.597,4.5862,4.5862,4.5943,4.6114,4.6114,4.6178,4.6298,4.6298,4.6298,4.6307,4.6493,4.6741,4.7069,4.7287,4.7556,4.7742,4.7205,4.7196,4.7321,0.0,0.0,0.0,0.0,0.0,0.0,0.0,0.0,0.0,0.0,0.0,0.0,0.0,0.0,0.0,0.0,0.0,0.0,2.545,2.5786,2.6546,2.8017,2.8418,2.8831,2.931,2.9669,3.009,3.0569,3.1177,3.1536,3.1654,3.1919,3.2091,3.22,3.22,3.2065,3.182,3.182,3.1676,3.1445,3.1445,3.1489,3.1524,3.1524,3.1683,3.179,3.0921,3.067,0.0,0.0,3.1047,3.1363,3.2223,3.2238,3.205,3.2552,3.2228,0.0,3.0962,3.0947,3.1383,0.0,3.3494,3.4184,3.4184,3.4947,3.5604,3.5526,3.586,3.6242,3.6449,3.664,3.6852,0.0,3.766,3.8178,3.846,3.9199,3.9726,3.9726,3.9763,3.9548,3.8919,4.118,4.2288,4.1353,4.3036,4.4252,4.4568,4.4999,4.5296,4.5466,4.5473,4.5615,4.5916,4.5941,4.588,4.5798,4.5798,4.5835,4.5941,4.5941,4.6015,4.6187,4.6269,4.6298,4.6307,4.6395,4.6527,4.6693,4.6876,4.7176,4.7546,4.7596,4.7738,4.7825,0.0,0.0,0.0,0.0,0.0,0.0,0.0,0.0,0.0,0.0,0.0,0.0,0.0,0.0,0.0,0.0,0.0,0.0,0.0,2.5403,2.6304,2.7643,2.8032,2.8525,2.9193,2.9741,3.0244,3.0699,3.1303,3.1674,3.1817,3.1817,3.189,3.2046,3.2091,3.2118,3.2118,3.2182,3.22,3.22,3.22,3.22,3.22,3.22,3.2042,3.1721,3.0695,3.0366,0.0,0.0,3.0415,3.0913,3.168,3.1721,3.1619,3.2323,3.1678,3.0896,3.1658,3.2139,0.0,3.3652,3.464,3.5436,3.5616,3.6034,3.643,3.6614,3.6756,3.6903,3.7088,3.7341,3.7628,3.7917,3.8521,3.9066,3.9397,3.9987,4.0259,3.9886,4.0114,3.9869,3.8731,4.1027,4.2329,4.1671,4.3622,4.487,4.487,4.5597,4.5943,4.5798,4.5798,4.5798,4.5798,4.5798,4.5798,4.5798,4.5798,4.5825,4.588,4.5925,4.6024,4.6168,4.6261,4.6298,4.6298,4.636,4.6386,4.6388,4.6607,4.6859,4.7158,4.7554,4.7836,4.8001,0.0,0.0,0.0,0.0,0.0,0.0,0.0,0.0,0.0,0.0,0.0,0.0,0.0,0.0,0.0,0.0,0.0,0.0,0.0,2.5108,2.5964,2.7623,2.7414,2.7868,2.9171,2.9595,3.0095,3.0699,3.1303,3.16,3.1609,3.1609,3.1609,3.1637,3.1817,3.1908,3.1918,3.2118,3.22,3.22,3.22,3.22,3.22,3.22,3.1481,3.0485,3.0622,0.0,0.0,2.9602,3.0224,3.1308,3.0303,3.0995,0.0,3.1138,3.047,3.0242,3.1246,3.1617,3.216,3.3939,3.4887,3.5543,3.6141,3.6434,3.6781,3.7436,3.7517,3.7671,3.8312,3.8814,3.9126,3.9155,3.9663,4.0055,4.006,4.0651,4.0612,3.9368,4.0327,4.0247,0.0,4.0115,4.2062,4.3319,4.41,4.4523,4.4523,4.5339,4.5807,4.5798,4.5798,4.5798,4.5798,4.5798,4.5798,4.5798,4.5798,4.5898,4.6103,4.6225,4.628,4.6289,4.6298,4.6298,4.6315,4.6511,4.6582,4.66,4.6807,4.6893,4.6902,4.6935,4.7387,4.8001,0.0,0.0,0.0,0.0,0.0,0.0,0.0,0.0,0.0,0.0,0.0,0.0,0.0,0.0,0.0,0.0,2.1617,2.2506,0.0,2.4266,2.5024,2.6004,2.7,2.7872,2.8585,2.8996,2.9427,2.9896,3.0374,3.0672,3.0809,3.1203,3.1475,3.16,3.1674,3.1701,3.172,3.1762,3.1881,3.1991,3.1853,3.1963,3.2137,3.1613,3.0996,3.0256,0.0,0.0,2.8873,2.8617,2.8881,2.9338,2.9415,2.9323,2.9155,2.8842,2.9878,3.1224,3.1708,3.2708,3.3886,3.493,3.593,3.6707,3.6925,3.7334,3.7728,3.7941,3.767,3.7443,3.767,3.7939,3.8225,3.8497,3.9198,3.995,4.0661,4.0234,4.0162,4.1018,4.0256,0.0,0.0,0.0,0.0,4.2325,4.4195,4.5358,4.5358,4.5637,4.5798,4.5798,4.5798,4.6004,4.6455,4.6455,4.6708,4.7198,4.6821,4.6516,4.6234,4.6421,4.6502,4.6511,4.6633,4.6702,4.6694,4.6764,4.6798,4.6807,4.6868,4.6893,4.6893,4.6893,4.7064,4.7268,0.0,0.0,0.0,0.0,0.0,0.0,0.0,0.0,0.0,0.0,0.0,0.0,0.0,0.0,0.0,0.0,0.0,2.1615,2.251,0.0,2.3932,2.4701,2.5862,2.675,2.7326,2.8103,2.8639,2.8894,2.956,2.9932,3.0026,3.039,3.0647,3.077,3.0852,3.0888,3.0888,3.0961,3.118,3.1418,3.0886,3.094,3.1267,3.0318,2.9576,0.0,0.0,0.0,2.6887,2.7001,2.7393,2.7819,2.7853,2.7675,2.7639,2.8606,3.0123,3.1717,3.2619,3.4005,3.5373,3.6035,3.6916,3.7612,3.7612,3.7926,3.8221,3.8287,3.8123,3.7858,3.7476,3.7831,3.8269,3.8511,3.9212,4.0115,4.1285,4.0742,4.0525,4.1279,4.0371,4.0221,0.0,0.0,0.0,4.1505,4.3704,4.4977,4.4706,4.5395,4.6035,4.6525,4.6557,4.6755,4.7182,4.7198,4.7435,4.7903,4.7699,4.7415,4.7092,4.7337,4.7161,4.6666,4.7098,4.6964,4.6459,4.677,4.6893,4.6893,4.6893,4.6893,4.6893,4.6893,4.6893,4.6893,0.0,0.0,0.0,0.0,0.0,0.0,0.0,0.0,0.0,0.0,0.0,0.0,0.0,0.0,0.0,0.0,0.0,0.0,2.1526,0.0,0.0,2.3756,2.4119,2.4667,2.5492,2.6913,2.7634,2.764,2.8762,2.9254,2.9122,2.9174,2.9214,2.9209,2.9412,2.95,2.9508,2.9705,3.0086,3.0463,2.9396,2.9301,2.9684,2.8525,0.0,0.0,0.0,0.0,2.4991,2.4998,2.5935,2.6917,2.5955,2.6343,2.7633,3.0217,3.1168,3.1817,3.3891,3.5407,3.6553,3.7192,3.7781,3.8202,3.8202,3.8202,3.8235,3.8388,3.8751,3.8705,0.0,0.0,3.9025,3.9122,3.9615,4.0466,4.1802,4.1961,4.1482,0.0,0.0,0.0,0.0,0.0,0.0,4.1116,0.0,4.3648,4.3033,4.4858,4.6543,4.7865,4.7918,4.7925,4.7956,4.7997,4.8016,4.7994,4.8376,4.8555,4.8551,4.8849,4.8203,4.6853,4.7687,4.7176,4.5836,4.667,4.6991,4.6958,4.6958,4.6926,4.6893,4.6893,4.6893,4.6893,0.0,0.0,0.0,0.0,0.0,0.0,0.0,0.0,0.0,0.0,0.0,0.0,0.0,0.0,0.0,0.0,0.0,0.0,2.091,0.0,0.0,0.0,0.0,0.0,0.0,0.0,0.0,2.5424,2.6312,2.6737,2.671,2.7559,2.7951,2.7951,2.801,2.8048,2.8035,2.8094,2.8275,2.8549,0.0,2.8645,2.8515,0.0,0.0,0.0,0.0,2.5454,2.4863,2.497,2.5841,2.6992,2.761,2.833,2.9164,3.0297,3.2027,3.3802,3.4849,3.6397,3.7767,3.7941,3.8086,3.8202,3.8202,3.8202,3.8044,3.7501,3.7075,3.6558,0.0,0.0,0.0,3.8067,3.8518,0.0,4.0423,4.022,0.0,4.0089,0.0,4.078,4.1856,4.2434,0.0,0.0,4.4163,4.6,4.698,4.7388,4.7751,4.8116,4.7978,4.813,4.8645,4.9332,4.9502,4.9101,4.9358,4.9264,4.8876,4.8966,4.879,4.8424,4.8654,4.8499,4.8156,4.8363,4.8163,4.7709,4.7709,4.7378,4.6893,4.6893,4.6893,4.6893,0.0,0.0,0.0,0.0,0.0,0.0,0.0,0.0,0.0,0.0,0.0,0.0,0.0,0.0,0.0,0.0,0.0,0.0,0.0,0.0,0.0,0.0,0.0,0.0,0.0,0.0,0.0,0.0,0.0,0.0,2.5475,2.6335,2.676,2.6806,2.6774,2.676,2.6804,2.6807,0.0,0.0,0.0,0.0,0.0,0.0,0.0,0.0,0.0,2.5135,2.5369,2.647,2.7,2.7517,2.9408,2.9906,3.0199,3.2339,3.3756,3.4906,3.626,3.7399,3.8202,3.8202,3.8202,3.8111,3.7742,3.7666,3.7392,3.6367,3.6081,3.569,3.4679,3.4824,0.0,0.0,0.0,0.0,3.9905,3.9813,3.9712,0.0,4.036,0.0,4.2843,4.3264,4.3734,0.0,4.4925,4.5769,4.7082,4.7539,4.8178,4.9098,4.9015,4.9138,4.9512,5.0036,5.0182,4.9981,5.019,5.0131,4.9837,4.9939,4.9583,4.8935,0.0,4.9073,4.846,4.883,4.8785,4.8445,4.8445,4.8195,4.7815,4.7815,4.7637,4.7378,0.0,0.0,0.0,0.0,0.0,0.0,0.0,0.0,0.0,0.0,0.0,0.0,0.0,0.0,0.0,0.0,0.0,0.0,0.0,0.0,0.0,0.0,0.0,0.0,0.0,0.0,0.0,0.0,0.0,0.0,0.0,0.0,0.0,0.0,0.0,0.0,0.0,0.0,0.0,0.0,0.0,0.0,0.0,0.0,0.0,0.0,2.4292,2.4887,2.6031,2.8431,2.8714,2.8521,3.1206,3.136,3.1274,3.49,3.5544,3.5516,3.7538,3.8144,3.8202,3.8202,3.8202,3.801,3.7322,3.703,3.6555,3.5358,3.5375,3.5305,3.4264,3.4557,3.5594,3.7544,0.0,3.8302,3.9446,3.9886,4.0041,3.9871,4.0583,4.1638,4.3003,4.3583,4.484,4.719,4.5386,4.4752,4.6103,4.7134,4.8483,5.0234,5.0321,5.033,5.0301,5.035,5.0473,5.0647,5.0839,5.0934,5.096,5.1117,5.0426,4.9112,0.0,0.0,4.8189,4.8965,4.9238,4.9157,4.9157,4.9074,4.8959,4.8986,4.863,4.8095,0.0,0.0,0.0,0.0,0.0,0.0,0.0,0.0,0.0,0.0,1.8303,0.0,0.0,0.0,0.0,0.0,0.0,0.0,0.0,0.0,0.0,0.0,0.0,0.0,0.0,0.0,0.0,0.0,0.0,0.0,0.0,0.0,0.0,0.0,0.0,0.0,0.0,0.0,0.0,0.0,0.0,0.0,0.0,0.0,0.0,0.0,2.4262,2.4799,2.586,2.854,2.9658,3.0315,3.2574,3.3367,3.3714,3.4923,3.5652,3.6264,3.7197,3.7825,3.8202,3.8202,3.8202,3.8164,3.8025,3.7175,0.0,3.5284,3.4355,3.3748,3.3902,3.4117,3.4911,3.6859,3.7305,3.7309,3.7003,3.8768,3.9712,0.0,4.0046,4.1827,4.3656,4.3438,0.0,0.0,0.0,4.6909,5.0019,5.0237,5.0275,5.0301,5.0457,5.0473,5.0301,5.0628,5.0801,5.0855,5.1058,5.1146,5.1146,5.1183,5.095,5.0551,5.0865,0.0,5.0368,5.0687,5.0455,4.9911,4.9911,4.9438,4.8762,4.8932,4.8831,4.8601,0.0,0.0,0.0,0.0,0.0,0.0,0.0,0.0,0.0,0.0,1.8748,1.8513,0.0,0.0,0.0,0.0,0.0,0.0,0.0,0.0,0.0,0.0,0.0,0.0,0.0,0.0,2.1805,2.1423,0.0,0.0,0.0,0.0,0.0,0.0,0.0,0.0,0.0,0.0,0.0,0.0,0.0,0.0,0.0,0.0,0.0,0.0,0.0,2.477,2.573,2.7895,2.9162,3.0354,3.3416,3.4232,3.4161,3.4771,3.551,3.6221,3.6586,3.7426,3.8174,3.8076,3.8038,3.7818,3.6987,3.6042,3.4983,3.3608,3.2591,3.204,3.2337,3.2438,3.336,3.603,3.6851,3.7299,3.7748,3.9131,3.9871,3.9262,4.0626,4.199,0.0,4.3322,0.0,0.0,0.0,4.6328,4.8988,4.9789,5.0038,4.9751,5.0285,5.0544,5.0463,5.0647,5.0807,5.0903,5.0896,5.088,5.088,5.088,5.0839,5.0743,5.0858,0.0,4.9719,5.0552,5.0252,4.9344,5.0194,5.0247,4.9869,5.0073,4.984,4.9434,0.0,0.0,0.0,0.0,0.0,0.0,0.0,1.9536,1.955,1.9503,1.9403,1.9304,1.9225,1.8442,1.7927,0.0,0.0,0.0,0.0,0.0,0.0,0.0,0.0,0.0,0.0,0.0,0.0,2.2016,2.2804,0.0,0.0,0.0,0.0,0.0,0.0,0.0,0.0,0.0,0.0,0.0,0.0,0.0,0.0,0.0,0.0,0.0,0.0,2.4647,2.5376,2.7054,2.823,2.9597,3.3023,3.3805,3.3613,3.4497,3.507,3.5536,3.6035,3.6974,3.7807,3.7728,3.7762,3.7447,3.5975,3.4978,3.3882,3.2119,3.1168,3.0768,3.1141,3.1254,3.2264,0.0,3.6059,3.6853,3.8551,3.9204,3.9654,0.0,4.1279,0.0,4.2469,4.3409,0.0,0.0,0.0,0.0,4.7057,4.831,4.8963,4.8984,4.9779,5.0289,5.0447,5.0544,5.0685,5.082,5.0676,5.0599,5.0599,5.0599,5.0579,5.055,5.0589,0.0,0.0,4.9997,4.9776,4.8651,5.0273,5.0874,5.0874,5.1108,5.0808,5.0248,0.0,0.0,0.0,0.0,0.0,0.0,0.0,2.0475,2.1108,2.1097,2.0513,2.005,1.992,1.8767,1.7975,0.0,0.0,0.0,0.0,0.0,0.0,0.0,0.0,0.0,0.0,0.0,0.0,2.2716,2.2557,0.0,0.0,0.0,0.0,0.0,0.0,0.0,0.0,0.0,0.0,0.0,0.0,0.0,0.0,0.0,0.0,0.0,0.0,2.4278,2.45,2.6352,2.7458,2.8366,3.0237,3.1376,3.233,3.4099,3.411,3.3968,3.5857,3.6467,3.6655,3.6996,3.7361,3.7353,3.6291,3.4963,3.3579,3.2246,3.1002,3.0516,3.169,3.205,3.2842,0.0,0.0,3.4675,3.7128,3.7525,3.8188,3.99,0.0,0.0,4.3714,4.3932,0.0,0.0,0.0,0.0,4.6921,4.7147,4.7551,4.8273,4.8728,4.9287,4.9955,5.0389,5.0608,5.0628,5.0608,5.0599,5.0599,5.0599,5.0496,5.034,5.0521,0.0,0.0,4.994,4.9776,4.8651,5.0273,5.0781,5.0676,5.1061,5.1038,5.0819,0.0,0.0,0.0,0.0,0.0,0.0,0.0,2.1058,2.1108,2.0589,2.033,1.9829,1.8834,1.8303,1.7972,0.0,0.0,0.0,0.0,0.0,0.0,0.0,0.0,0.0,0.0,0.0,0.0,2.2314,2.2939,0.0,0.0,0.0,0.0,0.0,0.0,0.0,0.0,0.0,0.0,0.0,0.0,0.0,0.0,0.0,0.0,0.0,0.0,0.0,2.4319,2.4992,2.5927,2.6876,2.7262,2.8147,2.9433,3.1466,3.2501,3.3124,3.3662,3.4724,3.5775,3.6179,3.6391,3.6183,3.494,3.388,3.2721,3.1128,3.0103,2.971,3.0423,3.0518,3.1071,0.0,0.0,0.0,3.6717,3.779,3.8806,4.0294,4.1895,0.0,0.0,0.0,0.0,0.0,0.0,0.0,4.446,4.5599,4.6304,4.6513,4.7882,4.8692,4.8887,4.9622,5.006,5.0178,5.006,5.0138,5.0418,5.0418,5.0369,5.0311,5.0521,0.0,0.0,4.9579,4.9254,4.743,4.9926,5.0855,5.0791,5.0963,5.0979,5.0874,0.0,0.0,0.0,0.0,0.0,0.0,2.1275,2.1499,2.135,2.0737,2.0384,1.9777,1.8638,1.8206,1.7972,1.7912,0.0,0.0,0.0,0.0,0.0,0.0,0.0,0.0,0.0,0.0,0.0,0.0,2.3024,2.3599,0.0,0.0,0.0,0.0,0.0,0.0,0.0,0.0,0.0,0.0,0.0,0.0,0.0,0.0,0.0,0.0,0.0,0.0,0.0,0.0,0.0,2.5715,2.5382,2.5976,2.7219,2.9396,3.0819,3.1747,3.2055,3.3331,3.4729,3.538,3.5356,3.4886,3.3748,3.2807,3.1695,3.0066,2.9403,2.917,2.9407,2.9363,2.9833,0.0,0.0,3.3142,3.5892,3.7151,3.8378,3.9989,0.0,0.0,0.0,0.0,0.0,0.0,0.0,0.0,0.0,4.4149,4.4932,4.5072,4.6545,4.7543,4.798,4.8733,4.9381,4.9896,4.9757,4.971,4.9754,5.0188,5.0156,4.9764,0.0,0.0,0.0,4.9467,4.9102,4.7204,4.973,5.0807,5.0893,5.082,5.0855,5.0845,0.0,0.0,0.0,0.0,0.0,0.0,0.0,2.1846,2.2188,2.2182,2.1025,2.0145,1.9995,1.8786,1.7972,1.7912,0.0,0.0,0.0,0.0,0.0,0.0,0.0,0.0,0.0,0.0,0.0,0.0,0.0,0.0,0.0,0.0,0.0,0.0,0.0,0.0,0.0,0.0,0.0,0.0,0.0,0.0,0.0,0.0,0.0,0.0,0.0,0.0,0.0,0.0,0.0,0.0,0.0,2.5382,2.6259,2.8547,2.9132,2.9503,3.1617,3.2653,3.341,3.4613,3.4316,3.3605,3.3114,3.1917,3.0577,2.9361,2.9099,2.9099,2.9099,2.9214,2.9778,0.0,0.0,0.0,3.4314,3.4923,3.6084,0.0,0.0,4.1412,0.0,0.0,0.0,0.0,0.0,0.0,0.0,4.2923,4.3352,4.4277,4.4528,4.5563,4.7486,4.7784,4.8584,4.9896,4.9896,4.9379,4.8469,4.9923,4.9811,0.0,0.0,0.0,0.0,4.9789,4.9573,4.8598,4.9821,5.055,5.0884,5.0676,5.0724,5.0845,0.0,0.0,0.0,0.0,0.0,0.0,0.0,2.1485,2.1215,2.0214,1.9716,1.9219,1.8625,1.8191,1.7924,1.7902,0.0,0.0,0.0,0.0,0.0,0.0,0.0,0.0,0.0,0.0,0.0,0.0,0.0,0.0,0.0,0.0,0.0,0.0,0.0,0.0,0.0,0.0,0.0,0.0,0.0,0.0,0.0,0.0,0.0,0.0,0.0,0.0,0.0,0.0,0.0,0.0,0.0,0.0,0.0,2.6106,2.7274,2.8272,2.8668,2.9522,3.0487,3.1284,3.1292,3.1059,3.0922,3.0618,3.0003,2.8796,2.8654,2.8788,2.8876,2.8846,2.9276,3.0659,0.0,0.0,0.0,0.0,0.0,3.8931,4.0241,0.0,0.0,0.0,0.0,0.0,0.0,0.0,0.0,4.2899,4.3043,4.3328,4.4034,4.5012,4.6322,4.7056,4.8051,4.9276,4.9276,4.8782,4.7912,4.9559,0.0,0.0,0.0,0.0,0.0,5.0284,5.0109,4.8976,5.0373,5.0915,5.0884,5.0676,5.0544,5.0447,0.0,0.0,0.0,0.0,0.0,0.0,0.0,2.1305,2.0951,1.9976,1.9616,1.9327,1.899,1.8733,1.8486,1.826,0.0,0.0,0.0,0.0,0.0,0.0,0.0,0.0,0.0,0.0,0.0,0.0,0.0,0.0,0.0,0.0,0.0,0.0,0.0,0.0,0.0,0.0,0.0,0.0,0.0,0.0,2.2964,0.0,0.0,0.0,0.0,0.0,0.0,0.0,0.0,0.0,0.0,0.0,0.0,0.0,2.5549,2.6802,2.7057,2.7814,2.8728,2.9482,2.946,2.9319,2.9669,2.9578,2.921,2.8443,2.8825,2.9135,2.8633,2.8879,2.9319,2.977,0.0,0.0,0.0,0.0,0.0,3.8711,0.0,0.0,0.0,0.0,0.0,0.0,0.0,0.0,0.0,4.2899,4.2899,4.2899,4.3471,4.4417,4.579,4.6381,4.7495,4.9113,4.9113,4.8603,4.7731,4.9355,0.0,0.0,0.0,0.0,0.0,5.0513,5.0405,4.978,5.046,5.0737,5.0743,5.0447,5.0321,5.0262,0.0,0.0,0.0,0.0,0.0,0.0,0.0,0.0,0.0,0.0,2.0343,2.01,2.0529,2.0053,1.9467,0.0,0.0,0.0,0.0,0.0,0.0,0.0,0.0,0.0,0.0,0.0,0.0,2.0714,2.1483,2.2068,2.2495,0.0,0.0,0.0,0.0,0.0,0.0,0.0,0.0,0.0,0.0,0.0,0.0,0.0,0.0,0.0,0.0,0.0,0.0,0.0,0.0,0.0,0.0,0.0,0.0,0.0,0.0,0.0,0.0,2.719,2.7835,2.8753,2.8459,2.8171,2.9087,2.8754,0.0,2.8386,2.9457,2.9947,2.8512,2.9345,2.991,2.8872,0.0,0.0,0.0,3.3692,0.0,0.0,0.0,0.0,0.0,0.0,0.0,0.0,0.0,0.0,0.0,4.2899,4.2899,4.2899,4.2899,4.379,4.5677,4.5689,4.6815,4.9008,4.9117,4.8595,4.7621,4.9158,0.0,0.0,0.0,0.0,0.0,5.0525,5.0505,5.0791,5.0187,5.0213,5.0531,5.0089,5.007,5.0242,0.0,0.0,0.0,0.0,0.0,0.0,0.0,0.0,0.0,0.0,0.0,1.931,1.9314,1.9552,0.0,0.0,0.0,0.0,0.0,0.0,0.0,0.0,0.0,0.0,0.0,0.0,0.0,2.1904,2.2191,2.2339,2.2357,2.2857,0.0,0.0,0.0,0.0,0.0,0.0,0.0,0.0,0.0,0.0,0.0,0.0,0.0,0.0,2.3213,2.2478,0.0,0.0,0.0,0.0,0.0,0.0,0.0,0.0,2.3392,2.3785,2.4575,0.0,2.571,2.5942,2.618,2.6517,0.0,2.7655,0.0,0.0,0.0,3.0064,2.9691,3.0768,3.1275,2.9968,0.0,0.0,3.3907,0.0,0.0,0.0,0.0,0.0,0.0,0.0,0.0,0.0,0.0,0.0,0.0,4.2899,4.2899,4.2899,4.2899,4.3459,4.4649,4.4647,4.5156,4.6191,4.7203,4.6864,4.5441,4.8187,0.0,0.0,0.0,0.0,5.0201,5.0214,5.0283,5.036,5.0412,5.0408,5.036,5.0252,5.0109,4.9975,0.0,0.0,0.0,0.0,0.0,0.0,0.0,0.0,0.0,0.0,0.0,0.0,0.0,0.0,0.0,0.0,0.0,0.0,0.0,0.0,0.0,0.0,0.0,0.0,0.0,0.0,0.0,0.0,0.0,2.2324,0.0,0.0,0.0,0.0,0.0,0.0,0.0,0.0,0.0,0.0,2.1003,0.0,0.0,0.0,0.0,0.0,2.2677,2.1942,0.0,2.1116,2.0936,2.0745,0.0,0.0,0.0,0.0,2.2791,2.3268,2.3601,2.4125,2.4745,2.5436,2.5516,2.5782,2.7125,2.7415,2.7876,0.0,0.0,3.0002,3.0002,3.0626,3.0917,0.0,3.124,0.0,0.0,0.0,0.0,0.0,0.0,0.0,0.0,0.0,0.0,0.0,0.0,0.0,0.0,4.2899,4.2899,4.2899,4.2899,4.3352,4.4289,4.4765,4.5059,4.5228,4.7004,4.7027,4.5592,4.7918,4.8698,0.0,0.0,0.0,4.9848,4.9142,4.9282,4.9939,5.0073,5.007,4.9991,5.0079,5.003,4.9896,0.0,0.0,0.0,0.0,0.0,0.0,0.0,0.0,0.0,0.0,0.0,0.0,0.0,0.0,0.0,0.0,0.0,0.0,0.0,0.0,0.0,0.0,0.0,0.0,0.0,0.0,0.0,0.0,0.0,0.0,0.0,0.0,2.2678,0.0,0.0,2.1925,2.153,2.1441,0.0,0.0,2.1158,0.0,0.0,0.0,0.0,0.0,0.0,0.0,0.0,2.0749,2.0693,2.0693,2.0693,0.0,0.0,0.0,0.0,0.0,2.3218,2.3676,2.4469,2.5902,2.564,2.5596,2.7763,2.7556,2.7538,0.0,0.0,3.0205,3.0205,3.0512,0.0,0.0,0.0,0.0,3.5574,0.0,0.0,0.0,0.0,0.0,0.0,0.0,0.0,0.0,0.0,0.0,0.0,4.2899,4.2899,4.2899,4.2899,4.3281,4.4081,4.4926,4.524,4.5005,4.7151,4.763,4.665,4.7994,4.8826,0.0,0.0,0.0,4.9599,4.8147,4.8331,4.9507,4.9583,4.9577,4.9577,4.9807,4.9876,4.9872,0.0,0.0,0.0,0.0,0.0,0.0,0.0,0.0,0.0,0.0,0.0,0.0,0.0,0.0,0.0,0.0,0.0,0.0,0.0,0.0,0.0,0.0,0.0,0.0,0.0,0.0,0.0,0.0,0.0,0.0,2.4059,2.3314,2.3375,2.4031,0.0,2.1768,2.213,2.162,2.1253,2.1074,2.1876,0.0,0.0,0.0,0.0,0.0,0.0,0.0,0.0,2.0755,2.0693,2.0693,2.0693,0.0,0.0,0.0,0.0,0.0,2.3321,2.3841,2.4568,2.5818,2.5648,2.5695,2.7679,2.7492,2.7787,0.0,0.0,0.0,0.0,3.3362,3.3943,0.0,0.0,0.0,0.0,0.0,0.0,0.0,0.0,0.0,0.0,0.0,0.0,0.0,0.0,0.0,0.0,4.2899,4.2899,4.2899,4.2899,4.2972,4.3115,4.3269,4.3547,4.3945,4.5497,4.6352,4.665,4.7994,4.864,0.0,0.0,4.8512,4.88,4.8763,4.8881,4.9139,4.9472,4.9497,4.9386,4.9757,4.9787,4.9667,0.0,0.0,0.0,0.0,0.0,0.0,0.0,0.0,0.0,0.0,0.0,0.0,0.0,0.0,0.0,0.0,0.0,0.0,0.0,0.0,0.0,0.0,1.8048,1.8293,0.0,0.0,0.0,0.0,0.0,2.2508,2.4243,2.3933,2.3377,2.2599,2.177,2.1554,2.1791,2.1434,2.1466,2.1772,0.0,0.0,0.0,0.0,0.0,0.0,0.0,0.0,0.0,0.0,2.0484,2.0262,2.0595,0.0,0.0,0.0,0.0,0.0,2.2946,2.3716,2.4902,2.6732,2.618,2.6072,2.9402,2.8474,2.8042,0.0,0.0,0.0,0.0,0.0,3.3149,3.3059,0.0,0.0,0.0,0.0,0.0,0.0,0.0,0.0,0.0,0.0,0.0,0.0,0.0,0.0,0.0,0.0,4.2899,4.2899,4.2899,4.2899,4.2899,4.2899,4.3178,4.373,4.565,4.6565,4.665,4.7994,4.8609,4.8563,0.0,4.7932,4.8548,4.7946,4.8126,4.8811,4.9154,4.9225,4.9195,4.9593,4.9607,4.9477,0.0,0.0,0.0,0.0,0.0,0.0,0.0,0.0,0.0,0.0,0.0,0.0,0.0,0.0,0.0,0.0,0.0,0.0,0.0,0.0,1.8059,1.8412,1.8094,1.837,0.0,0.0,2.0147,2.0924,2.1353,2.2494,2.4308,2.4164,2.343,2.2234,2.1659,2.1476,2.1596,2.1475,2.175,2.2277,0.0,0.0,0.0,0.0,0.0,0.0,0.0,0.0,0.0,0.0,0.0,0.0,0.0,0.0,0.0,2.0567,2.1568,2.2596,2.2596,2.358,2.5107,2.7223,2.6513,2.6497,3.0944,2.9407,2.8326,0.0,0.0,0.0,0.0,3.2619,0.0,3.4856,0.0,0.0,0.0,0.0,0.0,0.0,0.0,0.0,0.0,0.0,0.0,0.0,0.0,0.0,0.0,0.0,4.2899,4.2899,4.2899,4.2899,4.2899,4.2899,4.3225,4.3857,4.5892,4.6841,4.6778,4.8024,4.8609,4.8548,4.7501,4.764,4.8522,4.7496,4.7671,4.863,4.8898,4.9026,4.9093,4.9361,4.9386,4.9346,0.0,0.0,0.0,0.0,0.0,0.0,0.0,0.0,0.0,0.0,0.0,0.0,0.0,0.0,0.0,0.0,0.0,0.0,0.0,0.0,1.7922,1.7958,1.7922,1.8906,0.0,2.0181,2.0524,2.217,2.1664,2.2402,2.4293,2.3731,2.3947,2.4727,2.2434,2.1708,2.2223,2.2092,2.1999,2.1997,2.2779,0.0,0.0,0.0,0.0,0.0,0.0,0.0,0.0,0.0,0.0,0.0,0.0,0.0,2.0711,2.007,2.1169,2.2603,2.2597,2.3581,2.4942,2.6353,2.6176,2.6808,3.1184,2.9727,0.0,3.3007,0.0,0.0,0.0,3.4585,3.4951,0.0,0.0,0.0,0.0,0.0,0.0,0.0,0.0,0.0,0.0,0.0,0.0,0.0,0.0,0.0,0.0,0.0,0.0,4.2899,4.2899,4.2899,4.2899,4.2899,4.3358,4.4265,4.5371,4.6333,4.7199,4.8157,4.8609,4.8583,4.8501,4.8517,4.8594,4.8501,4.8517,4.863,4.8898,4.9113,4.927,4.9093,4.9154,4.9305,0.0,0.0,0.0,0.0,0.0,0.0,0.0,0.0,0.0,0.0,0.0,0.0,0.0,0.0,0.0,0.0,0.0,0.0,0.0,0.0,1.8029,1.8323,1.8497,1.9407,2.1144,2.0209,2.037,2.1738,2.271,2.3154,2.3075,2.3682,0.0,2.2762,2.1826,2.1476,2.1616,2.147,2.1687,2.2093,2.2132,2.2034,0.0,0.0,0.0,0.0,0.0,0.0,0.0,0.0,2.0196,1.9685,0.0,2.0158,1.9962,2.0858,2.1876,2.2777,2.3026,2.3888,2.527,2.7536,2.7227,0.0,0.0,3.0534,3.0251,3.4664,3.3485,0.0,0.0,0.0,3.6628,0.0,0.0,0.0,0.0,0.0,0.0,0.0,0.0,0.0,0.0,0.0,0.0,0.0,0.0,0.0,0.0,0.0,0.0,4.2899,4.2899,4.2899,4.2899,4.2899,4.3079,4.3447,4.442,4.5697,4.7179,4.6962,4.7183,4.7702,4.7103,4.6853,4.6853,4.6853,4.6853,4.6864,4.6977,4.706,4.7131,4.7179,4.7533,4.8036,0.0,0.0,0.0,0.0,0.0,0.0,0.0,0.0,0.0,0.0,0.0,0.0,0.0,0.0,0.0,0.0,0.0,0.0,0.0,0.0,1.8054,1.8402,1.8857,1.9599,2.0637,2.0361,2.077,2.1938,2.3099,2.3515,2.3246,0.0,0.0,0.0,2.1533,2.1332,2.1327,2.1245,2.159,2.2123,2.1732,2.1693,0.0,0.0,0.0,0.0,0.0,0.0,0.0,0.0,2.0157,0.0,0.0,0.0,0.0,2.1186,2.2133,2.2837,2.3303,2.4096,2.5403,2.7905,0.0,0.0,3.1608,3.1231,3.1195,3.5212,3.4696,3.3675,0.0,0.0,0.0,0.0,0.0,0.0,0.0,0.0,0.0,0.0,0.0,0.0,0.0,0.0,0.0,0.0,0.0,0.0,0.0,0.0,0.0,0.0,4.2899,4.2899,4.2899,4.2899,4.2899,4.2911,4.3541,4.4705,4.6263,4.5958,4.6148,4.6722,4.6081,4.5801,4.5801,4.5801,4.5801,4.5801,4.5801,4.5801,4.5812,4.5955,4.6322,4.6798,0.0,0.0,0.0,0.0,0.0,0.0,0.0,0.0,0.0,0.0,0.0,0.0,0.0,0.0,0.0,0.0,0.0,0.0,0.0,1.7944,1.7934,1.8002,1.8848,1.9434,1.9717,2.0765,2.1892,2.3091,2.2574,2.3321,2.5213,2.2622,0.0,0.0,2.1876,2.1364,2.1595,2.1685,2.186,2.2064,2.1803,2.1693,2.1627,0.0,0.0,0.0,0.0,0.0,0.0,0.0,2.0693,2.0607,0.0,0.0,0.0,2.0896,2.1725,2.2743,2.3357,2.4157,2.5243,0.0,0.0,0.0,3.2065,3.1689,3.1255,3.4202,3.671,3.8019,3.6812,0.0,0.0,0.0,0.0,0.0,0.0,0.0,0.0,0.0,0.0,0.0,0.0,0.0,0.0,0.0,0.0,0.0,0.0,0.0,0.0,0.0,4.2899,4.2899,4.2899,4.2899,4.2899,4.2899,4.2899,4.3387,4.4336,4.5326,4.5779,4.5779,4.5779,4.5768,4.5768,4.5768,4.5768,4.5768,4.5768,4.5768,4.5756,4.5756,4.5768,4.5779,0.0,0.0,0.0,0.0,0.0,0.0,0.0,0.0,0.0,0.0,0.0,0.0,0.0,0.0,0.0,0.0,0.0,0.0,0.0,1.7944,1.8094,1.8533,1.9223,1.9973,2.0807,2.1963,2.2558,2.2543,2.3231,2.3442,0.0,0.0,0.0,2.2023,0.0,2.2299,2.1241,2.2267,2.2085,2.1118,2.103,2.0999,2.0973,0.0,0.0,0.0,0.0,0.0,0.0,0.0,0.0,0.0,0.0,0.0,0.0,2.2944,2.3157,2.3014,2.4948,2.5143,0.0,2.7568,0.0,0.0,0.0,3.1663,0.0,0.0,3.6978,3.7398,3.6188,0.0,0.0,0.0,0.0,0.0,0.0,0.0,0.0,0.0,0.0,0.0,0.0,0.0,0.0,0.0,0.0,0.0,0.0,0.0,0.0,0.0,4.2899,4.2899,4.2899,4.2899,4.2899,4.2899,4.2899,4.3387,4.4289,4.393,4.4118,4.4719,4.4047,4.3755,4.3755,4.3755,4.3648,4.3469,4.3469,4.336,4.3203,4.3203,4.3616,4.4212,0.0,0.0,0.0,0.0,0.0,0.0,0.0,0.0,0.0,0.0,0.0,0.0,0.0,0.0,0.0,0.0,0.0,0.0,0.0,0.0,1.8424,1.8708,1.9666,2.0622,2.1551,2.2341,2.2598,2.2307,0.0,0.0,0.0,0.0,2.2285,2.1511,0.0,2.2101,2.1282,2.1888,2.1629,2.0811,2.0724,2.0693,2.0693,0.0,0.0,0.0,0.0,0.0,0.0,0.0,0.0,0.0,2.0793,0.0,0.0,2.3444,2.3877,2.4118,2.5936,2.6019,0.0,2.9198,2.9256,2.914,3.1203,0.0,0.0,0.0,0.0,3.7995,3.7259,0.0,0.0,0.0,0.0,0.0,0.0,0.0,0.0,0.0,0.0,0.0,0.0,0.0,0.0,0.0,0.0,0.0,0.0,0.0,0.0,0.0,4.2899,4.2899,4.2899,4.2899,4.2899,4.2899,4.2899,4.3197,4.3717,4.3163,4.3209,4.3705,4.3151,4.2899,4.2899,4.2899,4.2741,4.2511,4.2608,4.2498,4.2276,4.2387,4.2772,4.3273,0.0,0.0,0.0,0.0,0.0,0.0,0.0,0.0,0.0,0.0,0.0,0.0,0.0,0.0,0.0,0.0,0.0,0.0,0.0,0.0,1.8861,1.8782,2.0165,2.1257,2.1975,2.2085,2.2176,2.2276,0.0,0.0,0.0,0.0,2.1496,2.1568,0.0,2.1367,2.1514,2.1078,2.0935,2.0966,2.0767,2.0693,2.0693,2.064,0.0,0.0,0.0,0.0,0.0,0.0,0.0,0.0,2.0863,2.1891,2.3043,2.2989,2.4135,2.5596,2.6537,2.6775,2.7606,3.1024,3.0313,0.0,3.315,3.3967,3.4851,3.7841,0.0,3.9147,0.0,0.0,0.0,0.0,0.0,0.0,0.0,0.0,0.0,0.0,0.0,0.0,0.0,0.0,0.0,0.0,0.0,0.0,0.0,4.2899,4.2899,4.2899,4.2899,4.2899,4.2899,4.2899,4.2899,4.2899,4.2899,4.2899,4.2899,4.2899,4.2899,4.2899,4.2899,4.2899,4.2899,4.2899,4.2741,4.2523,4.2766,4.2693,4.2486,4.2741,4.2838,4.2838,0.0,0.0,0.0,0.0,0.0,0.0,0.0,0.0,0.0,0.0,0.0,0.0,0.0,0.0,0.0,0.0,0.0,0.0,0.0,0.0,1.9206,2.0045,2.0763,2.1406,2.1996,2.1716,0.0,0.0,0.0,0.0,0.0,0.0,0.0,2.1494,0.0,2.2388,2.1192,2.2064,2.1777,2.0755,2.0711,2.0693,2.0653,2.0171,2.0294,0.0,0.0,0.0,0.0,0.0,0.0,0.0,2.0863,2.134,2.2206,2.3886,2.4819,2.5739,2.7645,2.7412,0.0,0.0,2.9699,3.1135,3.5443,3.5564,3.554,3.8244,3.8191,0.0,0.0,0.0,0.0,0.0,0.0,0.0,0.0,0.0,0.0,0.0,0.0,0.0,0.0,0.0,0.0,0.0,0.0,0.0,4.2899,4.2899,4.2899,4.2899,4.2899,4.2899,4.2899,4.2899,4.2899,0.0,4.2899,4.2899,4.2899,4.2899,4.2899,4.2899,4.2899,4.2899,4.2899,4.2899,4.2741,4.2511,4.256,4.2424,4.2189,4.2251,4.2263,4.2287,0.0,0.0,0.0,0.0,0.0,0.0,0.0,0.0,0.0,0.0,0.0,0.0,0.0,0.0,0.0,0.0,0.0,0.0,0.0,0.0,0.0,0.0,2.1235,2.1453,2.1996,0.0,0.0,0.0,0.0,0.0,0.0,0.0,0.0,2.1855,0.0,2.1883,2.1043,2.1617,2.1403,2.0693,2.0693,2.0693,2.0666,2.0347,2.0431,2.0666,2.0334,0.0,0.0,0.0,0.0,0.0,0.0,0.0,2.3073,2.3735,2.4859,2.6153,2.7402,0.0,0.0,2.9867,0.0,3.3527,3.5827,3.6185,3.659,3.8512,3.8349,0.0,0.0,0.0,0.0,0.0,0.0,0.0,0.0,0.0,0.0,0.0,0.0,0.0,0.0,0.0,0.0,0.0,0.0,4.2899,4.2899,4.2899,4.2899,4.2899,4.2899,4.2899,4.2899,4.2899,4.2899,4.2899,4.2899,4.2899,4.2899,4.2899,4.2899,4.2899,4.2899,4.2899,4.2899,4.2899,4.2741,4.2511,4.2632,4.2534,4.2313,4.2435,4.2484,4.2484,0.0,0.0,0.0,0.0,0.0,0.0,0.0,0.0,0.0,0.0,0.0,0.0,0.0,0.0,0.0,0.0,0.0,0.0,0.0,0.0,0.0,0.0,2.1704,2.1654,2.1996,0.0,0.0,0.0,0.0,0.0,0.0,0.0,0.0,2.2477,0.0,2.1361,2.1014,2.0799,2.0705,2.0731,2.0712,2.0693,2.0693,2.0582,2.0608,2.0693,2.0582,2.0627,2.0731,2.0731,0.0,0.0,0.0,0.0,2.4049,2.3246,2.467,2.656,2.6755,0.0,2.9436,3.1657,3.3657,0.0,3.5625,3.6254,3.715,3.8561,0.0,0.0,0.0,0.0,0.0,0.0,0.0,0.0,0.0,0.0,0.0,0.0,0.0,0.0,0.0,0.0,0.0,0.0,0.0,4.3137,4.3137,4.2996,4.2899,4.2899,4.2899,4.2899,4.2899,4.2899,4.2899,4.2899,4.2899,4.2899,4.2899,4.2899,4.2899,4.2899,4.2899,4.2899,4.2899,4.2899,4.2766,4.2597,4.2802,4.2753,4.2609,4.2814,4.2899,4.2863,0.0,0.0,0.0,0.0,0.0,0.0,0.0,0.0,0.0,0.0,0.0,0.0,0.0,0.0,0.0,0.0,0.0,0.0,2.0703,0.0,0.0,2.1379,2.225,2.2521,0.0,0.0,0.0,0.0,0.0,0.0,0.0,0.0,0.0,2.3351,0.0,2.2796,2.1149,2.083,2.0775,2.0863,2.0743,2.0693,2.064,2.0125,2.0236,2.0627,2.0112,2.0336,2.0869,2.0869,2.0924,0.0,0.0,0.0,2.3017,2.3011,2.4698,2.6618,2.6755,0.0,3.05,0.0,3.2431,3.3424,0.0,0.0,3.5651,0.0,0.0,0.0,0.0,0.0,0.0,0.0,0.0,0.0,0.0,0.0,0.0,0.0,0.0,0.0,0.0,0.0,0.0,0.0,4.4102,4.4102,4.4102,4.334,4.2899,4.2899,4.2899,4.2899,4.2899,4.2899,4.2899,4.2899,4.2899,4.2899,4.2899,4.2899,4.2899,4.2899,4.2899,4.2899,4.2899,4.2899,4.2875,4.2851,4.2887,4.2875,4.2851,4.2887,4.2899,4.2887,0.0,0.0,0.0,0.0,0.0,0.0,0.0,0.0,0.0,0.0,0.0,0.0,0.0,0.0,0.0,2.0471,2.0328,2.0754,2.2038,2.2336,2.2466,2.2432,2.2617,2.2495,2.2014,0.0,0.0,0.0,0.0,0.0,0.0,2.6411,2.5707,0.0,0.0,0.0,0.0,2.1586,2.1321,2.0781,2.0724,2.0693,2.0666,2.0418,2.0521,0.0,0.0,0.0,2.0955,2.0913,2.0985,2.1094,2.1014,0.0,0.0,0.0,2.4338,2.6015,2.7424,2.8806,3.0374,0.0,3.2671,3.3014,3.6156,0.0,3.584,0.0,0.0,0.0,0.0,0.0,0.0,0.0,0.0,0.0,0.0,0.0,0.0,0.0,0.0,0.0,0.0,0.0,0.0,0.0,4.3519,4.3519,4.3519,4.3113,4.2899,4.2899,4.2899,4.2899,4.2899,4.2899,4.2899,4.2899,4.2899,4.2899,4.2899,4.2899,4.2899,4.2899,4.2899,4.2899,4.2899,4.2899,4.2899,4.2899,4.2899,4.2899,4.2899,4.2899,4.2899,4.2863,0.0,0.0,0.0,0.0,0.0,0.0,0.0,0.0,0.0,0.0,0.0,0.0,0.0,0.0,0.0,0.0,2.1156,2.1574,2.3024,2.2758,2.2787,2.3366,2.3072,2.2773,2.2457,0.0,0.0,0.0,0.0,0.0,2.6435,2.702,2.6514,0.0,2.512,2.4218,0.0,0.0,0.0,2.138,2.1347,2.1079,2.0693,0.0,0.0,2.0907,2.0907,0.0,0.0,0.0,0.0,0.0,0.0,2.2069,0.0,0.0,0.0,2.5466,0.0,0.0,2.9626,3.2323,3.2254,3.2286,0.0,0.0,3.5727,0.0,0.0,0.0,0.0,0.0,0.0,0.0,0.0,0.0,0.0,0.0,0.0,0.0,0.0,0.0,0.0,0.0,0.0,0.0,4.3257,4.3257,4.3257,4.303,4.2899,4.2899,4.2899,4.2899,4.2899,4.2899,4.2899,4.2899,4.2899,4.2899,4.2899,4.2899,4.2899,4.2899,4.2899,4.2899,4.2899,4.2899,4.2899,4.2899,4.2899,4.2899,4.2899,4.2899,4.2899,4.2838,0.0,0.0,0.0,0.0,0.0,0.0,0.0,0.0,0.0,0.0,0.0,0.0,0.0,2.2356,2.2237,2.2154,2.2352,2.2775,2.3439,2.3961,2.4013,2.3433,2.3799,0.0,2.3707,2.3671,0.0,0.0,0.0,0.0,2.4578,2.643,2.6712,2.5664,2.5925,2.5904,2.5564,0.0,0.0,0.0,0.0,2.2119,0.0,0.0,0.0,0.0,0.0,0.0,0.0,0.0,0.0,0.0,0.0,0.0,0.0,0.0,0.0,0.0,0.0,2.7333,0.0,3.0111,3.0115,3.0429,0.0,0.0,0.0,0.0,0.0,0.0,0.0,0.0,0.0,0.0,0.0,0.0,0.0,0.0,0.0,0.0,0.0,0.0,0.0,0.0,0.0,0.0,4.4231,4.4231,4.4231,4.3375,4.2899,4.2899,4.2899,4.2899,4.2899,4.2899,4.2899,4.2899,4.2899,4.2899,4.2899,4.2899,4.2899,4.2899,4.2899,4.2899,4.2899,4.2899,4.2899,4.2899,4.2899,4.2899,4.2899,4.2899,4.2899,4.2863,0.0,0.0,0.0,0.0,0.0,0.0,0.0,0.0,0.0,0.0,0.0,0.0,0.0,2.131,2.1258,2.2055,2.3172,2.4111,2.4797,2.4658,2.4215,2.3493,2.3879,2.366,2.2731,2.3401,0.0,0.0,0.0,2.4071,2.6125,2.5663,2.6052,2.7239,2.8361,2.7136,2.4313,2.5468,0.0,0.0,0.0,0.0,0.0,0.0,0.0,0.0,0.0,0.0,0.0,0.0,0.0,0.0,0.0,0.0,0.0,0.0,0.0,0.0,0.0,0.0,0.0,3.0795,2.994,2.9242,3.2648,3.3755,0.0,0.0,0.0,0.0,0.0,0.0,0.0,0.0,0.0,0.0,0.0,0.0,0.0,0.0,0.0,0.0,0.0,0.0,0.0,0.0,0.0,4.3222,4.3394,4.2356,4.21,4.2885,4.2899,4.2899,4.2899,4.2899,4.2899,4.2899,4.2899,4.2899,4.2899,4.2899,4.2899,4.2899,4.2899,4.2899,4.2899,4.2899,4.2899,4.2899,4.2899,4.2899,4.2899,4.2899,4.2899,4.2863,0.0,0.0,0.0,0.0,0.0,0.0,0.0,0.0,0.0,0.0,0.0,0.0,0.0,0.0,2.1226,2.2491,2.4027,2.5128,2.5574,2.4978,2.4425,2.4028,2.3869,2.3537,2.2952,0.0,0.0,0.0,0.0,0.0,0.0,2.5453,2.5791,2.6754,2.8806,2.8209,0.0,0.0,0.0,2.3906,0.0,0.0,2.2736,0.0,0.0,0.0,0.0,0.0,0.0,0.0,0.0,0.0,0.0,0.0,0.0,0.0,0.0,0.0,2.682,0.0,0.0,0.0,2.9326,2.8683,3.1301,0.0,0.0,0.0,0.0,0.0,0.0,0.0,0.0,0.0,0.0,0.0,0.0,0.0,0.0,0.0,0.0,0.0,0.0,0.0,0.0,0.0,0.0,0.0,4.3382,4.2608,4.2401,4.2884,4.2899,4.2899,4.2899,4.2899,4.2899,4.2899,4.2899,4.2899,4.2899,4.2899,4.2899,4.2899,4.2899,4.2899,4.2899,4.2899,4.2899,4.2899,4.2899,4.2899,4.2899,4.2899,4.2899,4.2851,0.0,0.0,0.0,0.0,0.0,0.0,0.0,0.0,0.0,0.0,0.0,0.0,0.0,0.0,0.0,2.3533,2.495,2.5728,2.5597,2.4978,2.4719,2.4961,2.3853,2.3656,2.4559,0.0,0.0,0.0,0.0,0.0,0.0,0.0,2.5933,2.414,2.7014,2.9016,3.0132,0.0,2.8879,2.9399,0.0,2.6524,2.5898,0.0,0.0,0.0,2.6026,2.6081,0.0,2.7343,0.0,0.0,0.0,0.0,0.0,0.0,0.0,0.0,0.0,0.0,0.0,0.0,0.0,0.0,2.9385,0.0,0.0,0.0,0.0,0.0,0.0,0.0,0.0,0.0,0.0,0.0,0.0,0.0,0.0,0.0,0.0,0.0,0.0,0.0,0.0,0.0,4.5777,4.5323,4.4331,4.4249,4.3808,4.2935,4.2899,4.2899,4.2899,4.2899,4.2899,4.2899,4.2899,4.2899,4.2899,4.2899,4.2899,4.2899,4.2899,4.2899,4.2899,4.2899,4.2899,4.2899,4.2899,4.2899,4.2899,4.2899,4.2887,4.2814,0.0,0.0,0.0,0.0,0.0,0.0,0.0,0.0,0.0,0.0,0.0,0.0,0.0,0.0,2.4089,2.4498,2.5098,2.5375,2.5243,2.5019,2.4731,2.4359,2.4256,2.4173,2.41,2.3925,0.0,0.0,0.0,0.0,0.0,0.0,0.0,0.0,2.5613,2.6877,2.8139,2.934,0.0,0.0,2.9099,2.8077,0.0,0.0,0.0,0.0,0.0,2.803,2.7767,0.0,2.7644,2.6017,0.0,0.0,0.0,0.0,0.0,0.0,2.6222,0.0,0.0,0.0,0.0,0.0,0.0,0.0,0.0,0.0,0.0,0.0,0.0,0.0,0.0,0.0,0.0,0.0,0.0,0.0,0.0,0.0,0.0,0.0,0.0,0.0,0.0,0.0,4.5278,4.4455,4.3688,4.3021,4.2724,4.2885,4.2899,4.2899,4.2899,4.2899,4.2899,4.2899,4.2899,4.2899,4.2899,4.2899,4.2899,4.2899,4.2899,4.2899,4.2899,4.2899,4.2899,4.2899,4.2899,4.2899,4.2899,4.2899,4.2778,4.2597,0.0,0.0,0.0,0.0,0.0,0.0,0.0,0.0,0.0,0.0,0.0,0.0,0.0,0.0,0.0,2.4744,2.5426,2.5667,2.5122,2.5045,2.4786,2.4328,2.4276,2.424,2.4188,2.3931,0.0,0.0,0.0,0.0,0.0,0.0,0.0,0.0,0.0,0.0,0.0,0.0,0.0,0.0,2.9762,0.0,0.0,3.0352,2.9993,0.0,0.0,0.0,3.0821,3.1464,2.9885,0.0,0.0,0.0,0.0,0.0,0.0,0.0,0.0,0.0,0.0,0.0,0.0,0.0,2.9463,3.1785,0.0,0.0,0.0,0.0,0.0,0.0,0.0,0.0,0.0,0.0,0.0,0.0,0.0,0.0,0.0,0.0,0.0,4.6444,4.6532,4.6379,4.5377,4.4272,4.3091,4.2121,4.179,4.2141,4.2154,4.2154,4.2154,4.2154,4.2154,4.2154,4.2398,4.2521,4.2521,4.279,4.2899,4.2899,4.2899,4.2899,4.2899,4.2899,4.2899,4.2899,4.2899,4.2826,4.2741,4.2863,4.2668,4.2339,0.0,0.0,0.0,0.0,0.0,0.0,0.0,0.0,0.0,0.0,0.0,0.0,0.0,0.0,0.0,0.0,2.5802,2.6097,2.5129,2.5015,2.4866,2.4609,2.4136,2.4114,2.4579,2.4135,0.0,0.0,0.0,0.0,0.0,0.0,0.0,0.0,0.0,0.0,0.0,0.0,0.0,3.153,2.9971,3.1056,0.0,0.0,3.2317,3.1864,3.4004,3.4393,3.4053,3.5084,3.3239,0.0,0.0,0.0,0.0,0.0,2.6356,0.0,0.0,0.0,0.0,0.0,0.0,0.0,2.8693,3.1857,3.479,0.0,0.0,0.0,0.0,0.0,0.0,0.0,0.0,0.0,0.0,0.0,0.0,0.0,0.0,0.0,4.5406,4.6028,4.6403,4.648,4.5596,4.4303,4.2595,4.1544,4.103,4.11,4.1154,4.1195,4.1195,4.1274,4.1274,4.1208,4.1735,4.1964,4.1924,4.2453,4.2709,4.2709,4.2709,4.2709,4.2709,4.2777,4.2821,4.2863,4.2887,4.2741,4.2536,4.2802,4.2557,4.2103,2.3036,0.0,0.0,0.0,0.0,0.0,0.0,0.0,0.0,0.0,0.0,0.0,0.0,0.0,0.0,0.0,2.584,2.5192,2.4877,2.4852,2.4761,2.4609,2.4503,2.4467,2.4523,2.4467,0.0,0.0,0.0,0.0,0.0,0.0,0.0,0.0,0.0,0.0,0.0,0.0,0.0,2.9117,3.0806,0.0,3.1433,3.447,3.3879,3.1986,3.6176,3.6584,3.5194,0.0,3.5086,3.3948,0.0,0.0,0.0,0.0,0.0,0.0,0.0,0.0,0.0,0.0,0.0,0.0,2.9098,3.0187,3.1535,0.0,0.0,0.0,0.0,0.0,0.0,0.0,0.0,0.0,0.0,0.0,0.0,0.0,0.0,0.0,4.4772,4.4914,4.5207,4.5751,4.4339,4.317,4.2522,4.1155,4.0594,4.1073,4.1573,4.1817,4.1817,4.2304,4.2304,4.183,4.1951,4.1749,4.1288,4.1396,4.1451,4.1451,4.1451,4.1451,4.1491,4.1978,4.2321,4.2609,4.2814,4.2741,4.2536,4.2802,4.2557,4.2103,2.2204,0.0,0.0,0.0,0.0,0.0,0.0,0.0,0.0,0.0,0.0,0.0,0.0,0.0,0.0,0.0,0.0,0.0,0.0,0.0,0.0,2.5749,2.5358,2.5144,2.5144,2.4781,0.0,0.0,0.0,0.0,0.0,0.0,0.0,0.0,0.0,0.0,0.0,0.0,2.5721,2.8379,3.0428,0.0,3.3239,3.5932,3.6103,3.5245,3.7638,3.7853,3.6953,3.6652,3.613,0.0,0.0,3.1029,2.895,0.0,2.6364,2.5557,0.0,0.0,0.0,2.81,0.0,0.0,0.0,2.9789,3.1039,3.2539,3.378,0.0,0.0,0.0,0.0,0.0,0.0,0.0,0.0,0.0,0.0,0.0,0.0,0.0,4.4569,4.4591,4.4557,4.4456,4.3238,4.2218,4.1582,4.0412,3.9888,4.0189,4.0499,4.0648,4.0648,4.1257,4.1406,4.111,4.172,4.183,4.1559,4.1858,4.183,4.1546,4.1546,4.1383,4.1141,4.1749,4.1767,4.1498,4.2354,4.2449,4.213,4.2399,4.2166,4.1721,2.1472,0.0,0.0,0.0,0.0,0.0,0.0,0.0,0.0,0.0,0.0,0.0,0.0,0.0,0.0,0.0,0.0,0.0,0.0,0.0,0.0,0.0,2.6135,2.5743,2.578,2.5035,0.0,0.0,0.0,0.0,0.0,0.0,0.0,0.0,0.0,0.0,0.0,0.0,0.0,2.897,0.0,3.2696,3.5121,3.7123,3.7984,3.8176,3.87,3.8891,3.8746,3.7807,0.0,3.5887,3.5454,3.2815,0.0,0.0,0.0,0.0,0.0,0.0,0.0,0.0,0.0,2.8014,0.0,0.0,0.0,3.1689,0.0,0.0,0.0,0.0,0.0,0.0,0.0,0.0,0.0,0.0,0.0,0.0,0.0,0.0,0.0,4.3737,4.3766,4.3334,4.2437,4.1551,4.0657,3.9769,3.9305,3.9305,3.9414,3.9468,3.9468,4.0076,4.0375,4.0377,4.1307,4.1758,4.1759,4.2197,4.2133,4.1675,4.1675,4.1393,4.0987,4.1472,4.1094,4.0371,4.1894,4.21,4.1563,4.1953,4.1796,4.1411,2.2128,2.2863,0.0,0.0,0.0,0.0,0.0,0.0,0.0,0.0,0.0,0.0,0.0,0.0,0.0,0.0,0.0,0.0,2.7402,0.0,0.0,0.0,0.0,2.5759,2.5707,0.0,0.0,0.0,0.0,0.0,0.0,0.0,0.0,0.0,2.4716,0.0,0.0,0.0,2.8627,0.0,3.3374,3.3626,0.0,3.7607,3.8207,3.7038,3.943,4.0267,3.999,0.0,3.7406,3.6967,0.0,3.2721,3.0485,0.0,0.0,0.0,0.0,0.0,0.0,0.0,2.802,0.0,0.0,0.0,2.9126,2.9345,0.0,0.0,0.0,0.0,0.0,0.0,0.0,0.0,0.0,0.0,0.0,0.0,0.0,0.0,0.0,4.0635,4.2055,4.3209,4.2259,4.1338,4.0646,3.9769,3.9305,3.9305,3.9818,4.0103,4.0103,4.0691,4.1003,4.1003,4.089,4.0852,4.0841,4.0672,4.0554,4.0488,4.0488,4.0448,4.0394,4.0461,4.0269,4.0119,4.1821,4.1847,4.1009,4.1806,4.1906,4.1659,2.0914,2.1849,0.0,0.0,0.0,0.0,0.0,0.0,0.0,0.0,0.0,0.0,0.0,0.0,0.0,0.0,0.0,3.1339,0.0,0.0,0.0,0.0,0.0,0.0,0.0,0.0,0.0,0.0,2.4966,0.0,0.0,0.0,0.0,0.0,2.492,0.0,2.7735,0.0,2.9403,0.0,0.0,0.0,0.0,3.8153,3.9315,3.8869,3.9214,3.9845,4.0067,0.0,3.7622,0.0,0.0,0.0,0.0,0.0,0.0,0.0,0.0,0.0,0.0,0.0,0.0,0.0,2.9652,0.0,2.8394,0.0,0.0,0.0,0.0,0.0,0.0,0.0,3.2299,0.0,0.0,0.0,0.0,0.0,0.0,0.0,0.0,0.0,0.0,0.0,4.0655,3.9914,3.9629,3.9406,3.9305,3.9305,3.9549,3.9671,3.9671,4.0268,4.058,4.058,4.1027,4.1219,4.1221,4.1307,4.1148,4.0816,4.0816,4.0713,4.0561,4.092,4.0688,4.0263,4.1699,4.1374,4.0187,4.0861,4.1047,4.1001,2.0425,0.0,0.0,0.0,0.0,0.0,0.0,0.0,0.0,0.0,0.0,0.0,3.1627,3.1152,0.0,0.0,3.3326,3.3313,0.0,0.0,3.1666,0.0,0.0,0.0,0.0,0.0,0.0,0.0,0.0,0.0,0.0,0.0,0.0,0.0,0.0,2.6224,2.8198,0.0,3.062,3.3754,3.4813,3.5777,3.6789,3.857,3.9843,4.053,3.9441,3.9667,4.0037,3.7046,3.7677,0.0,3.6238,0.0,0.0,0.0,0.0,0.0,3.1194,0.0,0.0,0.0,0.0,0.0,0.0,0.0,0.0,0.0,0.0,0.0,0.0,0.0,0.0,0.0,0.0,0.0,0.0,0.0,0.0,0.0,0.0,0.0,0.0,0.0,0.0,3.9613,3.8992,3.8597,3.8657,3.8917,3.9129,3.9292,3.9305,3.9305,3.9305,3.9737,4.0035,4.0212,4.0916,4.1363,4.1609,4.1873,4.1791,4.1453,4.1453,4.1308,4.11,4.1297,4.1008,4.0499,4.1164,4.0566,3.9443,4.0149,4.0397,4.0462,2.1633,2.2417,0.0,0.0,0.0,0.0,0.0,0.0,0.0,0.0,0.0,0.0,0.0,0.0,0.0,0.0,0.0,3.3385,3.3584,0.0,3.3239,0.0,0.0,2.8373,0.0,0.0,0.0,0.0,0.0,0.0,0.0,0.0,0.0,0.0,0.0,2.6446,2.8961,3.0312,3.2919,3.6269,3.8301,4.0031,4.112,0.0,3.9194,4.1013,4.0598,0.0,0.0,3.813,3.7507,0.0,0.0,0.0,0.0,0.0,0.0,0.0,0.0,0.0,0.0,3.1241,0.0,0.0,0.0,0.0,2.7803,0.0,0.0,0.0,0.0,0.0,0.0,0.0,0.0,0.0,0.0,0.0,0.0,0.0,0.0,0.0,0.0,0.0,0.0,3.7656,3.7711,3.7819,3.8013,3.8277,3.8697,3.9278,3.9305,3.9305,3.9305,3.9319,3.9617,4.0198,4.0303,4.0772,4.1597,4.1678,4.1831,4.2077,4.2077,4.2063,4.1998,4.116,4.0813,4.0711,3.9969,3.9297,3.8855,3.9992,4.0397,4.0397,0.0,0.0,0.0,0.0,0.0,0.0,0.0,2.7976,0.0,0.0,0.0,0.0,0.0,3.4196,3.3965,0.0,0.0,3.5705,3.4847,3.4642,0.0,0.0,0.0,3.0465,0.0,0.0,0.0,0.0,0.0,0.0,0.0,0.0,0.0,0.0,0.0,2.6535,0.0,0.0,0.0,0.0,0.0,3.9928,4.0845,0.0,0.0,4.1381,4.1037,4.1029,0.0,3.8347,3.8556,3.9602,3.8004,3.703,3.6884,3.8891,3.7115,0.0,0.0,0.0,3.5902,3.5015,0.0,0.0,0.0,0.0,0.0,0.0,0.0,0.0,0.0,0.0,0.0,0.0,0.0,0.0,0.0,0.0,0.0,0.0,0.0,0.0,0.0,0.0,0.0,3.4604,3.408,3.3751,3.383,3.5887,3.7169,3.7371,3.864,3.9305,3.9305,3.9305,3.94,3.9617,3.9861,4.0336,4.1007,4.1264,4.1646,4.2103,4.2103,4.1864,4.1507,4.162,4.1315,4.0803,4.094,4.0306,3.9339,3.9731,3.9861,3.9979,2.4858,0.0,0.0,0.0,0.0,0.0,0.0,0.0,0.0,0.0,3.2784,0.0,3.5552,0.0,3.5036,0.0,3.5993,3.6294,3.6151,3.4914,0.0,3.6081,3.3346,0.0,0.0,0.0,0.0,0.0,0.0,2.5613,0.0,0.0,0.0,0.0,0.0,2.6524,2.853,0.0,3.3477,0.0,0.0,4.0229,0.0,0.0,4.1978,4.2306,0.0,4.2103,4.2067,4.0218,4.0679,4.1723,3.9976,3.9288,3.936,4.055,3.8869,3.6884,3.8067,3.828,0.0,3.7001,3.5747,0.0,3.3695,0.0,0.0,0.0,0.0,0.0,0.0,0.0,0.0,0.0,0.0,0.0,0.0,2.983,0.0,0.0,0.0,0.0,0.0,0.0,3.2147,3.2126,3.1934,3.167,0.0,0.0,3.5965,3.6397,3.8082,3.9077,3.9305,3.9305,3.9305,3.9294,3.9631,4.0047,4.0541,4.109,4.1606,4.2078,4.2293,4.2158,4.1826,4.2017,4.1766,4.1292,4.1477,4.0753,3.96,3.96,3.96,3.9731,0.0,0.0,0.0,0.0,2.6402,0.0,0.0,0.0,3.2702,0.0,3.4692,3.4276,3.5705,3.4473,3.4038,3.525,3.4738,0.0,3.7218,3.4268,0.0,0.0,3.3656,3.2402,3.4311,0.0,0.0,0.0,0.0,0.0,0.0,0.0,0.0,0.0,2.5719,0.0,2.7378,3.0878,3.3581,3.5795,3.8618,4.0968,4.2726,4.182,4.2461,4.3786,4.3525,4.357,4.37,4.3474,4.3544,4.3614,4.3089,4.2569,4.2086,4.1774,4.117,4.0512,4.0162,4.0065,3.9498,3.7224,0.0,0.0,0.0,0.0,3.3507,0.0,0.0,0.0,0.0,0.0,0.0,0.0,0.0,0.0,0.0,0.0,0.0,0.0,0.0,0.0,0.0,3.2598,3.2677,3.0286,3.1137,3.1427,0.0,0.0,3.4968,3.6275,3.7516,3.8521,3.9251,3.9197,3.921,3.9294,3.9615,3.9921,4.0228,4.112,4.1697,4.1991,4.26,4.2819,4.2745,4.2299,4.2051,4.195,4.1457,4.0578,3.9584,3.956,3.9561,3.9626,2.6265,2.611,2.642,0.0,2.7964,2.916,0.0,0.0,0.0,0.0,3.5564,3.5977,3.6549,3.6897,3.6405,3.4731,3.4918,0.0,0.0,0.0,0.0,3.7423,3.6468,3.5646,3.514,3.3891,0.0,3.2016,0.0,0.0,2.8136,0.0,0.0,0.0,0.0,0.0,2.8063,3.1561,3.4857,3.7773,3.853,4.0,0.0,0.0,4.3755,4.5363,4.4409,4.417,4.4196,4.3605,4.3631,4.3854,4.342,4.306,4.2831,4.2741,4.2401,4.1893,4.1172,4.0856,4.0443,3.9184,3.7674,3.6365,0.0,0.0,0.0,0.0,0.0,0.0,0.0,0.0,0.0,0.0,0.0,0.0,0.0,0.0,0.0,2.8413,0.0,0.0,3.0236,3.0348,2.9957,2.8872,2.8519,2.8675,2.9403,0.0,0.0,3.4982,3.5058,3.6208,3.8616,3.7745,3.7975,3.9305,3.9387,3.971,4.0212,4.0453,4.0848,4.1369,4.1978,4.1751,4.1034,4.178,4.145,4.0502,4.0819,4.0325,3.9412,3.9062,3.8934,3.9012,2.6588,0.0,0.0,2.7395,0.0,0.0,3.1325,0.0,0.0,3.6047,3.624,0.0,3.7256,3.8002,3.7815,3.6276,3.6255,0.0,3.6555,0.0,0.0,3.8285,3.7819,3.7131,3.6341,3.56,0.0,3.409,0.0,0.0,2.9927,0.0,0.0,0.0,0.0,2.7357,2.8369,3.2478,3.6042,3.8974,3.9289,0.0,0.0,4.2963,4.4348,4.6104,4.5524,4.5355,4.5331,4.4838,4.4828,4.4933,4.4571,4.4109,4.3689,4.3602,4.3119,4.2446,4.1799,4.1514,4.1283,4.0615,3.9304,3.8206,3.8206,3.7105,3.608,0.0,0.0,0.0,0.0,0.0,0.0,0.0,0.0,0.0,0.0,0.0,0.0,0.0,2.9225,0.0,2.927,2.9515,2.9444,2.8747,2.8025,2.7784,0.0,0.0,0.0,3.2582,3.3709,3.4978,3.6411,3.5795,3.6361,3.8125,3.8125,3.8708,3.9818,4.0076,4.0388,4.0732,4.1342,4.1246,4.0695,4.1269,4.1003,4.025,4.0199,3.9875,3.9344,3.884,3.8745,3.8915,2.6883,0.0,0.0,0.0,0.0,0.0,0.0,3.3927,0.0,3.7623,0.0,3.6561,3.773,3.8363,3.8633,3.8515,0.0,3.8032,3.9297,3.7061,3.6824,3.9392,3.838,3.7764,3.7764,3.7134,0.0,0.0,0.0,0.0,0.0,0.0,0.0,0.0,0.0,0.0,0.0,3.3496,3.6943,3.9724,4.0546,4.2315,4.4373,4.3815,4.4724,4.6298,4.6528,4.6574,4.6528,4.6333,4.6262,4.6225,4.5945,4.5306,4.4605,4.4474,4.3697,4.2766,4.2299,4.2148,4.2012,4.1513,4.096,4.0531,4.0531,4.0014,3.9526,3.9526,3.9466,3.8877,0.0,0.0,0.0,0.0,0.0,0.0,0.0,0.0,0.0,0.0,0.0,0.0,2.8428,2.9389,2.9818,2.9048,2.843,2.7847,0.0,0.0,0.0,3.0266,3.2907,3.4283,3.4142,0.0,3.4991,3.6944,3.6714,3.7541,3.9319,3.9845,4.0076,4.0117,4.0718,4.0966,4.092,4.0753,4.0644,4.05,3.9698,3.9402,3.9324,3.8866,3.8853,3.9061,0.0,0.0,0.0,0.0,0.0,3.2303,3.4992,3.5916,3.6547,3.7188,3.791,3.8145,3.7622,3.8868,3.9409,3.8562,3.7883,0.0,0.0,0.0,0.0,3.9424,3.9266,3.9155,3.9155,3.9021,3.8689,0.0,0.0,0.0,0.0,0.0,0.0,0.0,0.0,0.0,3.4144,3.4397,0.0,4.0514,4.181,4.2624,4.3251,4.5073,4.5906,4.6177,4.6485,4.6493,4.6324,4.6178,4.6132,4.6141,4.6189,4.5798,4.5377,4.5676,4.5046,4.4072,4.3285,4.2945,4.2597,4.1642,4.1313,4.1214,4.1214,4.0705,4.0223,4.0223,3.978,3.9302,3.8958,0.0,0.0,0.0,0.0,0.0,0.0,0.0,0.0,0.0,0.0,3.1006,0.0,2.8593,2.8494,2.7846,0.0,0.0,0.0,0.0,0.0,0.0,3.1631,0.0,0.0,0.0,3.5571,3.8817,3.7311,3.7541,3.9305,3.9414,3.9454,3.9495,4.0103,4.0224,4.0058,4.0508,4.0416,3.9918,3.9483,3.932,3.9307,3.9199,3.9067,3.8878,0.0,0.0,0.0,0.0,0.0,0.0,0.0,3.7582,0.0,3.8102,3.8711,3.9039,3.8601,3.9604,4.0119,3.9637,3.9281,3.94,4.0056,3.9479,3.9558,4.0554,4.0585,0.0,3.9518,3.9866,3.9542,3.8492,0.0,0.0,0.0,0.0,0.0,0.0,0.0,3.1773,0.0,0.0,0.0,4.1272,4.3026,4.3974,4.4452,4.5798,4.6261,4.6216,4.6395,4.6386,4.6287,4.615,4.604,4.597,4.6134,4.5882,4.5564,4.5855,4.5309,4.4491,4.396,4.3598,4.322,4.2544,4.2157,4.1922,4.1922,4.1403,4.0825,4.0472,4.0142,3.9526,3.8238,3.6496,0.0,0.0,0.0,0.0,0.0,0.0,0.0,0.0,0.0,0.0,0.0,0.0,0.0,0.0,0.0,0.0,0.0,0.0,0.0,0.0,0.0,0.0,0.0,0.0,0.0,3.7894,3.7012,3.7541,3.9305,3.9305,3.9305,3.9319,3.9604,3.9658,3.9562,3.9845,3.9791,3.9519,3.9358,3.9305,3.9305,3.9305,3.9136,3.8852,0.0,3.0056,0.0,0.0,3.3739,0.0,3.6855,3.8915,4.0061,3.923,3.9483,3.974,3.974,4.0388,4.0751,4.0609,4.0735,4.0917,4.1138,4.0941,4.0972,4.1375,4.1518,4.1075,3.9977,4.0522,4.0198,0.0,0.0,0.0,0.0,0.0,0.0,0.0,0.0,0.0,0.0,0.0,4.0704,4.2418,4.4203,4.5277,4.5825,4.6143,4.6234,4.6207,4.6243,4.6234,4.618,4.6069,4.5941,4.5835,4.6049,4.5789,4.5478,4.568,4.516,4.4486,4.4291,4.3978,4.3636,4.3374,4.294,4.2586,4.2586,4.2077,4.1463,4.093,4.0591,3.9799,3.7841,3.7051,0.0,0.0,0.0,0.0,0.0,0.0,0.0,0.0,0.0,0.0,3.0782,0.0,0.0,0.0,0.0,0.0,0.0,0.0,0.0,0.0,0.0,3.2712,3.3101,0.0,3.5002,3.7175,3.6782,3.7541,3.9305,3.9305,3.9305,3.9305,3.9305,3.9305,3.9305,3.9305,3.9305,3.9305,3.9305,3.9305,3.9305,3.9305,3.9169,3.8942,0.0,0.0,0.0,0.0,0.0,0.0,3.9326,3.9822,3.9935,3.9904,4.0245,4.0498,4.0498,4.1107,4.1265,4.0656,4.1154,4.0996,3.9771,4.0838,4.1265,4.0719,4.1281,4.1533,4.1415,4.147,4.1138,0.0,0.0,0.0,0.0,0.0,0.0,0.0,0.0,0.0,0.0,4.0056,4.2015,4.4487,4.5356,4.5751,4.5816,4.6033,4.6006,4.5871,4.6051,4.5997,4.5844,4.5825,4.5816,4.5835,4.6049,4.5698,4.5275,4.5475,4.4958,4.4281,4.4069,4.3861,4.3636,4.3374,4.3255,4.321,4.321,4.2741,4.2291,4.2231,4.1254,4.0331,4.011,3.8221,3.6084,0.0,0.0,0.0,0.0,0.0,0.0,0.0,0.0,0.0,0.0,2.887,0.0,0.0,0.0,0.0,0.0,0.0,0.0,2.8554,0.0,3.1445,3.3074,3.3628,3.5625,3.9034,3.7379,3.7541,3.9305,3.9305,3.9305,3.9305,3.9305,3.9305,3.9305,3.9305,3.9305,3.9305,3.9305,3.9305,3.9305,3.9305,3.9269,3.9225,0.0,0.0,0.0,0.0,0.0,0.0,0.0,4.0671,4.1159,4.0984,4.1101,4.1202,4.1202,4.1439,4.1486,4.1209,4.1439,4.136,4.0806,4.1296,4.1486,4.1217,4.1454,4.1597,4.1597,4.1597,4.147,0.0,0.0,0.0,0.0,0.0,0.0,0.0,0.0,3.8476,3.9661,4.2038,4.3697,4.4762,4.5498,4.5798,4.5816,4.6015,4.6058,4.5995,4.6076,4.6058,4.5952,4.5835,4.5798,4.5807,4.5889,4.5753,4.5534,4.5373,4.4921,4.4416,4.4094,4.3744,4.3433,4.3319,4.33,4.33,4.33,4.3115,4.2836,4.2461,4.1652,4.095,4.0785,3.9942,3.8567,0.0,0.0,0.0,0.0,0.0,0.0,0.0,0.0,0.0,0.0,3.126,2.8873,0.0,0.0,0.0,0.0,0.0,0.0,2.9631,0.0,3.3223,3.5713,3.5581,3.6788,3.9292,3.8572,3.86,3.9305,3.9305,3.9305,3.9305,3.9305,3.9305,3.9305,3.9305,3.9305,3.9305,3.9305,3.9305,3.9305,3.9305,3.9305,3.9269,3.7429,0.0,3.7508,0.0,3.9201,3.9966,4.0092,4.1167,4.1803,4.1361,4.1478,4.1597,4.1597,4.1597,4.1526,4.1328,4.1486,4.1423,4.1012,4.1375,4.1502,4.1312,4.1486,0.0,4.1597,4.1597,4.1597,4.1597,3.9132,0.0,0.0,0.0,0.0,0.0,3.9281,4.0656,4.1185,4.3666,4.4835,4.5072,4.5593,4.5798,4.5816,4.5968,4.6013,4.6013,4.6013,4.6013,4.5995,4.5859,4.5835,4.5887,4.5816,4.5798,4.5707,4.5188,4.4818,4.4477,4.3943,4.3552,4.33,4.33,4.33,4.33,4.33,4.3364,4.3308,4.295,4.2344,4.1818,4.1619,4.1301,4.0355,3.8078,0.0,0.0,0.0,0.0,0.0,0.0,3.4813,3.4151,3.5586,3.2403,2.9859,0.0,0.0,0.0,0.0,0.0,0.0,0.0,0.0,0.0,0.0,3.5944,3.6988,3.9305,3.9305,3.9305,3.9305,3.9305,3.9305,3.9305,3.9305,3.9305,3.9305,3.9305,3.9305,3.9305,3.9305,3.9305,3.9305,3.9305,3.9305,3.9305,3.8901,4.0087,4.1013,4.0966,4.1566,4.1733,4.0744,4.117,4.1368,4.0704,4.1186,4.1597,4.1597,4.1597,4.1328,4.0672,4.1217,4.1012,3.9613,4.0838,4.1296,0.0,0.0,4.1597,4.1597,4.1597,4.1597,4.1597,0.0,0.0,3.8476,0.0,3.88,3.9534,4.1707,4.3398,4.4645,4.4668,4.511,4.5798,4.5798,4.5798,4.5798,4.5798,4.5798,4.5798,4.5798,4.5798,4.5798,4.5798,4.5925,4.6067,4.5853,4.5798,4.5643,4.4842,4.46,4.441,4.3547,4.33,4.33,4.33,4.33,4.33,4.33,4.3508,4.3759,4.3943,4.3451,4.2971,4.298,4.2053,4.0615,3.8534,0.0,0.0,0.0,0.0,0.0,0.0,3.2696,3.1958,3.3314,3.1002,0.0,0.0,0.0,0.0,0.0,0.0,0.0,2.8554,2.8063,0.0,3.3115,3.3669,3.5734,3.9305,3.9305,3.9305,3.9305,3.9305,3.9305,3.9305,3.9305,3.9305,3.9305,3.9305,3.9305,3.9305,3.9305,3.9305,3.9305,3.9305,3.9305,3.9305,3.8724,4.0159,4.1293,4.0809,4.1308,4.1641,4.1329,4.1651,4.1779,4.1345,4.1675,4.1859,4.1621,4.1597,4.1502,0.0,4.1059,4.0917,0.0,4.0917,4.1028,4.1265,4.0569,4.0166,4.0166,4.0166,4.0166,4.0166,0.0,0.0,0.0,3.9921,4.0806,4.2409,4.3555,4.4297,4.4724,4.5245,4.5593,4.5798,4.5798,4.5798,4.5798,4.5798,4.5798,4.5798,4.5798,4.588,4.5986,4.5859,4.5925,4.6067,4.5853,4.5889,4.5844,4.4983,4.467,4.441,4.3537,4.33,4.33,4.33,4.33,4.3354,4.3537,4.3744,4.3919,4.3988,4.384,4.359,4.3261,4.2908,4.1722,3.8868,3.9466,0.0,0.0,0.0,0.0,0.0,3.4752,3.4007,0.0,3.2982,0.0,0.0,0.0,0.0,0.0,0.0,0.0,0.0,3.3041,0.0,3.6687,3.6066,3.6934,3.9305,3.9305,3.9305,3.9305,3.9305,3.9305,3.9305,3.9305,3.9305,3.9305,3.9305,3.9305,3.9305,3.9305,3.9305,3.9305,3.9305,3.9305,3.9305,4.0014,4.0944,4.1707,4.1406,4.1709,4.1893,4.1646,4.1997,4.2117,4.1654,4.1893,4.2021,4.181,4.1679,0.0,4.1597,4.1217,4.1146,4.1565,4.1217,4.1154,4.1581,4.0759,4.0285,4.0285,0.0,0.0,4.0285,4.0561,4.1067,4.1754,4.1762,4.26,4.409,4.451,4.485,4.5135,4.56,4.5798,4.5798,4.5798,4.5798,4.5798,4.5798,4.5798,4.5798,4.5798,4.5941,4.6085,4.5968,4.6033,4.6143,4.6026,4.6042,4.5952,4.5169,4.4824,4.4518,4.3762,4.3428,4.33,4.33,4.3384,4.3532,4.3851,4.4026,4.4127,4.4205,4.4224,4.414,4.3845,4.3572,4.2751,4.0737,4.1294,4.1294,3.9323,0.0,0.0,0.0,0.0,0.0,0.0,3.4304,3.3192,0.0,0.0,0.0,0.0,0.0,0.0,3.4095,3.4727,0.0,3.7707,3.6985,3.7514,3.9305,3.9305,3.9305,3.9305,3.9305,3.9305,3.9305,3.9305,3.9305,3.9305,3.9305,3.9305,3.9305,3.9305,3.9305,3.9305,3.9305,3.9305,3.9305,4.2125,4.215,0.0,0.0,4.2553,0.0,4.1766,4.2219,4.2397,4.1758,4.1963,4.215,4.2109,4.1826,4.163,4.1597,0.0,0.0,0.0,4.1549,4.1549,4.1597,4.151,4.1478,4.1533,4.1533,4.1597,4.1747,4.2434,4.3121,4.3775,4.3762,4.4125,4.4787,4.4787,4.5166,4.5798,4.5798,4.5798,4.5798,4.5798,4.5798,4.5798,4.5798,4.5798,4.5798,4.5798,4.5941,4.6103,4.6085,4.617,4.6271,4.6262,4.6178,4.5961,4.5392,4.5011,4.4668,4.4147,4.366,4.33,4.33,4.3503,4.3812,4.4185,4.4301,4.4377,4.4553,4.4591,4.4591,4.4591,4.4092,4.3645,4.3615,4.3073,4.2386,4.1571,0.0,0.0,0.0,0.0,0.0,0.0,3.5092,3.5101,0.0,0.0,0.0,0.0,0.0,3.1042,3.3455,3.4008,3.5083,3.6768,3.6782,3.7636,3.9305,3.9305,3.9305,3.9305,3.9305,3.9305,3.9305,3.9305,3.9305,3.9305,3.9305,3.9305,3.9305,3.9305,3.9349,3.9391,3.9424,3.9413,3.9391,0.0,0.0,4.1957,4.1523,4.2089,4.2552,4.2398,4.2713,4.2832,4.2429,4.266,4.2664,4.2158,4.2029,4.1883,4.1621,4.1138,4.1051,4.1565,4.1123,4.1075,4.1589,4.0569,4.0261,4.0814,4.0846,4.1612,4.321,4.3374,4.3799,4.4462,4.4455,4.485,4.5545,4.5545,4.564,4.5798,4.5798,4.5798,4.5798,4.5798,4.5798,4.5798,4.5798,4.5798,4.5798,4.5798,4.5941,4.6085,4.5916,4.5988,4.6123,4.597,4.5898,4.5816,4.552,4.5055,4.4553,4.4108,4.366,4.33,4.33,4.3621,4.3949,4.4055,4.431,4.4549,4.4581,4.4591,4.4591,4.4591,4.4468,4.42,4.3676,4.3476,4.258,4.0315,3.9568,0.0,0.0,3.6392,3.6652,3.5648,3.69,3.6984,0.0,0.0,0.0,0.0,3.4764,3.5343,3.7755,3.7951,3.8222,3.8654,3.8667,3.8884,3.9305,3.9305,3.9305,3.9305,3.9305,3.9305,3.9305,3.9305,3.9305,3.9305,3.9305,3.9305,3.9305,3.9305,3.9706,4.0338,4.0636,4.0564,4.0349,4.103,4.159,4.2077,4.2022,4.2467,4.2835,4.2835,4.3104,4.3212,4.2874,4.2851,4.2735,4.2365,4.2061,4.1802,4.1613,4.1265,4.1217,4.1589,4.1265,4.1375,4.2071,4.1375,4.1288,4.2007,4.2023,4.2718,4.4157,4.4155,4.4526,4.5189,4.5189,4.5419,4.5798,4.5798,4.5798,4.5798,4.5798,4.5798,4.5798,4.5798,4.5798,4.5798,4.5798,4.5798,4.5798,4.5798,4.5941,4.6085,4.5961,4.6013,4.6085,4.5961,4.5871,4.578,4.5673,4.5265,4.4789,4.4387,4.3953,4.3601,4.3518,4.3675,4.3881,4.3978,4.4233,4.4458,4.4458,4.454,4.4591,4.4591,4.4591,4.4477,4.4123,4.3291,4.1952,3.9838,3.8648,0.0,3.5761,3.6443,3.6915,3.6558,3.7752,3.7971,3.6548,3.5934,0.0,3.7287,3.6554,3.7083,3.9237,3.9305,3.9305,3.9305,3.9305,3.9305,3.9305,3.9305,3.9305,3.9305,3.9305,3.9305,3.9305,3.9305,3.9305,3.9305,3.9305,3.9305,3.9336,3.9738,4.0292,4.0954,4.1575,4.1767,4.1767,4.2278,4.219,4.2286,4.2843,4.2989,4.302,4.302,4.3265,4.3357,4.3058,4.2782,4.2587,4.2532,4.2013,4.1662,4.1605,4.17,4.1779,4.1779,4.1779,4.2087,4.2829,4.2845,4.316,4.3846,4.3957,4.4304,4.4866,4.4866,4.5182,4.5798,4.5798,4.5798,4.5798,4.5798,4.5798,4.5798,4.5798,4.5798,4.5798,4.5798,4.5798,4.5798,4.5798,4.5798,4.5798,4.5798,4.5907,4.6042,4.6042,4.6042,4.6042,4.6042,4.5941,4.5798,4.5798,4.5564,4.5201,4.4799,4.4349,4.3949,4.3695,4.367,4.3749,4.3919,4.4127,4.4291,4.4262,4.4444,4.4581,4.4553,4.4587,4.447,4.4053,4.2551,4.0902,3.9307,0.0,3.6564,3.6278,3.6365,3.6789,3.7692,3.8239,3.8548,3.8548,3.7596,3.7677,3.9224,3.784,3.7704,3.9251,3.9305,3.9305,3.9305,3.9305,3.9283,3.9236,3.9236,3.9214,3.9194,3.9194,3.9216,3.9236,3.9236,3.9258,3.9305,3.9305,3.9305,3.9391,4.0324,4.0972,4.1515,4.2507,4.3071,4.3307,4.1971,4.2037,4.2134,4.2246,4.2491,4.2679,4.2679,4.2718,4.2733,4.2679,4.2632,4.2491,4.2214,4.2085,4.1907,4.1621,4.2174,4.2529,4.2529,4.2529,4.2837,4.3515,4.3538,4.3862,4.4534,4.5157,4.553,4.564,4.564,4.5688,4.5798,4.5798,4.5798,4.5798,4.5798,4.5798,4.5798,4.5798,4.5798,4.5798,4.5798,4.5798,4.5798,4.5798,4.5798,4.5798,4.5798,4.5816,4.5859,4.5859,4.5859,4.5859,4.5859,4.5832,4.5798,4.5798,4.5762,4.5619,4.521,4.4578,4.39,4.3473,4.3537,4.371,4.3739,4.4036,4.4253,4.4069,4.4349,4.4559,4.4377,4.4492,4.3861,4.1592,4.0955,3.9811,3.711,0.0,3.8452,3.7469,3.8812,3.9621,3.907,3.9115,3.9169,3.9169,3.8993,3.9007,3.9278,3.9034,3.9007,3.9292,3.9305,3.9305,3.9305,3.9305,3.9192,3.8964,3.8964,3.8866,3.8715,3.8715,3.8789,3.8964,3.8964,3.9089,3.9305,3.9305,3.9305,3.9424,4.0636,4.1592,4.2481,4.4048,4.4434,4.426,4.2037,4.2206,4.2428,4.2618,4.2765,4.2874,4.2874,4.302,4.3005,4.2648,4.2601,4.2467,4.2142,4.194,4.1928,4.2167,4.2498,4.3003,4.3722,4.3437,4.3539,4.421,4.4241,4.4573,4.5277,4.5624,4.5798,4.5798,4.5798,4.5798,4.5798,4.5798,4.5798,4.5798,4.5798,4.5798,4.5798,4.5798,4.5798,4.5798,4.5798,4.5798,4.5798,4.5798,4.5798,4.5798,4.5798,4.5798,4.5798,4.5798,4.5798,4.5798,4.5798,4.5798,4.5798,4.5798,4.5646,4.5383,4.4986,4.4454,4.39,4.3423,4.3394,4.3473,4.3473,4.3744,4.3949,4.3851,4.4156,4.4416,4.432,4.4458,4.4031,4.2331,4.1113,0.0,0.0,3.7862,3.8067,3.7166,3.8743,3.9738,3.9336,3.9305,3.9305,3.9305,3.9305,3.9305,3.9305,3.9305,3.9305,3.9305,3.9305,3.9305,3.9305,3.9305,3.9169,3.8908,3.8908,3.8787,3.8602,3.8711,3.881,3.8919,3.9056,3.9192,3.9316,3.9463,3.9763,4.0292,4.1596,4.2762,4.3843,4.5113,4.5593,4.5613,4.2246,4.2428,4.2679,4.2935,4.2982,4.2982,4.2982,4.3204,4.3189,4.2663,4.2601,4.2499,4.2238,4.2067,4.2195,4.2774,4.3038,4.3595,4.4629,4.4383,4.4415,4.4929,4.4961,4.523,4.5798,4.5798,4.5798,4.5798,4.5798,4.5798,4.5798,4.5798,4.5798,4.5798,4.5798,4.5798,4.5798,4.5798,4.5798,4.5798,4.5798,4.5798,4.5798,4.5798,4.5798,4.5798,4.5798,4.5798,4.5798,4.5798,4.5798,4.5798,4.5798,4.5798,4.5798,4.5798,4.5582,4.5247,4.4846,4.4454,4.4031,4.3581,4.3369,4.33,4.33,4.3518,4.368,4.3616,4.3949,4.4214,4.4166,4.4358,4.4031,4.2544,0.0,0.0,0.0,3.75,3.7331,3.7238,3.845,3.9305,3.9305,3.9305,3.9305,3.9305,3.9305,3.9305,3.9305,3.9305,3.9305,3.9305,3.9305,3.9305,3.9305,3.9305,3.9147,3.8832,3.8832,3.8688,3.8444,3.8654,3.8762,3.8843,3.9047,3.9161,3.9236,3.9714,4.0269,4.0997,4.2617,4.381,4.4756,4.5767,4.6315,4.6528,4.2579,4.2578,4.2609,4.2632,4.264,4.264,4.264,4.2656,4.2656,4.2609,4.2601,4.2585,4.257,4.2872,4.31,4.3165,4.4007,4.4598,4.4684,4.5293,4.5672,4.5719,4.5719,4.5751,4.5798,4.5798,4.5798,4.5798,4.5798,4.5798,4.5798,4.5798,4.5798,4.5798,4.5798,4.5798,4.5798,4.5798,4.5798,4.5798,4.5798,4.5798,4.5798,4.5798,4.5798,4.5798,4.5798,4.5798,4.5798,4.5798,4.5798,4.5798,4.5798,4.5798,4.5798,4.5798,4.578,4.5671,4.5272,4.4865,4.4463,4.405,4.3621,4.33,4.33,4.3518,4.3626,4.3384,4.3699,4.3968,4.3778,4.4065,4.322,3.9872,0.0,0.0,3.6952,3.6684,3.7282,3.8909,3.9224,3.9305,3.9305,3.9305,3.9305,3.9305,3.9305,3.9305,3.9305,3.9305,3.9305,3.9305,3.9305,3.9305,3.9305,3.9305,3.9071,3.8625,3.8625,3.8389,3.7957,3.8158,3.8383,3.8625,3.8647,3.8769,3.9006,4.009,4.0571,4.0863,4.3322,4.4336,4.4578,4.583,4.6298,4.6324,4.2913,4.3082,4.3219,4.3219,4.3219,4.3219,4.3219,4.3219,4.3151,4.2935,4.2912,4.2835,4.2624,4.3145,4.3588,4.3806,4.4589,4.5154,4.5374,4.5631,4.5798,4.5798,4.5798,4.5798,4.5798,4.5798,4.5798,4.5798,4.5798,4.5798,4.5798,4.5798,4.5798,4.5798,4.5798,4.5798,4.5798,4.5798,4.5798,4.5798,4.5798,4.5798,4.5798,4.5798,4.5798,4.5798,4.5798,4.5798,4.5798,4.5798,4.5798,4.5798,4.5798,4.5798,4.5798,4.5798,4.5798,4.5762,4.5609,4.5281,4.4818,4.4156,4.3881,4.366,4.3369,4.3384,4.3423,4.3309,4.3562,4.3601,4.2951,4.319,4.2688,4.0213,0.0,3.9678,3.8444,3.8274,3.8532,3.9224,3.9305,3.9305,3.9305,3.9305,3.9305,3.9305,3.9305,3.9305,3.9305,3.9305,3.9305,3.9305,3.9305,3.9305,3.9305,3.9305,3.906,3.8602,3.8602,3.8355,3.7911,3.8112,3.8258,3.8349,3.8534,3.8634,3.8823,4.0202,4.1098,4.1802,4.3844,4.5033,4.5633,4.6037,4.6225,4.628,4.3105,4.3379,4.3606,4.3606,4.3606,4.3606,4.3606,4.3606,4.3524,4.328,4.3257,4.3174,4.2935,4.3682,4.4277,4.4441,4.5215,4.5767,4.5884,4.5835,4.5798,4.5798,4.5798,4.5798,4.5798,4.5798,4.5798,4.5798,4.5798,4.5798,4.5798,4.5798,4.5798,4.5798,4.5798,4.5798,4.5798,4.5798,4.5798,4.5798,4.5798,4.5798,4.5798,4.5798,4.5798,4.5798,4.5798,4.5798,4.5798,4.5798,4.5798,4.5798,4.5798,4.5798,4.5798,4.5798,4.5798,4.5798,4.5798,4.56,4.5235,4.4549,4.4185,4.3919,4.3586,4.3414,4.322,4.2945,4.304,4.2885,4.1937,4.2081,4.1869,4.0441,4.0374,4.0223,3.9413,3.9305,3.9305,3.9305,3.9305,3.9305,3.9305,3.9305,3.9305,3.9305,3.9305,3.9305,3.9305,3.9305,3.9305,3.9305,3.9305,3.9258,3.918,3.9167,3.8935,3.8476,3.8476,3.8262,3.7911,3.8112,3.8188,3.82,3.8383,3.8476,3.8623,4.0419,4.1529,4.2274,4.4327,4.5535,4.6127,4.6042,4.6053,4.6127,4.3105,4.3379,4.3606,4.3606,4.3606,4.3606,4.3606,4.3606,4.3606,4.3606,4.3606,4.3606,4.3606,4.4619,4.5219,4.5017,4.5982,4.6457,4.6114,4.5907,4.5798,4.5798,4.5798,4.5798,4.5798,4.5798,4.5798,4.5798,4.5798,4.5798,4.5798,4.5798,4.5798,4.5798,4.5798,4.5798,4.5798,4.5798,4.5798,4.5798,4.5798,4.5798,4.5798,4.5798,4.5798,4.5798,4.5798,4.5798,4.5798,4.5798,4.5798,4.5798,4.5798,4.5798,4.5798,4.5798,4.5798,4.5798,4.5798,4.5798,4.5692,4.5293,4.4591,4.4007,4.4007,4.364,4.3046,4.2176,4.2001,4.1707,4.0763,4.0756,4.0696,4.008,4.0167,4.0066,3.9391,3.9305,3.9305,3.9305,3.9305,3.9305,3.9305,3.9305,3.9305,3.9305,3.9305,3.9305,3.9305,3.9305,3.9305,3.9305,3.9305,3.9169,3.8908,3.8908,3.8661,3.8188,3.8188,3.8089,3.7911,3.8112,3.8188,3.8188,3.8188,3.8188,3.8391,4.0802,4.18,4.2066,4.474,4.5798,4.5798,4.5798,4.5798,4.5798,4.341,4.3539,4.3606,4.3606,4.3726,4.3763,4.3621,4.3805,4.3872,4.3635,4.3726,4.3756,4.3621,4.4696,4.5267,4.4829,4.5889,4.6404,4.5916,4.5825,4.5798,4.5798,4.5798,4.5798,4.5798,4.5798,4.5798,4.5798,4.5798,4.5798,4.5798,4.5798,4.5798,4.5798,4.5798,4.5798,4.5798,4.5798,4.5798,4.5798,4.5798,4.5798,4.5798,4.5798,4.5798,4.5798,4.5798,4.5798,4.5798,4.5798,4.5798,4.5798,4.5798,4.5798,4.5798,4.5798,4.5798,4.5798,4.5798,4.5798,4.5692,4.5293,4.4808,4.4349,4.406,4.364,4.3046,4.2176,4.2001,4.1505,3.991,3.9826,3.9708,3.8863,3.9064,3.9253,3.9056,3.918,3.9305,3.9305,3.9305,3.9305,3.9305,3.9305,3.9305,3.9305,3.9305,3.9305,3.9305,3.9305,3.9305,3.9305,3.9125,3.891,3.869,3.8832,3.8661,3.8188,3.8188,3.8089,3.79,3.7956,3.799,3.799,3.799,3.8182,3.8654,4.088,4.1989,4.2521,4.4884,4.5896,4.5988,4.5844,4.588,4.5995,4.3355,4.3576,4.3726,4.3726,4.3859,4.3939,4.3813,4.3915,4.3954,4.3748,4.3756,4.3741,4.3613,4.4688,4.5259,4.4853,4.5793,4.6261,4.5934,4.5835,4.5798,4.5798,4.5798,4.5798,4.5798,4.5798,4.5798,4.5798,4.5798,4.5798,4.5798,4.5798,4.5798,4.5798,4.5798,4.5798,4.5798,4.5798,4.5798,4.5798,4.5798,4.5798,4.5798,4.5798,4.5798,4.5798,4.5798,4.5798,4.5798,4.5798,4.5798,4.5798,4.5798,4.5798,4.5798,4.5798,4.5798,4.5798,4.5798,4.5798,4.5744,4.5493,4.5021,4.4568,4.4396,4.3895,4.3095,4.1827,4.1553,4.0986,3.9037,3.8819,3.8765,3.8281,3.8438,3.8664,3.8765,3.8989,3.9147,3.9147,3.9236,3.9305,3.9305,3.9305,3.9305,3.9305,3.9305,3.9305,3.9305,3.9305,3.9305,3.9305,3.9044,3.8798,3.8602,3.8621,3.8438,3.8078,3.8078,3.8011,3.79,3.79,3.79,3.7911,3.8106,3.8521,3.9237,4.1248,4.2451,4.3199,4.5067,4.5871,4.5977,4.5835,4.5887,4.5952,4.3136,4.3553,4.3905,4.392,4.4034,4.4104,4.4099,4.3998,4.3927,4.3883,4.3734,4.3621,4.3606,4.4577,4.5154,4.4992,4.5661,4.6076,4.6076,4.5898,4.5798,4.5798,4.5798,4.5798,4.5798,4.5798,4.5798,4.5798,4.5798,4.5798,4.5798,4.5798,4.5798,4.5798,4.5798,4.5798,4.5798,4.5798,4.5798,4.5798,4.5798,4.5798,4.5798,4.5798,4.5798,4.5798,4.5798,4.5798,4.5798,4.5798,4.5798,4.5798,4.5798,4.5798,4.5798,4.5798,4.5798,4.5798,4.5798,4.5798,4.5798,4.5798,4.5216,4.4695,4.4865,4.431,4.3205,4.1291,4.0898,4.0286,3.8274,3.79,3.7956,3.8133,3.819,3.8281,3.8534,3.8744,3.8875,3.8908,3.9125,3.9269,3.9305,3.9305,3.9305,3.9305,3.9283,3.9258,3.9258,3.9258,3.9261,3.9238,3.9,3.8765,3.8568,3.8293,3.8078,3.79,3.79,3.79,3.79,3.79,3.79,3.7923,3.84,3.9029,3.9901,4.1747,4.2986,4.3879,4.5259,4.5798,4.5798,4.5798,4.5798,4.5798,4.3387,4.3719,4.3934,4.4041,4.4176,4.4198,4.3985,4.409,4.4073,4.371,4.3763,4.3771,4.3621,4.4193,4.4645,4.4755,4.5436,4.5862,4.5862,4.5816,4.5798,4.5798,4.5798,4.5798,4.5798,4.5798,4.5798,4.5798,4.5798,4.5798,4.5798,4.5798,4.5798,4.5798,4.5798,4.5798,4.5798,4.5798,4.5798,4.5798,4.5798,4.5798,4.5798,4.5798,4.5798,4.5798,4.5798,4.5798,4.5798,4.5798,4.5798,4.5798,4.5798,4.5798,4.5798,4.5798,4.5798,4.5798,4.5798,4.5798,4.5798,4.5798,4.5429,4.5042,4.4921,4.4515,4.3546,4.1354,4.0898,4.0286,3.8274,3.79,3.7911,3.7956,3.8101,3.8211,3.8281,3.851,3.8711,3.8886,3.8953,3.9067,3.9283,3.9305,3.9305,3.9305,3.9114,3.8986,3.8986,3.8986,3.891,3.876,3.869,3.8544,3.8293,3.8068,3.7933,3.79,3.79,3.79,3.79,3.79,3.79,3.7923,3.84,3.8915,3.9571,4.1651,4.2832,4.35,4.5148,4.5798,4.5798,4.5798,4.5798,4.5798,4.3199,4.3583,4.3835,4.3783,4.4066,4.4231,4.4027,4.407,4.4017,4.3785,4.3748,4.3726,4.3613,4.4016,4.4486,4.49,4.5548,4.5898,4.5807,4.5798,4.5798,4.5798,4.5798,4.5798,4.5798,4.5798,4.5798,4.5798,4.5798,4.5798,4.5798,4.5798,4.5798,4.5798,4.5798,4.5798,4.5798,4.5798,4.5798,4.5798,4.5798,4.5798,4.5798,4.5798,4.5798,4.5798,4.5798,4.5798,4.5798,4.5798,4.5798,4.5798,4.5798,4.5798,4.5798,4.5798,4.5798,4.5798,4.5798,4.5798,4.5798,4.5798,4.5637,4.5429,4.5225,4.4379,4.317,4.1527,4.0672,3.9754,3.8194,3.79,3.79,3.79,3.799,3.8057,3.8057,3.826,3.8451,3.8549,3.8762,3.9011,3.9269,3.9305,3.9247,3.9125,3.8975,3.8866,3.8753,3.8767,3.8713,3.8602,3.8476,3.8338,3.8188,3.8001,3.79,3.79,3.79,3.79,3.79,3.79,3.79,3.7934,3.8625,3.9311,4.0071,4.2037,4.3219,4.3944,4.5275,4.5798,4.5798,4.5798,4.5798,4.5798,4.3,4.3455,4.3743,4.3552,4.3935,4.4217,4.4099,4.3961,4.389,4.3861,4.3695,4.3606,4.3606,4.3955,4.4455,4.5118,4.5642,4.5915,4.5862,4.5816,4.5798,4.5798,4.5798,4.5798,4.5798,4.5798,4.5798,4.5798,4.5798,4.5798,4.5798,4.5798,4.5798,4.5798,4.5798,4.5798,4.5798,4.5798,4.5798,4.5798,4.5798,4.5798,4.5798,4.5798,4.5798,4.5798,4.5798,4.5798,4.5798,4.5798,4.5798,4.5798,4.5798,4.5798,4.5798,4.5798,4.5798,4.5798,4.5798,4.5798,4.5798,4.5798,4.5798,4.5716,4.5398,4.4123,4.2682,4.1575,4.0362,3.9183,3.8148,3.7923,3.79,3.79,3.79,3.79,3.79,3.8045,3.8156,3.8202,3.8605,3.8986,3.9203,3.9269,3.9192,3.8919,3.8863,3.8753,3.8532,3.8534,3.8523,3.8478,3.8306,3.819,3.8145,3.7979,3.79,3.79,3.79,3.79,3.79,3.798,3.8026,3.8072,3.9004,3.9826,4.0625,4.2311,4.3505,4.4368,4.5238,4.5664,4.5798,4.5798,4.5798,4.5798,4.3434,4.3719,4.391,4.3988,4.4068,4.4075,4.3956,4.3912,4.3846,4.3658,4.3621,4.3606,4.3606,4.3955,4.442,4.4976,4.521,4.5527,4.6028,4.5905,4.5798,4.5798,4.5798,4.5798,4.5798,4.5798,4.5798,4.5798,4.5798,4.5798,4.5798,4.5798,4.5798,4.5798,4.5798,4.5798,4.5798,4.5798,4.5798,4.5798,4.5798,4.5798,4.5798,4.5798,4.5798,4.5798,4.5798,4.5798,4.5798,4.5798,4.5798,4.5798,4.5798,4.5798,4.5798,4.5798,4.5798,4.5798,4.5798,4.5798,4.5798,4.5798,4.5798,4.56,4.4815,4.4001,4.2907,4.1095,4.0077,3.9238,3.8336,3.8011,3.79,3.79,3.79,3.79,3.79,3.7923,3.8013,3.8179,3.8605,3.8919,3.8953,3.9156,3.9192,3.8919,3.8744,3.8532,3.827,3.8258,3.8169,3.8003,3.8124,3.8124,3.7933,3.7911,3.79,3.79,3.79,3.79,3.7911,3.8321,3.85,3.8557,3.9504,3.9974,4.0188,4.1582,4.263,4.3451,4.4339,4.5145,4.5798,4.5798,4.5798,4.5798,4.3138,4.3486,4.3687,4.3558,4.3791,4.3932,4.3763,4.3734,4.3704,4.3613,4.3606,4.3539,4.3333,4.3573,4.397,4.4508,4.4886,4.5334,4.5911,4.5844,4.5798,4.5798,4.5798,4.5798,4.5798,4.5798,4.5798,4.5798,4.5798,4.5798,4.5798,4.5798,4.5798,4.5798,4.5798,4.5798,4.5798,4.5798,4.5798,4.5798,4.5798,4.5798,4.5798,4.5798,4.5798,4.5798,4.5798,4.5798,4.5798,4.5798,4.5798,4.5798,4.5798,4.5798,4.5798,4.5798,4.5798,4.5798,4.5798,4.5798,4.5798,4.5798,4.5798,4.5447,4.4084,4.3348,4.25,4.0916,3.9752,3.8807,3.8146,3.7956,3.79,3.79,3.7988,3.8023,3.7911,3.8001,3.8101,3.8188,3.8381,3.8562,3.8722,3.8933,3.8922,3.8538,3.8566,3.8432,3.8057,3.8034,3.799,3.79,3.799,3.799,3.79,3.79,3.79,3.79,3.8161,3.8287,3.8298,3.85,3.8749,3.9027,3.97,3.9996,4.0148,4.1926,4.2881,4.3333,4.4696,4.5456,4.5798,4.5798,4.5798,4.5798]},{"header":{"parameterUnit":"m.s-1","parameterCategory":1,"la1":30.6,"la2":28.766,"lo1":-90.7593,"lo2":-88.6598,"dy":0.0162,"dx":0.0183,"nx":116,"ny":114,"refTime":"2023-09-13T00:00:00:Z","depth":0,"parameterNumber":3,"parameterNumberName":"V-component_of_WINDS"},"data":[0.0,0.0,0.0,0.0,0.0,0.0,0.0,0.0,0.0,0.0,0.0,0.0,0.0,0.0,0.0,0.0,0.0,0.0,0.0,0.0,0.0,0.0,0.0,0.0,0.0,0.0,0.0,0.0,0.0,0.0,0.0,0.0,0.0,0.0,0.0,0.0,0.0,0.0,0.0,0.0,0.0,0.0,0.0,0.0,0.0,0.0,0.0,0.0,0.0,0.0,0.0,0.0,0.0,0.0,0.0,0.0,0.0,0.0,0.0,0.0,0.0,0.0,0.0,0.0,0.0,0.0,0.0,0.0,0.0,0.0,0.0,0.0,0.0,0.0,0.0,0.0,0.0,0.0,0.0,0.0,0.0,0.0,0.0,0.0,0.0,0.0,0.0,0.0,0.0,0.0,0.0,0.0,0.0,0.0,0.0,0.0,0.0,0.0,0.0,0.0,0.0,0.0,0.0,0.0,0.0,0.0,0.0,0.0,0.0,0.0,0.0,0.0,0.0,0.0,0.0,0.0,0.0,0.0,0.0,0.0,0.0,0.0,0.0,0.0,0.0,0.0,0.0,0.0,0.0,0.0,0.0,0.0,0.0,0.0,0.0,0.0,0.0,0.0,0.0,0.0,0.0,0.0,0.0,0.0,0.0,0.0,0.0,0.0,0.0,0.0,0.0,0.0,0.0,0.0,0.0,0.0,0.0,0.0,0.0,0.0,0.0,0.0,0.0,0.0,0.0,0.0,0.0,0.0,0.0,0.0,0.0,0.0,0.0,0.0,0.0,0.0,0.0,0.0,0.0,0.0,0.0,0.0,0.0,0.0,0.0,0.0,0.0,0.0,0.0,0.0,0.0,0.0,0.0,0.0,0.0,0.0,0.0,0.0,0.0,0.0,0.0,0.0,0.0,0.0,0.0,0.0,0.0,0.0,0.0,0.0,0.0,0.0,0.0,0.0,0.0,0.0,0.0,0.0,0.0,0.0,0.0,0.0,0.0,0.0,0.0,0.0,0.0,0.0,0.0,0.0,0.0,0.0,0.0,0.0,0.0,0.0,0.0,0.0,0.0,0.0,0.0,0.0,0.0,0.0,0.0,0.0,0.0,0.0,0.0,0.0,0.0,0.0,0.0,0.0,0.0,0.0,0.0,0.0,0.0,0.0,0.0,0.0,0.0,0.0,0.0,0.0,0.0,0.0,0.0,0.0,0.0,0.0,0.0,0.0,0.0,0.0,0.0,0.0,0.0,0.0,0.0,0.0,0.0,0.0,0.0,0.0,0.0,0.0,0.0,0.0,0.0,0.0,0.0,0.0,0.0,0.0,0.0,0.0,0.0,0.0,0.0,0.0,0.0,0.0,0.0,0.0,0.0,0.0,0.0,0.0,0.0,0.0,0.0,0.0,0.0,0.0,0.0,0.0,0.0,0.0,0.0,0.0,0.0,0.0,0.0,0.0,0.0,0.0,0.0,0.0,0.0,0.0,0.0,0.0,0.0,0.0,0.0,0.0,0.0,0.0,0.0,0.0,0.0,0.0,0.0,0.0,0.0,0.0,0.0,0.0,0.0,0.0,0.0,0.0,0.0,0.0,0.0,0.0,0.0,0.0,0.0,0.0,0.0,0.0,0.0,0.0,0.0,0.0,0.0,0.0,0.0,0.0,0.0,0.0,0.0,0.0,0.0,0.0,0.0,0.0,0.0,0.0,0.0,0.0,0.0,0.0,0.0,0.0,0.0,0.0,0.0,0.0,0.0,0.0,0.0,0.0,0.0,0.0,0.0,0.0,0.0,0.0,0.0,0.0,0.0,0.0,0.0,0.0,0.0,0.0,0.0,0.0,0.0,0.0,0.0,0.0,0.0,0.0,0.0,0.0,0.0,0.0,0.0,0.0,0.0,0.0,0.0,0.0,0.0,0.0,0.0,0.0,0.0,0.0,0.0,0.0,0.0,0.0,0.0,0.0,0.0,0.0,0.0,0.0,0.0,0.0,0.0,0.0,0.0,0.0,0.0,0.0,0.0,0.0,0.0,0.0,0.0,0.0,0.0,0.0,0.0,0.0,0.0,0.0,0.0,0.0,0.0,0.0,0.0,0.0,0.0,0.0,0.0,0.0,0.0,0.0,0.0,0.0,0.0,0.0,0.0,0.0,0.0,0.0,0.0,0.0,0.0,0.0,0.0,0.0,0.0,0.0,0.0,0.0,0.0,0.0,0.0,0.0,0.0,0.0,0.0,0.0,0.0,0.0,0.0,0.0,0.0,0.0,0.0,0.0,0.0,0.0,0.0,0.0,0.0,0.0,0.0,0.0,0.0,0.0,0.0,0.0,0.0,0.0,0.0,0.0,0.0,0.0,0.0,0.0,0.0,0.0,0.0,0.0,0.0,0.0,0.0,0.0,0.0,0.0,0.0,0.0,0.0,0.0,0.0,0.0,0.0,0.0,0.0,0.0,0.0,0.0,0.0,0.0,0.0,0.0,0.0,0.0,0.0,0.0,0.0,0.0,0.0,0.0,0.0,0.0,0.0,0.0,0.0,0.0,0.0,0.0,0.0,0.0,0.0,0.0,0.0,0.0,0.0,0.0,0.0,0.0,0.0,0.0,0.0,0.0,0.0,0.0,0.0,0.0,0.0,0.0,0.0,0.0,0.0,0.0,0.0,0.0,0.0,0.0,0.0,0.0,0.0,0.0,0.0,0.0,0.0,0.0,0.0,0.0,0.0,0.0,0.0,0.0,0.0,0.0,0.0,0.0,0.0,0.0,0.0,0.0,0.0,0.0,0.0,0.0,0.0,0.0,0.0,0.0,0.0,0.0,0.0,0.0,0.0,0.0,0.0,0.0,0.0,0.0,0.0,0.0,0.0,0.0,0.0,0.0,0.0,0.0,0.0,0.0,0.0,0.0,0.0,0.0,0.0,0.0,0.0,0.0,0.0,0.0,0.0,0.0,0.0,0.0,0.0,0.0,0.0,0.0,0.0,0.0,0.0,0.0,0.0,0.0,0.0,0.0,0.0,0.0,0.0,0.0,0.0,0.0,0.0,0.0,0.0,0.0,0.0,0.0,0.0,0.0,0.0,0.0,0.0,0.0,0.0,0.0,0.0,0.0,0.0,0.0,0.0,0.0,0.0,0.0,0.0,0.0,0.0,0.0,0.0,0.0,0.0,0.0,0.0,0.0,0.0,0.0,0.0,0.0,0.0,0.0,0.0,0.0,0.0,0.0,0.0,0.0,0.0,0.0,0.0,0.0,0.0,0.0,0.0,0.0,0.0,0.0,0.0,0.0,0.0,0.0,0.0,0.0,0.0,0.0,0.0,0.0,0.0,0.0,0.0,0.0,0.0,0.0,0.0,0.0,0.0,0.0,0.0,0.0,0.0,0.0,0.0,0.0,0.0,0.0,0.0,0.0,0.0,0.0,0.0,0.0,0.0,0.0,0.0,0.0,0.0,0.0,0.0,0.0,0.0,0.0,0.0,0.0,0.0,0.0,0.0,0.0,0.0,0.0,0.0,0.0,0.0,0.0,0.0,0.0,0.0,0.0,0.0,0.0,0.0,0.0,0.0,0.0,0.0,0.0,0.0,0.0,0.0,0.0,0.0,0.0,0.0,0.0,0.0,0.0,0.0,0.0,0.0,0.0,0.0,0.0,0.0,0.0,0.0,0.0,0.0,0.0,0.0,0.0,0.0,0.0,0.0,0.0,0.0,0.0,0.0,0.0,0.0,0.0,0.0,0.0,0.0,0.0,0.0,0.0,0.0,0.0,0.0,0.0,0.0,0.0,0.0,0.0,0.0,0.0,0.0,0.0,0.0,0.0,0.0,0.0,0.0,0.0,0.0,0.0,0.0,0.0,0.0,0.0,0.0,0.0,0.0,0.0,0.0,0.0,0.0,0.0,0.0,0.0,0.0,0.0,0.0,0.0,0.0,0.0,0.0,0.0,0.0,0.0,0.0,0.0,0.0,0.0,0.0,0.0,0.0,0.0,0.0,0.0,0.0,0.0,0.0,0.0,0.0,0.0,0.0,0.0,0.0,0.0,0.0,0.0,0.0,0.0,0.0,0.0,0.0,0.0,0.0,0.0,0.0,0.0,0.0,0.0,0.0,0.0,0.0,0.0,0.0,0.0,0.0,0.0,0.0,0.0,0.0,0.0,0.0,0.0,0.0,0.0,0.0,0.0,0.0,0.0,0.0,0.0,0.0,0.0,0.0,0.0,0.0,0.0,0.0,0.0,0.0,0.0,0.0,0.0,0.0,0.0,0.0,0.0,0.0,0.0,0.0,0.0,0.0,0.0,0.0,0.0,0.0,0.0,0.0,0.0,0.0,0.0,0.0,0.0,0.0,0.0,0.0,0.0,0.0,0.0,0.0,0.0,0.0,0.0,0.0,0.0,0.0,0.0,0.0,0.0,0.0,0.0,0.0,0.0,0.0,0.0,0.0,0.0,0.0,0.0,0.0,0.0,0.0,0.0,0.0,0.0,0.0,0.0,0.0,0.0,0.0,0.0,0.0,0.0,0.0,0.0,0.0,0.0,0.0,0.0,0.0,0.0,0.0,0.0,0.0,0.0,0.0,0.0,0.0,0.0,0.0,0.0,0.0,0.0,0.0,0.0,0.0,0.0,0.0,0.0,0.0,0.0,0.0,0.0,0.0,0.0,0.0,0.0,0.0,0.0,0.0,0.0,0.0,0.0,0.0,0.0,0.0,0.0,0.0,0.0,0.0,0.0,0.0,0.0,0.0,0.0,0.0,0.0,0.0,0.0,0.0,0.0,0.0,0.0,0.0,0.0,0.0,0.0,0.0,0.0,0.0,0.0,0.0,0.0,0.0,0.0,0.0,0.0,0.0,0.0,0.0,0.0,0.0,0.0,0.0,0.0,0.0,0.0,0.0,0.0,0.0,0.0,0.0,0.0,0.0,0.0,0.0,0.0,0.0,0.0,0.0,0.0,0.0,0.0,0.0,0.0,0.0,0.0,0.0,0.0,0.0,0.0,0.0,0.0,0.0,0.0,0.0,0.0,0.0,0.0,0.0,0.0,0.0,0.0,0.0,0.0,0.0,0.0,0.0,0.0,0.0,0.0,0.0,0.0,0.0,0.0,0.0,0.0,0.0,0.0,0.0,0.0,0.0,0.0,0.0,0.0,0.0,0.0,0.0,0.0,0.0,0.0,0.0,0.0,0.0,0.0,0.0,0.0,0.0,0.0,0.0,0.0,0.0,0.0,0.0,0.0,0.0,0.0,0.0,0.0,0.0,0.0,0.0,0.0,0.0,0.0,0.0,0.0,0.0,0.0,0.0,0.0,0.0,0.0,0.0,0.0,0.0,0.0,0.0,0.0,0.0,0.0,0.0,0.0,0.0,0.0,0.0,0.0,0.0,0.0,0.0,0.0,0.0,0.0,0.0,0.0,0.0,0.0,0.0,0.0,0.0,0.0,0.0,0.0,0.0,0.0,0.0,0.0,0.0,0.0,0.0,0.0,0.0,0.0,0.0,0.0,0.0,0.0,0.0,0.0,0.0,0.0,0.0,0.0,0.0,0.0,0.0,0.0,0.0,0.0,0.0,0.0,0.0,0.0,0.0,0.0,0.0,0.0,0.0,0.0,0.0,0.0,0.0,0.0,0.0,0.0,0.0,0.0,0.0,0.0,0.0,0.0,0.0,0.0,0.0,0.0,0.0,0.0,0.0,0.0,0.0,0.0,0.0,0.0,0.0,0.0,0.0,0.0,0.0,0.0,0.0,0.0,0.0,0.0,0.0,0.0,0.0,0.0,0.0,0.0,0.0,0.0,0.0,0.0,0.0,0.0,0.0,0.0,0.0,0.0,0.0,0.0,0.0,0.0,0.0,0.0,0.0,0.0,0.0,0.0,0.0,0.0,0.0,0.0,0.0,0.0,0.0,0.0,0.0,0.0,0.0,0.0,0.0,0.0,0.0,0.0,0.0,0.0,0.0,0.0,0.0,0.0,0.0,0.0,0.0,0.0,0.0,0.0,0.0,0.0,0.0,0.0,0.0,0.0,0.0,0.0,0.0,0.0,0.0,0.0,0.0,0.0,0.0,0.0,0.0,0.0,0.0,0.0,0.0,0.0,0.0,0.0,0.0,0.0,0.0,0.0,0.0,0.0,1.9592,0.0,0.0,0.0,0.0,0.0,0.0,0.0,0.0,0.0,0.0,0.0,0.0,0.0,0.0,0.0,0.0,0.0,0.0,0.0,0.0,0.0,0.0,0.0,0.0,0.0,0.0,0.0,0.0,0.0,0.0,0.0,0.0,0.0,0.0,0.0,0.0,0.0,0.0,0.0,0.0,0.0,0.0,0.0,0.0,0.0,0.0,0.0,0.0,0.0,0.0,0.0,0.0,0.0,0.0,0.0,0.0,0.0,0.0,0.0,0.0,0.0,0.0,0.0,0.0,0.0,0.0,0.0,0.0,0.0,0.0,0.0,0.0,0.0,0.0,0.0,0.0,0.0,0.0,0.0,0.0,0.0,0.0,0.0,0.0,0.0,0.0,0.0,0.0,0.0,0.0,0.0,0.0,0.0,0.0,0.0,0.0,0.0,0.0,0.0,0.0,0.0,0.0,0.0,0.0,0.0,0.0,0.0,0.0,0.0,0.0,0.0,0.0,0.0,0.0,0.0,0.0,1.912,0.0,0.0,0.0,0.0,0.0,0.0,0.0,0.0,0.0,0.0,0.0,0.0,0.0,0.0,0.0,0.0,0.0,0.0,0.0,0.0,0.0,0.0,0.0,0.0,0.0,0.0,0.0,0.0,0.0,0.0,0.0,0.0,0.0,0.0,0.0,0.0,0.0,0.0,0.0,0.0,0.0,0.0,0.0,0.0,0.0,0.0,0.0,0.0,0.0,0.0,0.0,0.0,0.0,0.0,0.0,0.0,0.0,0.0,0.0,0.0,0.0,0.0,0.0,0.0,0.0,0.0,0.0,0.0,0.0,0.0,0.0,0.0,0.0,0.0,0.0,0.0,0.0,0.0,0.0,0.0,0.0,0.0,0.0,0.0,0.0,0.0,0.0,0.0,0.0,0.0,0.0,0.0,0.0,0.0,0.0,0.0,0.0,0.0,0.0,0.0,0.0,0.0,0.0,0.0,0.0,0.0,0.0,0.0,2.0892,2.0935,2.049,2.1486,2.1462,2.06,2.0359,2.0034,1.9648,0.0,0.0,0.0,0.0,0.0,0.0,0.0,0.0,0.0,0.0,0.0,0.0,0.0,0.0,0.0,0.0,0.0,0.0,0.0,0.0,0.0,0.0,0.0,0.0,0.0,0.0,0.0,0.0,0.0,0.0,0.0,0.0,0.0,0.0,0.0,0.0,0.0,0.0,1.9611,1.9611,1.9875,1.9792,1.9418,1.9538,0.0,0.0,0.0,0.0,0.0,0.0,0.0,0.0,0.0,0.0,0.0,0.0,0.0,0.0,0.0,0.0,0.0,0.0,0.0,0.0,0.0,0.0,0.0,0.0,0.0,0.0,0.0,0.0,0.0,0.0,0.0,0.0,0.0,0.0,0.0,0.0,0.0,0.0,0.0,0.0,0.0,0.0,0.0,1.836,1.912,0.0,0.0,0.0,0.0,0.0,0.0,0.0,0.0,0.0,0.0,0.0,0.0,0.0,0.0,2.0585,2.1462,2.1659,2.1138,2.1978,2.2332,2.2261,2.2423,2.2423,2.2261,2.1818,0.0,2.1204,2.121,0.0,0.0,0.0,0.0,0.0,0.0,0.0,0.0,0.0,0.0,0.0,0.0,0.0,0.0,0.0,0.0,0.0,0.0,0.0,0.0,0.0,0.0,0.0,0.0,0.0,0.0,0.0,0.0,0.0,0.0,0.0,0.0,0.0,0.0,0.0,0.0,2.0253,2.1019,2.1622,2.1733,2.1776,2.1745,2.2149,2.1392,1.9848,2.0126,0.0,0.0,0.0,0.0,0.0,0.0,0.0,0.0,0.0,0.0,0.0,0.0,0.0,0.0,0.0,0.0,0.0,0.0,0.0,0.0,0.0,0.0,0.0,0.0,0.0,0.0,0.0,0.0,0.0,0.0,0.0,0.0,0.0,0.0,0.0,0.0,0.0,0.0,0.0,1.8241,1.8928,1.9459,1.9889,2.0058,0.0,0.0,0.0,0.0,0.0,0.0,0.0,0.0,0.0,2.1638,2.2411,2.2502,2.1862,2.309,2.3515,2.3094,2.3493,2.3667,2.3656,2.3551,2.3498,2.3488,2.3119,2.2896,2.2736,2.2047,2.1658,2.1402,0.0,0.0,0.0,0.0,1.9278,1.973,0.0,0.0,0.0,0.0,0.0,0.0,0.0,0.0,0.0,0.0,0.0,0.0,0.0,0.0,0.0,1.8527,0.0,0.0,0.0,0.0,0.0,0.0,0.0,0.0,0.0,0.0,0.0,2.0968,2.1718,2.2632,2.3662,2.3662,2.3709,2.3836,2.4436,2.3408,2.1268,2.186,2.1554,0.0,0.0,0.0,0.0,0.0,0.0,0.0,0.0,0.0,0.0,0.0,0.0,0.0,0.0,0.0,0.0,0.0,0.0,0.0,0.0,0.0,0.0,0.0,0.0,0.0,0.0,0.0,0.0,0.0,0.0,0.0,0.0,0.0,0.0,0.0,0.0,0.0,0.0,1.8991,1.9786,2.0214,2.0935,2.1373,0.0,0.0,0.0,0.0,0.0,0.0,2.2787,2.2414,2.2259,2.2395,2.3447,2.3766,2.3268,2.4398,2.485,2.4594,2.4529,2.4465,2.4421,2.4196,2.4099,2.4088,2.3894,2.3841,2.3824,2.2806,2.2301,2.2156,2.1716,2.1317,2.093,2.0584,2.0626,2.0896,0.0,0.0,0.0,0.0,0.0,0.0,0.0,0.0,0.0,0.0,0.0,0.0,0.0,0.0,1.942,1.8916,1.9139,1.9017,0.0,0.0,0.0,0.0,0.0,0.0,0.0,0.0,0.0,2.3053,2.3655,2.4292,2.4916,2.4916,2.4916,2.4951,2.5548,2.4927,2.3476,2.4082,2.39,2.312,0.0,0.0,0.0,0.0,0.0,0.0,0.0,0.0,0.0,0.0,0.0,0.0,0.0,0.0,0.0,0.0,0.0,0.0,0.0,0.0,0.0,0.0,0.0,0.0,0.0,0.0,0.0,0.0,0.0,0.0,0.0,0.0,0.0,0.0,0.0,0.0,0.0,0.0,0.0,2.1697,2.2551,0.0,0.0,0.0,0.0,2.2565,2.2914,2.3523,2.4431,2.4575,2.486,2.5365,2.521,2.5104,2.5073,2.5158,2.5084,2.4871,2.4615,2.439,2.4217,2.3948,2.3819,2.3819,2.3808,2.3948,2.4164,2.3835,2.3848,2.396,2.2929,2.2737,2.2926,2.1835,2.1962,2.2706,0.0,0.0,0.0,0.0,0.0,0.0,0.0,0.0,0.0,0.0,0.0,0.0,0.0,1.955,2.0253,1.9897,2.0624,2.0651,1.9584,0.0,0.0,0.0,0.0,0.0,0.0,0.0,2.2904,2.436,2.4957,2.5568,2.6157,2.6157,2.6157,2.6177,2.6788,2.6746,2.6229,2.6052,2.5608,2.4973,2.4545,2.3594,0.0,0.0,0.0,0.0,0.0,0.0,0.0,0.0,0.0,0.0,0.0,0.0,0.0,0.0,0.0,0.0,0.0,0.0,0.0,0.0,0.0,0.0,0.0,0.0,0.0,0.0,0.0,0.0,0.0,0.0,0.0,0.0,0.0,0.0,0.0,0.0,0.0,2.3221,2.3499,0.0,2.3805,2.3867,2.3989,2.425,2.4692,2.5078,2.5425,2.5478,2.5595,2.5791,2.5696,2.5591,2.5454,2.5755,2.5787,2.555,2.5802,2.5872,2.5795,2.553,2.5409,2.5366,2.4627,2.4373,2.4397,2.3657,2.3754,2.4337,2.3828,2.3801,2.397,2.3432,2.3431,2.3706,0.0,0.0,0.0,0.0,0.0,0.0,0.0,0.0,0.0,0.0,0.0,1.8716,1.8764,2.029,2.1202,2.0925,2.1872,2.194,2.0695,0.0,0.0,0.0,1.9375,0.0,0.0,2.3378,2.4496,2.5907,2.6307,2.6823,2.7404,2.7404,2.7404,2.7418,2.7833,2.8003,2.7976,2.7589,2.7176,2.6776,2.6362,2.5199,2.3588,0.0,0.0,0.0,0.0,0.0,0.0,0.0,0.0,0.0,0.0,0.0,0.0,0.0,0.0,0.0,0.0,0.0,0.0,0.0,0.0,0.0,0.0,0.0,0.0,0.0,0.0,0.0,0.0,0.0,0.0,0.0,0.0,0.0,0.0,0.0,2.3349,2.4988,2.4781,2.4748,2.536,2.5188,2.5147,2.5415,2.572,2.5895,2.5895,2.5895,2.5895,2.5895,2.5895,2.5833,2.5696,2.6011,2.6044,2.5797,2.6234,2.638,2.6325,2.6238,2.5943,2.5453,2.4855,2.4389,2.3997,2.3455,2.3635,2.4239,2.4045,2.4088,2.425,2.411,2.4013,2.3959,0.0,0.0,0.0,0.0,0.0,0.0,0.0,0.0,0.0,0.0,1.9516,1.9973,1.971,2.1254,2.2218,2.1937,2.2727,2.2707,2.148,2.0864,0.0,0.0,0.0,0.0,2.5025,2.5079,2.5947,2.7724,2.7724,2.803,2.8595,2.8595,2.8595,2.8595,2.8595,2.8595,2.8595,2.8595,2.8595,2.85,2.7323,2.6122,2.4916,0.0,0.0,0.0,0.0,0.0,0.0,0.0,0.0,0.0,0.0,0.0,0.0,0.0,0.0,0.0,0.0,0.0,0.0,0.0,0.0,0.0,0.0,0.0,0.0,0.0,0.0,0.0,0.0,0.0,0.0,0.0,0.0,0.0,2.3542,2.4068,2.5284,2.698,2.6418,2.6239,2.7114,2.6447,2.5927,2.5895,2.5949,2.5949,2.5917,2.5917,2.5917,2.5917,2.5917,2.5917,2.5917,2.595,2.5867,2.5677,2.5894,2.5889,2.5713,2.5986,2.5371,2.4103,2.455,2.4103,2.3104,2.3438,2.3705,2.3848,2.36,2.3624,2.3797,2.3797,2.3667,2.3503,0.0,0.0,0.0,0.0,0.0,0.0,0.0,0.0,0.0,0.0,1.8476,1.926,1.9331,2.1326,2.2534,2.2219,2.3202,2.3128,2.1437,0.0,0.0,0.0,0.0,0.0,2.6279,2.6726,2.742,2.8343,2.8343,2.8446,2.8595,2.8595,2.8595,2.8595,2.8595,2.8595,2.8595,2.8595,2.8595,2.8568,2.8234,2.7325,2.6127,0.0,0.0,0.0,0.0,0.0,0.0,0.0,0.0,0.0,0.0,0.0,0.0,0.0,0.0,0.0,0.0,0.0,0.0,0.0,0.0,0.0,0.0,0.0,0.0,0.0,0.0,0.0,0.0,0.0,0.0,0.0,0.0,2.7851,2.7253,2.6448,2.6668,2.8748,2.7163,2.6239,2.7114,2.6981,2.658,2.5948,2.6802,2.7066,2.6441,2.6409,2.6409,2.6409,2.6409,2.6409,2.6409,2.7075,2.738,2.7346,2.7791,2.7962,2.7938,2.8554,2.8514,2.7963,2.7939,2.7547,2.6815,2.591,2.5484,2.5283,2.4158,2.3754,2.3797,2.3797,2.3667,2.3421,0.0,0.0,0.0,0.0,0.0,0.0,0.0,0.0,0.0,0.0,1.8595,1.9388,1.9563,2.1563,2.2836,2.2687,2.3777,2.3798,2.2191,0.0,0.0,0.0,0.0,2.6225,2.7534,2.79,2.8279,2.8675,2.8675,2.8724,2.8804,2.8804,2.8804,2.8804,2.8804,2.8804,2.8804,2.8804,2.8804,2.8804,2.8804,2.7954,2.6682,2.6711,2.5871,2.4699,2.4713,2.4646,2.4445,2.3889,0.0,0.0,0.0,0.0,0.0,0.0,0.0,0.0,0.0,0.0,0.0,0.0,0.0,0.0,0.0,0.0,0.0,0.0,0.0,0.0,0.0,0.0,0.0,0.0,2.8393,2.9288,2.9514,2.792,2.7607,2.9967,2.7679,2.6462,2.7903,2.773,2.7243,2.6538,2.7954,2.8284,2.6955,2.7269,2.7213,2.6627,2.6791,2.6889,2.6889,2.7631,2.8111,2.833,2.8857,2.9098,2.9109,2.9733,2.9626,0.0,2.9009,2.8531,2.7678,2.7031,2.6691,0.0,0.0,0.0,0.0,0.0,2.4129,2.3741,0.0,0.0,0.0,0.0,0.0,0.0,0.0,0.0,0.0,0.0,0.0,1.9936,2.0066,2.1791,2.2988,2.3093,2.4197,2.451,0.0,0.0,0.0,2.6102,2.7196,2.8045,2.8638,2.8659,2.8708,2.8828,2.8904,2.9034,2.9196,2.9265,2.9306,2.9306,2.9306,2.9265,2.9196,2.9196,2.9154,2.9099,2.9099,2.8277,2.7019,2.6887,2.6164,2.521,2.5087,2.5044,2.4993,2.4618,0.0,0.0,0.0,0.0,0.0,0.0,0.0,0.0,0.0,0.0,0.0,0.0,0.0,0.0,0.0,0.0,0.0,0.0,0.0,0.0,0.0,0.0,0.0,0.0,2.9602,3.018,3.0711,2.8992,2.8527,3.0823,2.8154,2.7007,2.9231,2.8615,2.7897,2.7492,2.9099,2.9315,2.7524,0.0,0.0,0.0,0.0,2.7534,2.7589,2.8059,2.8552,2.9049,2.9476,2.9649,2.9636,3.014,2.9696,2.8524,2.8962,2.8458,2.732,2.7635,2.7653,2.7387,2.5939,2.5288,2.5192,2.5164,2.4808,2.4341,0.0,0.0,0.0,0.0,0.0,0.0,0.0,0.0,0.0,1.8129,1.9093,1.9807,2.0,2.1559,2.2556,2.2475,2.3581,2.466,0.0,0.0,2.4847,2.7633,2.7985,2.8398,2.899,2.8996,2.902,2.9035,2.954,2.9798,2.9845,3.0314,3.0549,3.0549,3.0549,3.0287,2.9831,2.9831,2.9541,2.9099,2.9099,2.8818,2.8415,2.8377,2.8162,2.7855,2.7832,2.7824,2.7733,2.7065,2.6343,2.5763,2.6012,0.0,0.0,0.0,0.0,0.0,0.0,0.0,0.0,0.0,0.0,0.0,0.0,0.0,0.0,0.0,0.0,0.0,0.0,0.0,0.0,2.9519,3.0494,3.1216,3.1332,3.0918,3.0849,3.1555,2.9199,2.8416,3.0747,2.9458,2.8465,2.8428,2.9077,2.9099,2.8232,2.8366,0.0,2.8605,2.8704,2.8959,2.9391,2.9854,3.026,3.0576,0.0,0.0,3.0418,3.11,3.1027,3.0418,3.1085,3.1013,3.0398,3.0053,2.929,2.8231,2.6866,2.5836,2.5102,2.4942,2.5028,2.5179,0.0,0.0,0.0,0.0,0.0,0.0,0.0,0.0,0.0,0.0,1.8382,1.9088,1.9593,2.0883,2.1805,2.2076,2.3074,0.0,0.0,2.5375,2.6066,2.8539,2.8643,2.8795,2.9085,2.9403,2.9603,2.9708,3.0296,3.0657,3.0753,3.106,3.1199,3.1199,3.1199,3.1032,3.0753,3.0753,3.0572,3.0301,3.0301,3.0174,2.9917,2.9109,2.8716,2.8595,2.8595,2.8595,2.8514,2.7975,2.7488,2.7133,2.7337,2.6694,2.5826,0.0,0.0,0.0,0.0,0.0,0.0,0.0,0.0,0.0,0.0,0.0,0.0,0.0,0.0,2.7356,0.0,0.0,2.9113,2.9955,3.0886,3.1604,3.1911,3.1915,3.1992,3.2215,2.9917,2.9268,3.171,3.0281,2.9311,2.9587,3.0474,3.0452,2.9221,2.9825,3.0053,2.9704,2.9925,3.0182,3.0451,3.0929,3.1358,3.1753,3.1753,3.1679,3.1554,3.1935,3.1948,3.1721,3.2091,3.2121,3.1884,3.1609,3.0834,2.9742,2.9138,2.791,2.6435,2.6337,2.6221,2.6055,0.0,0.0,0.0,0.0,0.0,0.0,0.0,0.0,0.0,0.0,1.7848,1.8448,1.9172,2.0174,2.1103,0.0,0.0,0.0,0.0,2.6313,2.7296,2.9119,2.9202,2.925,2.9374,2.9845,3.0246,3.0534,3.1148,3.1523,3.1676,3.1789,3.185,3.185,3.185,3.1789,3.1676,3.1676,3.1606,3.1493,3.1493,3.138,3.1065,2.976,2.9159,2.9005,2.9005,2.8972,2.892,2.8641,2.8475,2.8367,2.8369,2.8295,2.8087,2.7374,2.7238,0.0,0.0,0.0,0.0,0.0,0.0,0.0,0.0,0.0,2.8126,2.8169,2.8026,2.8106,2.8862,2.9225,2.971,3.0631,3.1387,3.2025,3.2504,3.2793,3.3017,3.3185,3.0774,3.0143,3.285,3.128,3.0409,3.1113,3.2094,3.1945,3.0287,3.1276,3.1499,3.0682,3.1017,3.1264,3.1376,3.1733,3.2174,3.2656,3.2656,3.2631,3.258,3.258,3.2555,3.2493,3.2493,3.2493,3.2493,3.243,3.1855,3.1042,3.1104,2.994,2.8205,2.8076,2.7552,2.6958,0.0,0.0,0.0,0.0,0.0,0.0,0.0,0.0,0.0,0.0,0.0,0.0,0.0,0.0,0.0,0.0,0.0,0.0,2.6027,2.6537,2.7591,2.947,2.9532,2.9784,3.0331,3.0407,3.0754,3.137,3.198,3.2283,3.2306,3.2845,3.3097,3.3097,3.3097,3.2797,3.23,3.23,3.1991,3.1493,3.1493,3.138,3.1174,3.1007,3.0732,3.0465,3.0465,3.0346,3.0184,3.0164,2.9788,2.9337,2.9333,2.902,2.852,2.7965,0.0,2.8267,2.6014,2.5574,2.6209,2.8043,2.8756,2.9021,0.0,0.0,3.0384,3.0567,3.0822,3.1242,3.2042,3.2084,3.2032,3.2156,3.2695,3.3114,3.3192,3.4223,3.499,3.5012,3.2327,3.1732,3.4941,3.2815,3.1849,3.3392,3.2892,3.2136,3.128,3.1373,3.1601,3.1891,3.1947,3.2208,3.2685,3.274,3.2922,3.3206,3.3206,3.3093,3.2855,3.2855,3.273,3.2493,3.2493,3.2493,3.2481,3.2179,3.1713,3.1154,3.0929,3.0406,2.967,2.9016,2.8393,2.7839,0.0,0.0,0.0,0.0,0.0,0.0,0.0,0.0,0.0,0.0,0.0,0.0,0.0,0.0,0.0,0.0,0.0,0.0,2.4928,2.614,2.7474,2.9012,2.9412,2.9937,3.0668,3.1027,3.157,3.2301,3.2962,3.3214,3.3102,3.3362,3.3413,3.3308,3.3308,3.3168,3.2915,3.2915,3.2783,3.2544,3.2544,3.2501,3.2413,3.2413,3.2258,3.1877,3.0619,3.0122,0.0,0.0,2.9705,2.96,3.0196,2.9605,2.8795,2.923,2.8655,0.0,2.7019,2.7185,2.7842,0.0,2.9993,3.0746,3.0746,3.1328,3.1883,3.197,3.2006,3.2135,3.2461,3.2363,3.2389,0.0,3.3392,3.3926,3.4402,3.5217,3.577,3.577,3.398,3.348,3.541,3.344,3.2412,3.3319,3.2688,3.2132,3.1827,3.2097,3.2421,3.2787,3.2811,3.2914,3.3131,3.313,3.3181,3.3293,3.3293,3.3243,3.313,3.313,3.2993,3.2718,3.2568,3.2493,3.2481,3.2354,3.2164,3.1923,3.1618,3.1169,3.0601,2.9831,2.938,2.9164,0.0,0.0,0.0,0.0,0.0,0.0,0.0,0.0,0.0,0.0,0.0,0.0,0.0,0.0,0.0,0.0,0.0,0.0,0.0,2.564,2.7164,2.8641,2.9187,2.9879,3.078,3.1444,3.2151,3.2902,3.3568,3.3836,3.3675,3.3675,3.3605,3.3457,3.3413,3.3387,3.3387,3.3326,3.3308,3.3308,3.3308,3.3308,3.3308,3.3308,3.2999,3.2385,3.0762,3.0152,0.0,0.0,2.9516,2.9788,3.0145,2.9646,2.9037,2.9425,2.8274,2.7035,2.7825,2.8403,0.0,2.9904,3.0968,3.1836,3.2016,3.2339,3.2658,3.2805,3.2734,3.2685,3.283,3.2928,3.3163,3.375,3.4305,3.4868,3.5435,3.6005,3.6229,3.5913,3.5334,3.508,3.5355,3.3933,3.322,3.3764,3.3208,3.2843,3.2843,3.2939,3.3093,3.3293,3.3293,3.3293,3.3293,3.3293,3.3293,3.3293,3.3293,3.3256,3.3181,3.3118,3.298,3.2779,3.258,3.2493,3.2493,3.2405,3.2367,3.2331,3.2014,3.1644,3.1232,3.0661,3.0256,2.9994,0.0,0.0,0.0,0.0,0.0,0.0,0.0,0.0,0.0,0.0,0.0,0.0,0.0,0.0,0.0,0.0,0.0,0.0,0.0,2.5163,2.6623,2.8605,2.8967,2.964,3.0773,3.1581,3.2291,3.2902,3.3568,3.3905,3.3896,3.3896,3.3896,3.3871,3.3675,3.3588,3.3579,3.3387,3.3308,3.3308,3.3308,3.3308,3.3308,3.3308,3.2564,3.1516,3.1246,0.0,0.0,2.9425,2.9572,3.0053,2.8788,2.8935,0.0,2.7823,2.684,2.6537,2.7995,2.8313,2.8673,3.0492,3.1395,3.1951,3.2542,3.2537,3.2559,3.3085,3.3229,3.3439,3.3952,3.4681,3.521,3.5236,3.5693,3.6046,3.607,3.6582,3.6567,3.5467,3.627,3.6358,0.0,3.447,3.4674,3.5729,3.5138,3.4727,3.4727,3.3818,3.3281,3.3293,3.3293,3.3293,3.3293,3.3293,3.3293,3.3293,3.3293,3.3156,3.2904,3.2631,3.2519,3.2506,3.2493,3.2493,3.2468,3.2153,3.2015,3.199,3.1721,3.1593,3.158,3.1565,3.0884,2.9994,0.0,0.0,0.0,0.0,0.0,0.0,0.0,0.0,0.0,0.0,0.0,0.0,0.0,0.0,0.0,0.0,2.0491,2.1568,0.0,2.4319,2.5576,2.6665,2.8066,2.9259,3.0172,3.0992,3.1765,3.2501,3.3256,3.3565,3.3439,3.3847,3.3994,3.3905,3.3836,3.381,3.3793,3.3727,3.3614,3.3509,3.364,3.3536,3.3261,3.3006,3.2326,3.1331,0.0,0.0,2.9158,2.8586,2.8599,2.883,2.878,2.8286,2.7471,2.6112,2.6565,2.7609,2.7976,2.8938,3.0112,3.1142,3.2192,3.3051,3.3247,3.3523,3.3785,3.3957,3.3733,3.3548,3.3733,3.3843,3.408,3.4625,3.5043,3.5637,3.6571,3.6227,3.6162,3.6933,3.6466,0.0,0.0,0.0,0.0,3.4754,3.4162,3.3793,3.3793,3.3481,3.3293,3.3293,3.3293,3.3443,3.3752,3.3752,3.3935,3.4291,3.3745,3.3199,3.2618,3.2316,3.2166,3.2153,3.1975,3.191,3.1886,3.1784,3.1733,3.1721,3.1631,3.1593,3.1593,3.1593,3.1373,3.1064,0.0,0.0,0.0,0.0,0.0,0.0,0.0,0.0,0.0,0.0,0.0,0.0,0.0,0.0,0.0,0.0,0.0,2.1056,2.218,0.0,2.4594,2.5481,2.7074,2.8251,2.889,3.0169,3.1083,3.1618,3.2597,3.3024,3.2965,3.3347,3.3482,3.3396,3.332,3.3287,3.3287,3.3219,3.3254,3.3326,3.2995,3.2837,3.2715,3.2001,3.1116,0.0,0.0,0.0,2.7496,2.7357,2.7573,2.7865,2.7777,2.7122,2.6401,2.6371,2.7316,2.8465,2.8891,3.0184,3.1555,3.2163,3.3112,3.3885,3.3885,3.4149,3.4377,3.4304,3.4251,3.405,3.354,3.3729,3.4118,3.4638,3.5056,3.5804,3.7132,3.6684,3.6488,3.7168,3.6571,3.6096,0.0,0.0,0.0,3.452,3.3839,3.3586,3.388,3.3514,3.3466,3.3822,3.3845,3.397,3.428,3.4291,3.4463,3.4783,3.4063,3.3451,3.2993,3.2572,3.2242,3.1997,3.1918,3.1733,3.1503,3.1566,3.1593,3.1593,3.1593,3.1593,3.1593,3.1593,3.1593,3.1593,0.0,0.0,0.0,0.0,0.0,0.0,0.0,0.0,0.0,0.0,0.0,0.0,0.0,0.0,0.0,0.0,0.0,0.0,2.1893,0.0,0.0,2.5034,2.6006,2.667,2.6995,2.9035,3.0124,3.0197,3.1474,3.2189,3.2308,3.2366,3.2409,3.2387,3.2203,3.2123,3.2115,3.1907,3.2192,3.2668,3.142,3.1268,3.1659,3.0389,0.0,0.0,0.0,0.0,2.5907,2.59,2.6623,2.7302,2.6083,2.5775,2.6266,2.8394,2.8922,2.9139,3.0633,3.1898,3.2931,3.3506,3.4018,3.4397,3.4397,3.4397,3.4332,3.4131,3.4663,3.4773,0.0,0.0,3.5177,3.5244,3.5689,3.6436,3.7639,3.7782,3.7351,0.0,0.0,0.0,0.0,0.0,0.0,3.5194,0.0,3.4102,3.4906,3.3938,3.3796,3.4736,3.4795,3.4819,3.4842,3.4852,3.4826,3.479,3.4189,3.39,3.3838,3.3338,3.2724,3.207,3.2336,3.2046,3.1411,3.1609,3.1658,3.1636,3.1636,3.1615,3.1593,3.1593,3.1593,3.1593,0.0,0.0,0.0,0.0,0.0,0.0,0.0,0.0,0.0,0.0,0.0,0.0,0.0,0.0,0.0,0.0,0.0,0.0,2.1266,0.0,0.0,0.0,0.0,0.0,0.0,0.0,0.0,2.7353,2.8872,2.9646,2.9697,3.0641,3.1076,3.1076,3.1023,3.1014,3.1,3.0946,3.0941,3.0901,0.0,3.0087,3.0345,0.0,0.0,0.0,0.0,2.6735,2.6029,2.5927,2.6715,2.783,2.8373,2.8238,2.8056,2.9019,2.9833,3.0586,3.1378,3.2754,3.4005,3.4162,3.4293,3.4397,3.4397,3.4397,3.4311,3.4008,3.3751,3.339,0.0,0.0,0.0,3.4634,3.4834,0.0,3.6397,3.6214,0.0,3.6096,0.0,3.6759,3.7812,3.7957,0.0,0.0,3.5465,3.4369,3.4192,3.4095,3.4159,3.442,3.4679,3.4969,3.5323,3.5473,3.5269,3.4721,3.432,3.3838,3.3298,3.3164,3.3006,3.2816,3.2895,3.2809,3.2654,3.2698,3.2505,3.2199,3.2199,3.1957,3.1593,3.1593,3.1593,3.1593,0.0,0.0,0.0,0.0,0.0,0.0,0.0,0.0,0.0,0.0,0.0,0.0,0.0,0.0,0.0,0.0,0.0,0.0,0.0,0.0,0.0,0.0,0.0,0.0,0.0,0.0,0.0,0.0,0.0,0.0,2.7438,2.7918,2.8107,2.8063,2.8121,2.8107,2.8092,2.8653,0.0,0.0,0.0,0.0,0.0,0.0,0.0,0.0,0.0,2.6661,2.6573,2.7084,2.7686,2.8463,3.0057,2.9922,2.9515,3.1264,3.1702,3.1811,3.2702,3.3655,3.4397,3.4397,3.4397,3.4353,3.4207,3.4176,3.3983,3.3252,3.3044,3.2776,3.2057,3.2016,0.0,0.0,0.0,0.0,3.595,3.5848,3.5757,0.0,3.6321,0.0,3.8555,3.8934,3.8671,0.0,3.6603,3.5638,3.4779,3.4817,3.4903,3.4961,3.5144,3.5374,3.5623,3.5731,3.5526,3.4997,3.4697,3.4334,3.3933,3.3783,3.3543,3.328,0.0,3.3217,3.2937,3.3053,3.2945,3.2715,3.2715,3.2527,3.2252,3.2252,3.2132,3.1957,0.0,0.0,0.0,0.0,0.0,0.0,0.0,0.0,0.0,0.0,0.0,0.0,0.0,0.0,0.0,0.0,0.0,0.0,0.0,0.0,0.0,0.0,0.0,0.0,0.0,0.0,0.0,0.0,0.0,0.0,0.0,0.0,0.0,0.0,0.0,0.0,0.0,0.0,0.0,0.0,0.0,0.0,0.0,0.0,0.0,0.0,2.651,2.6732,2.7237,2.8524,2.9013,2.9422,3.1411,3.1257,3.0901,3.3813,3.362,3.2706,3.3967,3.4345,3.4397,3.4397,3.4397,3.4319,3.4031,3.3858,3.3423,3.2329,3.2397,3.2387,3.15,3.17,3.2563,3.4309,0.0,3.4811,3.5556,3.5913,3.6033,3.59,3.6541,3.747,3.8698,3.9221,3.8979,3.7747,3.7978,3.7427,3.5717,3.5559,3.5611,3.579,3.5769,3.5756,3.5797,3.5728,3.5588,3.534,3.5063,3.4924,3.4922,3.4621,3.4213,3.3714,0.0,0.0,3.3023,3.3202,3.3251,3.3196,3.3196,3.3179,3.314,3.31,3.286,3.2536,0.0,0.0,0.0,0.0,0.0,0.0,0.0,0.0,0.0,0.0,1.8707,0.0,0.0,0.0,0.0,0.0,0.0,0.0,0.0,0.0,0.0,0.0,0.0,0.0,0.0,0.0,0.0,0.0,0.0,0.0,0.0,0.0,0.0,0.0,0.0,0.0,0.0,0.0,0.0,0.0,0.0,0.0,0.0,0.0,0.0,0.0,2.6564,2.6813,2.74,2.8415,2.9755,3.1273,3.2805,3.2951,3.2736,3.3761,3.3392,3.2814,3.3529,3.4058,3.4397,3.4397,3.4397,3.4382,3.4332,3.3583,0.0,3.2208,3.1429,3.0993,3.1459,3.1486,3.2008,3.3756,3.3904,3.3667,3.3336,3.4907,3.5757,0.0,3.6057,3.764,3.9286,3.909,0.0,0.0,0.0,3.8927,3.4943,3.4972,3.5326,3.5797,3.5577,3.5588,3.5797,3.5368,3.5119,3.5074,3.4744,3.4579,3.4579,3.4524,3.4589,3.4723,3.4471,0.0,3.4576,3.435,3.4032,3.3685,3.3685,3.3582,3.3396,3.318,3.319,3.3285,0.0,0.0,0.0,0.0,0.0,0.0,0.0,0.0,0.0,0.0,1.8954,1.8829,0.0,0.0,0.0,0.0,0.0,0.0,0.0,0.0,0.0,0.0,0.0,0.0,0.0,0.0,2.1781,2.2184,0.0,0.0,0.0,0.0,0.0,0.0,0.0,0.0,0.0,0.0,0.0,0.0,0.0,0.0,0.0,0.0,0.0,0.0,0.0,2.684,2.7441,2.834,2.9724,3.1398,3.3234,3.3548,3.3369,3.3946,3.3514,3.2919,3.3214,3.3829,3.4429,3.4567,3.4608,3.4502,3.4078,3.3317,3.2391,3.1288,3.0375,2.9877,3.0188,3.0166,3.0838,3.307,3.362,3.3824,3.4026,3.5234,3.59,3.5351,3.658,3.7808,0.0,3.8986,0.0,0.0,0.0,3.9133,3.7252,3.634,3.6064,3.6458,3.5785,3.5453,3.5602,3.534,3.5144,3.5005,3.498,3.4969,3.4969,3.4969,3.5063,3.5202,3.5035,0.0,3.4451,3.4825,3.4537,3.3893,3.4276,3.4373,3.4234,3.3934,3.3756,3.3658,0.0,0.0,0.0,0.0,0.0,0.0,0.0,1.9104,1.9423,1.9471,1.935,1.9283,1.9362,1.8818,1.8473,0.0,0.0,0.0,0.0,0.0,0.0,0.0,0.0,0.0,0.0,0.0,0.0,2.1541,2.0646,0.0,0.0,0.0,0.0,0.0,0.0,0.0,0.0,0.0,0.0,0.0,0.0,0.0,0.0,0.0,0.0,0.0,0.0,2.6794,2.7317,2.8123,2.9377,3.0934,3.2826,3.3257,3.323,3.4085,3.3609,3.2885,3.3238,3.3862,3.4455,3.4571,3.4736,3.4616,3.3676,3.294,3.1995,3.0363,2.9464,2.9007,2.9151,2.9145,2.9923,0.0,3.2952,3.353,3.4769,3.5299,3.5704,0.0,3.7168,0.0,3.824,3.9064,0.0,0.0,0.0,0.0,3.9573,3.8127,3.7317,3.7354,3.6354,3.5747,3.5591,3.5453,3.5285,3.5091,3.5298,3.5409,3.5409,3.5409,3.5437,3.5478,3.5423,0.0,0.0,3.5008,3.4813,3.3967,3.4714,3.5047,3.5047,3.4635,3.4311,3.4093,0.0,0.0,0.0,0.0,0.0,0.0,0.0,1.9537,2.0373,2.0384,2.0004,1.9779,1.991,1.8963,1.8372,0.0,0.0,0.0,0.0,0.0,0.0,0.0,0.0,0.0,0.0,0.0,0.0,2.0713,2.0772,0.0,0.0,0.0,0.0,0.0,0.0,0.0,0.0,0.0,0.0,0.0,0.0,0.0,0.0,0.0,0.0,0.0,0.0,2.6655,2.6928,2.7497,2.8872,3.0485,3.1294,3.1738,3.2277,3.3987,3.3392,3.25,3.3972,3.4436,3.4406,3.4068,3.4537,3.4718,3.3364,3.2355,3.1348,3.0086,2.8957,2.8504,2.9536,2.9578,3.0045,0.0,0.0,3.1222,3.343,3.3806,3.4384,3.5926,0.0,0.0,3.9339,3.9535,0.0,0.0,0.0,0.0,3.9612,3.9343,3.8916,3.8205,3.7559,3.6888,3.6211,3.5673,3.5395,3.5368,3.5395,3.5409,3.5409,3.5409,3.5522,3.5742,3.5519,0.0,0.0,3.509,3.4813,3.3967,3.4714,3.5146,3.5298,3.4705,3.4669,3.4886,0.0,0.0,0.0,0.0,0.0,0.0,0.0,2.0115,2.0429,2.0233,1.9968,1.9614,1.9144,1.8625,1.8348,0.0,0.0,0.0,0.0,0.0,0.0,0.0,0.0,0.0,0.0,0.0,0.0,1.9993,2.0084,0.0,0.0,0.0,0.0,0.0,0.0,0.0,0.0,0.0,0.0,0.0,0.0,0.0,0.0,0.0,0.0,0.0,0.0,0.0,2.6671,2.7007,2.8032,2.9122,2.8949,2.9483,3.0496,3.2142,3.2519,3.2445,3.2649,3.3405,3.4228,3.454,3.4856,3.479,3.3631,3.2789,3.1823,3.0241,2.9277,2.8785,2.9029,2.9071,2.9453,0.0,0.0,0.0,3.4483,3.5452,3.6425,3.7864,3.9411,0.0,0.0,0.0,0.0,0.0,0.0,0.0,4.2469,4.1215,4.0451,4.03,3.8601,3.7638,3.7512,3.6634,3.61,3.5936,3.61,3.5991,3.5632,3.5632,3.5701,3.5783,3.5519,0.0,0.0,3.4856,3.4468,3.3192,3.4494,3.5074,3.5132,3.4883,3.4894,3.5047,0.0,0.0,0.0,0.0,0.0,0.0,2.0255,2.0614,2.0685,2.0445,2.0053,1.9583,1.9008,1.8557,1.8348,1.8488,0.0,0.0,0.0,0.0,0.0,0.0,0.0,0.0,0.0,0.0,0.0,0.0,1.9806,1.9824,0.0,0.0,0.0,0.0,0.0,0.0,0.0,0.0,0.0,0.0,0.0,0.0,0.0,0.0,0.0,0.0,0.0,0.0,0.0,0.0,0.0,2.8094,2.7578,2.8146,2.9284,3.0775,3.1654,3.2113,3.2055,3.2987,3.4128,3.4692,3.4744,3.4414,3.3454,3.2682,3.1695,3.0066,2.9403,2.9028,2.8788,2.8777,2.9078,0.0,0.0,3.1866,3.4416,3.57,3.696,3.8553,0.0,0.0,0.0,0.0,0.0,0.0,0.0,0.0,0.0,4.2961,4.2084,4.1962,4.0173,3.9018,3.8573,3.7712,3.6958,3.6293,3.6483,3.6117,3.5285,3.5551,3.5529,3.5271,0.0,0.0,0.0,3.4879,3.4481,3.3072,3.464,3.5144,3.5019,3.5091,3.5074,3.5088,0.0,0.0,0.0,0.0,0.0,0.0,0.0,2.0958,2.1391,2.1397,2.0459,1.985,1.9973,1.8972,1.8348,1.8488,0.0,0.0,0.0,0.0,0.0,0.0,0.0,0.0,0.0,0.0,0.0,0.0,0.0,0.0,0.0,0.0,0.0,0.0,0.0,0.0,0.0,0.0,0.0,0.0,0.0,0.0,0.0,0.0,0.0,0.0,0.0,0.0,0.0,0.0,0.0,0.0,0.0,2.8159,2.8972,3.0396,3.0918,3.1346,3.2866,3.374,3.4203,3.4218,3.3907,3.3404,3.2595,3.1639,3.0577,2.9361,2.9099,2.9099,2.9099,2.8928,2.9135,0.0,0.0,0.0,3.242,3.3395,3.4808,0.0,0.0,3.9947,0.0,0.0,0.0,0.0,0.0,0.0,0.0,4.4376,4.3875,4.2828,4.251,4.1341,3.921,3.8846,3.7873,3.6293,3.6293,3.5507,3.4057,3.4977,3.4899,0.0,0.0,0.0,0.0,3.5269,3.5034,3.4009,3.5292,3.5478,3.5033,3.5298,3.5229,3.5088,0.0,0.0,0.0,0.0,0.0,0.0,0.0,2.0657,2.0543,1.9919,1.9534,1.923,1.8994,1.8653,1.845,1.8498,0.0,0.0,0.0,0.0,0.0,0.0,0.0,0.0,0.0,0.0,0.0,0.0,0.0,0.0,0.0,0.0,0.0,0.0,0.0,0.0,0.0,0.0,0.0,0.0,0.0,0.0,0.0,0.0,0.0,0.0,0.0,0.0,0.0,0.0,0.0,0.0,0.0,0.0,0.0,2.8318,2.9473,3.0518,3.0442,3.1194,3.2109,3.2537,3.2528,3.2374,3.2126,3.1741,3.1086,2.9835,2.951,2.9407,2.932,2.9322,2.9694,3.0743,0.0,0.0,0.0,0.0,0.0,3.9401,4.0771,0.0,0.0,0.0,0.0,0.0,0.0,0.0,0.0,4.4399,4.4233,4.3899,4.3107,4.1998,4.0579,3.9725,3.8608,3.7195,3.7195,3.6324,3.477,3.5391,0.0,0.0,0.0,0.0,0.0,3.456,3.4298,3.3464,3.4499,3.4952,3.5033,3.5298,3.5453,3.5591,0.0,0.0,0.0,0.0,0.0,0.0,0.0,2.0506,2.031,1.977,1.9551,1.9453,1.9483,1.9325,1.9101,1.8858,0.0,0.0,0.0,0.0,0.0,0.0,0.0,0.0,0.0,0.0,0.0,0.0,0.0,0.0,0.0,0.0,0.0,0.0,0.0,0.0,0.0,0.0,0.0,0.0,0.0,0.0,2.4332,0.0,0.0,0.0,0.0,0.0,0.0,0.0,0.0,0.0,0.0,0.0,0.0,0.0,2.8034,2.9297,2.9222,2.9958,3.0841,3.134,3.1334,3.1252,3.1351,3.1168,3.0764,2.9956,3.0078,3.0186,2.9748,3.0053,3.0443,3.0577,0.0,0.0,0.0,0.0,0.0,4.0108,0.0,0.0,0.0,0.0,0.0,0.0,0.0,0.0,0.0,4.4399,4.4399,4.4399,4.3757,4.2683,4.1207,4.0541,3.9261,3.741,3.741,3.6563,3.5018,3.5674,0.0,0.0,0.0,0.0,0.0,3.4676,3.4521,3.3914,3.4822,3.5177,3.5202,3.5591,3.5769,3.5852,0.0,0.0,0.0,0.0,0.0,0.0,0.0,0.0,0.0,0.0,2.0177,2.0199,2.0902,2.063,2.0136,0.0,0.0,0.0,0.0,0.0,0.0,0.0,0.0,0.0,0.0,0.0,0.0,1.9284,2.094,2.1486,2.1011,0.0,0.0,0.0,0.0,0.0,0.0,0.0,0.0,0.0,0.0,0.0,0.0,0.0,0.0,0.0,0.0,0.0,0.0,0.0,0.0,0.0,0.0,0.0,0.0,0.0,0.0,0.0,0.0,2.9656,3.0178,3.0416,3.0237,3.0078,3.0368,3.0119,0.0,2.9929,3.0771,3.1248,3.0375,3.1093,3.1364,2.9979,0.0,0.0,0.0,3.4718,0.0,0.0,0.0,0.0,0.0,0.0,0.0,0.0,0.0,0.0,0.0,4.4399,4.4399,4.4399,4.4399,4.341,4.1332,4.1319,3.9918,3.7161,3.7244,3.6411,3.4838,3.5879,0.0,0.0,0.0,0.0,0.0,3.548,3.5508,3.5132,3.5922,3.592,3.5505,3.6059,3.6086,3.5879,0.0,0.0,0.0,0.0,0.0,0.0,0.0,0.0,0.0,0.0,0.0,1.9415,1.9686,2.0136,0.0,0.0,0.0,0.0,0.0,0.0,0.0,0.0,0.0,0.0,0.0,0.0,0.0,1.922,2.0535,2.1176,2.1158,2.1596,0.0,0.0,0.0,0.0,0.0,0.0,0.0,0.0,0.0,0.0,0.0,0.0,0.0,0.0,2.5486,2.457,0.0,0.0,0.0,0.0,0.0,0.0,0.0,0.0,2.6008,2.6416,2.7204,0.0,2.8336,2.8389,2.8727,2.916,0.0,2.9999,0.0,0.0,0.0,3.1595,3.1357,3.2193,3.2545,3.139,0.0,0.0,3.5054,0.0,0.0,0.0,0.0,0.0,0.0,0.0,0.0,0.0,0.0,0.0,0.0,4.4399,4.4399,4.4399,4.4399,4.3768,4.244,4.2415,4.086,3.7802,3.8631,3.7529,3.4849,3.6271,0.0,0.0,0.0,0.0,3.587,3.5817,3.5722,3.5612,3.5607,3.5646,3.5714,3.5865,3.6032,3.6184,0.0,0.0,0.0,0.0,0.0,0.0,0.0,0.0,0.0,0.0,0.0,0.0,0.0,0.0,0.0,0.0,0.0,0.0,0.0,0.0,0.0,0.0,0.0,0.0,0.0,0.0,0.0,0.0,0.0,2.1476,0.0,0.0,0.0,0.0,0.0,0.0,0.0,0.0,0.0,0.0,2.2609,0.0,0.0,0.0,0.0,0.0,2.4653,2.3815,0.0,2.3247,2.32,2.2951,0.0,0.0,0.0,0.0,2.534,2.5884,2.6241,2.6794,2.7392,2.782,2.8091,2.8508,2.9504,2.9821,3.0272,0.0,0.0,3.1789,3.1789,3.2273,3.2455,0.0,3.2687,0.0,0.0,0.0,0.0,0.0,0.0,0.0,0.0,0.0,0.0,0.0,0.0,0.0,0.0,4.4399,4.4399,4.4399,4.4399,4.3875,4.2816,4.2318,4.0705,3.8014,3.8597,3.7701,3.558,3.6914,3.7052,0.0,0.0,0.0,3.6259,3.5868,3.5908,3.62,3.6048,3.6086,3.6196,3.6073,3.6141,3.6293,0.0,0.0,0.0,0.0,0.0,0.0,0.0,0.0,0.0,0.0,0.0,0.0,0.0,0.0,0.0,0.0,0.0,0.0,0.0,0.0,0.0,0.0,0.0,0.0,0.0,0.0,0.0,0.0,0.0,0.0,0.0,0.0,2.1924,0.0,0.0,2.1605,2.2053,2.2167,0.0,0.0,2.2652,0.0,0.0,0.0,0.0,0.0,0.0,0.0,0.0,2.2868,2.2893,2.2893,2.2893,0.0,0.0,0.0,0.0,0.0,2.5744,2.6252,2.6983,2.7975,2.7951,2.8071,2.9578,2.9664,2.9921,0.0,0.0,3.2161,3.2161,3.2435,0.0,0.0,0.0,0.0,3.6919,0.0,0.0,0.0,0.0,0.0,0.0,0.0,0.0,0.0,0.0,0.0,0.0,4.4399,4.4399,4.4399,4.4399,4.3971,4.3059,4.2147,4.0533,3.8248,3.8417,3.7759,3.6447,3.7518,3.772,0.0,0.0,0.0,3.6534,3.6097,3.6275,3.6822,3.6752,3.6727,3.6727,3.6415,3.632,3.6359,0.0,0.0,0.0,0.0,0.0,0.0,0.0,0.0,0.0,0.0,0.0,0.0,0.0,0.0,0.0,0.0,0.0,0.0,0.0,0.0,0.0,0.0,0.0,0.0,0.0,0.0,0.0,0.0,0.0,0.0,2.1087,2.2923,2.3388,2.2656,0.0,2.1791,2.1394,2.1965,2.2347,2.2623,2.2914,0.0,0.0,0.0,0.0,0.0,0.0,0.0,0.0,2.2837,2.2893,2.2893,2.2893,0.0,0.0,0.0,0.0,0.0,2.5493,2.6075,2.684,2.8052,2.7944,2.798,2.9683,2.9724,3.0142,0.0,0.0,0.0,0.0,3.4927,3.5399,0.0,0.0,0.0,0.0,0.0,0.0,0.0,0.0,0.0,0.0,0.0,0.0,0.0,0.0,0.0,0.0,4.4399,4.4399,4.4399,4.4399,4.4329,4.4162,4.3983,4.2375,3.9373,4.0274,3.9196,3.6447,3.7518,3.7959,0.0,0.0,3.771,3.7721,3.7417,3.736,3.7408,3.6901,3.6835,3.6983,3.6483,3.6443,3.6605,0.0,0.0,0.0,0.0,0.0,0.0,0.0,0.0,0.0,0.0,0.0,0.0,0.0,0.0,0.0,0.0,0.0,0.0,0.0,0.0,0.0,0.0,1.8356,1.8635,0.0,0.0,0.0,0.0,0.0,2.1987,2.1996,2.2986,2.3136,2.2562,2.2311,2.203,2.1768,2.2147,2.2522,2.2905,0.0,0.0,0.0,0.0,0.0,0.0,0.0,0.0,0.0,0.0,2.2687,2.2466,2.2798,0.0,0.0,0.0,0.0,0.0,2.5041,2.574,2.6851,2.8777,2.8383,2.8297,3.1307,3.0651,3.0385,0.0,0.0,0.0,0.0,0.0,3.459,3.4515,0.0,0.0,0.0,0.0,0.0,0.0,0.0,0.0,0.0,0.0,0.0,0.0,0.0,0.0,0.0,0.0,4.4399,4.4399,4.4399,4.4399,4.4399,4.4399,4.2779,3.9613,4.01,3.8943,3.6447,3.7518,3.7999,3.7963,0.0,3.747,3.7951,3.7229,3.7284,3.7772,3.7356,3.7262,3.7303,3.6739,3.6686,3.6862,0.0,0.0,0.0,0.0,0.0,0.0,0.0,0.0,0.0,0.0,0.0,0.0,0.0,0.0,0.0,0.0,0.0,0.0,0.0,0.0,1.8317,1.7907,1.8283,1.8724,0.0,0.0,2.0592,2.128,2.1789,2.2335,2.2904,2.2743,2.2466,2.2125,2.2173,2.2106,2.1988,2.2433,2.2845,2.3233,0.0,0.0,0.0,0.0,0.0,0.0,0.0,0.0,0.0,0.0,0.0,0.0,0.0,0.0,0.0,2.2506,2.3602,2.47,2.4673,2.5467,2.6821,2.8986,2.8447,2.8462,3.2591,3.1329,3.0442,0.0,0.0,0.0,0.0,3.3963,0.0,3.6174,0.0,0.0,0.0,0.0,0.0,0.0,0.0,0.0,0.0,0.0,0.0,0.0,0.0,0.0,0.0,0.0,4.4399,4.4399,4.4399,4.4399,4.4399,4.4399,4.3036,4.0342,4.0091,3.8979,3.7167,3.7732,3.7999,3.7951,3.7133,3.7241,3.7952,3.7108,3.7265,3.7972,3.7691,3.7556,3.7437,3.7049,3.6983,3.7037,0.0,0.0,0.0,0.0,0.0,0.0,0.0,0.0,0.0,0.0,0.0,0.0,0.0,0.0,0.0,0.0,0.0,0.0,0.0,0.0,1.8478,1.8444,1.8478,1.8519,0.0,1.9757,2.0659,2.1212,2.1866,2.2427,2.289,2.2263,2.1943,2.1924,2.2118,2.1851,2.1355,2.2678,2.3335,2.3498,2.3834,0.0,0.0,0.0,0.0,0.0,0.0,0.0,0.0,0.0,0.0,0.0,0.0,0.0,2.2639,2.2193,2.3305,2.4694,2.462,2.544,2.6601,2.7847,2.7584,2.8142,3.2362,3.1053,0.0,3.4348,0.0,0.0,0.0,3.5892,3.6272,0.0,0.0,0.0,0.0,0.0,0.0,0.0,0.0,0.0,0.0,0.0,0.0,0.0,0.0,0.0,0.0,0.0,0.0,4.4399,4.4399,4.4399,4.4399,4.4399,4.3786,4.256,4.1552,4.0477,3.9342,3.8413,3.7999,3.8,3.7915,3.7927,3.7987,3.7915,3.7927,3.7972,3.7691,3.741,3.717,3.7437,3.7356,3.7091,0.0,0.0,0.0,0.0,0.0,0.0,0.0,0.0,0.0,0.0,0.0,0.0,0.0,0.0,0.0,0.0,0.0,0.0,0.0,0.0,1.8347,1.8026,1.8598,1.8844,1.8635,1.9784,2.0865,2.1821,2.2366,2.2778,2.3025,2.2683,0.0,2.209,2.2174,2.2106,2.1996,2.26,2.3066,2.3408,2.3799,2.3784,0.0,0.0,0.0,0.0,0.0,0.0,0.0,0.0,2.2368,2.1803,0.0,2.2059,2.1737,2.2663,2.3717,2.4667,2.5101,2.5687,2.6775,2.9255,2.866,0.0,0.0,3.1984,3.193,3.6033,3.4674,0.0,0.0,0.0,3.7992,0.0,0.0,0.0,0.0,0.0,0.0,0.0,0.0,0.0,0.0,0.0,0.0,0.0,0.0,0.0,0.0,0.0,0.0,4.4399,4.4399,4.4399,4.4399,4.4399,4.4197,4.378,4.2709,4.1281,3.9609,3.9866,3.9635,3.9039,3.9699,3.9994,3.9994,3.9994,3.9994,3.9981,3.9879,3.9751,3.9636,3.9609,3.9183,3.8596,0.0,0.0,0.0,0.0,0.0,0.0,0.0,0.0,0.0,0.0,0.0,0.0,0.0,0.0,0.0,0.0,0.0,0.0,0.0,0.0,1.8322,1.7917,1.8652,1.9123,1.9223,2.002,2.102,2.2227,2.2724,2.2857,2.2657,0.0,0.0,0.0,2.2213,2.2272,2.2303,2.2757,2.3077,2.3326,2.369,2.3726,0.0,0.0,0.0,0.0,0.0,0.0,0.0,0.0,2.2325,0.0,0.0,0.0,0.0,2.2919,2.3878,2.4691,2.5403,2.584,2.6783,2.9632,0.0,0.0,3.2713,3.2642,3.2837,3.6563,3.5948,3.4871,0.0,0.0,0.0,0.0,0.0,0.0,0.0,0.0,0.0,0.0,0.0,0.0,0.0,0.0,0.0,0.0,0.0,0.0,0.0,0.0,0.0,0.0,4.4399,4.4399,4.4399,4.4399,4.4399,4.4387,4.366,4.2354,4.0616,4.1019,4.0806,4.0147,4.0881,4.1194,4.1194,4.1194,4.1194,4.1194,4.1194,4.1194,4.1182,4.0994,4.0579,4.0058,0.0,0.0,0.0,0.0,0.0,0.0,0.0,0.0,0.0,0.0,0.0,0.0,0.0,0.0,0.0,0.0,0.0,0.0,0.0,1.843,1.844,1.8319,1.8633,1.9318,2.0384,2.0473,2.1107,2.2311,2.2834,2.2607,2.1725,2.2038,0.0,0.0,2.2261,2.2268,2.2072,2.3229,2.3545,2.3327,2.3599,2.37,2.3628,0.0,0.0,0.0,0.0,0.0,0.0,0.0,2.2893,2.2761,0.0,0.0,0.0,2.2841,2.367,2.4751,2.5434,2.5863,2.6557,0.0,0.0,0.0,3.3222,3.2797,3.2401,3.5475,3.8076,3.9391,3.8141,0.0,0.0,0.0,0.0,0.0,0.0,0.0,0.0,0.0,0.0,0.0,0.0,0.0,0.0,0.0,0.0,0.0,0.0,0.0,0.0,0.0,4.4399,4.4399,4.4399,4.4399,4.4399,4.4399,4.4399,4.3839,4.2768,4.1716,4.1219,4.1219,4.1219,4.1232,4.1232,4.1232,4.1232,4.1232,4.1232,4.1232,4.1244,4.1244,4.1232,4.1219,0.0,0.0,0.0,0.0,0.0,0.0,0.0,0.0,0.0,0.0,0.0,0.0,0.0,0.0,0.0,0.0,0.0,0.0,0.0,1.843,1.8665,1.9056,1.9583,2.005,2.0458,2.1314,2.2131,2.2865,2.2081,2.2028,0.0,0.0,0.0,2.2143,0.0,2.294,2.2493,2.3593,2.3657,2.3034,2.3115,2.3143,2.3114,0.0,0.0,0.0,0.0,0.0,0.0,0.0,0.0,0.0,0.0,0.0,0.0,2.4564,2.4873,2.5006,2.6915,2.6786,0.0,2.8956,0.0,0.0,0.0,3.2985,0.0,0.0,3.8333,3.8769,3.7494,0.0,0.0,0.0,0.0,0.0,0.0,0.0,0.0,0.0,0.0,0.0,0.0,0.0,0.0,0.0,0.0,0.0,0.0,0.0,0.0,0.0,4.4399,4.4399,4.4399,4.4399,4.4399,4.4399,4.4399,4.3839,4.2816,4.324,4.3048,4.2367,4.312,4.3445,4.3445,4.3445,4.3553,4.3731,4.3731,4.3812,4.3939,4.3939,4.3474,4.2812,0.0,0.0,0.0,0.0,0.0,0.0,0.0,0.0,0.0,0.0,0.0,0.0,0.0,0.0,0.0,0.0,0.0,0.0,0.0,0.0,1.9026,1.9457,2.0133,2.0644,2.0926,2.1598,2.2062,2.2356,0.0,0.0,0.0,0.0,2.2019,2.2154,0.0,2.2887,2.2427,2.3306,2.3334,2.2786,2.2865,2.2893,2.2893,0.0,0.0,0.0,0.0,0.0,0.0,0.0,0.0,0.0,2.2617,0.0,0.0,2.5086,2.5564,2.6033,2.7676,2.7464,0.0,3.0451,3.0395,3.0208,3.256,0.0,0.0,0.0,0.0,3.9388,3.8604,0.0,0.0,0.0,0.0,0.0,0.0,0.0,0.0,0.0,0.0,0.0,0.0,0.0,0.0,0.0,0.0,0.0,0.0,0.0,0.0,0.0,4.4399,4.4399,4.4399,4.4399,4.4399,4.4399,4.4399,4.4054,4.3455,4.4115,4.4042,4.3467,4.4127,4.4399,4.4399,4.4399,4.4551,4.4797,4.4679,4.4783,4.4966,4.4862,4.4413,4.3843,0.0,0.0,0.0,0.0,0.0,0.0,0.0,0.0,0.0,0.0,0.0,0.0,0.0,0.0,0.0,0.0,0.0,0.0,0.0,0.0,1.9446,1.9738,2.052,2.1141,2.1583,2.1526,2.1403,2.1243,0.0,0.0,0.0,0.0,2.2114,2.2044,0.0,2.2455,2.2096,2.2752,2.2884,2.2644,2.2826,2.2893,2.2893,2.2836,0.0,0.0,0.0,0.0,0.0,0.0,0.0,0.0,2.2818,2.41,2.5508,2.4843,2.591,2.7433,2.7995,2.7985,2.8649,3.2109,3.1356,0.0,3.4914,3.5619,3.6287,3.9292,0.0,4.0582,0.0,0.0,0.0,0.0,0.0,0.0,0.0,0.0,0.0,0.0,0.0,0.0,0.0,0.0,0.0,0.0,0.0,0.0,0.0,4.4399,4.4399,4.4399,4.4399,4.4399,4.4399,4.4399,4.4399,4.4399,4.4399,4.4399,4.4399,4.4399,4.4399,4.4399,4.4399,4.4399,4.4399,4.4399,4.4551,4.4786,4.4527,4.4597,4.4795,4.4551,4.4457,4.4457,0.0,0.0,0.0,0.0,0.0,0.0,0.0,0.0,0.0,0.0,0.0,0.0,0.0,0.0,0.0,0.0,0.0,0.0,0.0,0.0,1.9845,2.0882,2.1654,2.1902,2.1616,2.187,0.0,0.0,0.0,0.0,0.0,0.0,0.0,2.2197,0.0,2.3044,2.254,2.3622,2.3596,2.2837,2.2877,2.2893,2.285,2.2365,2.249,0.0,0.0,0.0,0.0,0.0,0.0,0.0,2.2818,2.3493,2.4501,2.5475,2.6528,2.7647,2.891,2.8619,0.0,0.0,3.0755,3.2382,3.7288,3.7765,3.7842,4.0257,4.0092,0.0,0.0,0.0,0.0,0.0,0.0,0.0,0.0,0.0,0.0,0.0,0.0,0.0,0.0,0.0,0.0,0.0,0.0,0.0,4.4399,4.4399,4.4399,4.4399,4.4399,4.4399,4.4399,4.4399,4.4399,0.0,4.4399,4.4399,4.4399,4.4399,4.4399,4.4399,4.4399,4.4399,4.4399,4.4399,4.4551,4.4797,4.4751,4.4853,4.502,4.4963,4.4951,4.4928,0.0,0.0,0.0,0.0,0.0,0.0,0.0,0.0,0.0,0.0,0.0,0.0,0.0,0.0,0.0,0.0,0.0,0.0,0.0,0.0,0.0,0.0,2.2013,2.2155,2.1616,0.0,0.0,0.0,0.0,0.0,0.0,0.0,0.0,2.1759,0.0,2.2934,2.2652,2.3372,2.3383,2.2893,2.2893,2.2893,2.2864,2.2548,2.2629,2.2864,2.2533,0.0,0.0,0.0,0.0,0.0,0.0,0.0,2.5111,2.5162,2.6383,2.7847,2.8547,0.0,0.0,3.0945,0.0,3.4851,3.7651,3.8361,3.8918,4.065,4.0588,0.0,0.0,0.0,0.0,0.0,0.0,0.0,0.0,0.0,0.0,0.0,0.0,0.0,0.0,0.0,0.0,0.0,0.0,4.4399,4.4399,4.4399,4.4399,4.4399,4.4399,4.4399,4.4399,4.4399,4.4399,4.4399,4.4399,4.4399,4.4399,4.4399,4.4399,4.4399,4.4399,4.4399,4.4399,4.4399,4.4551,4.4797,4.4656,4.4748,4.4931,4.4815,4.4769,4.4769,0.0,0.0,0.0,0.0,0.0,0.0,0.0,0.0,0.0,0.0,0.0,0.0,0.0,0.0,0.0,0.0,0.0,0.0,0.0,0.0,0.0,0.0,2.1882,2.1904,2.1616,0.0,0.0,0.0,0.0,0.0,0.0,0.0,0.0,2.1682,0.0,2.2621,2.2572,2.2797,2.2882,2.2885,2.2902,2.2893,2.2893,2.2783,2.2812,2.2893,2.2783,2.2795,2.2885,2.2885,0.0,0.0,0.0,0.0,2.5831,2.4576,2.5997,2.7973,2.7842,0.0,3.0465,3.2746,3.4834,0.0,3.7438,3.835,3.9384,4.0791,0.0,0.0,0.0,0.0,0.0,0.0,0.0,0.0,0.0,0.0,0.0,0.0,0.0,0.0,0.0,0.0,0.0,0.0,0.0,4.4113,4.4113,4.4305,4.4399,4.4399,4.4399,4.4399,4.4399,4.4399,4.4399,4.4399,4.4399,4.4399,4.4399,4.4399,4.4399,4.4399,4.4399,4.4399,4.4399,4.4399,4.4527,4.4716,4.4492,4.4539,4.4705,4.4481,4.4399,4.4434,0.0,0.0,0.0,0.0,0.0,0.0,0.0,0.0,0.0,0.0,0.0,0.0,0.0,0.0,0.0,0.0,0.0,0.0,1.8805,0.0,0.0,2.2199,2.1242,2.0955,0.0,0.0,0.0,0.0,0.0,0.0,0.0,0.0,0.0,2.344,0.0,2.2696,2.2445,2.2769,2.2872,2.2818,2.2874,2.2893,2.2836,2.2327,2.2437,2.2821,2.2312,2.2426,2.2812,2.2812,2.2735,0.0,0.0,0.0,2.4683,2.4314,2.5998,2.7973,2.7842,0.0,3.1583,0.0,3.3547,3.4706,0.0,0.0,3.8778,0.0,0.0,0.0,0.0,0.0,0.0,0.0,0.0,0.0,0.0,0.0,0.0,0.0,0.0,0.0,0.0,0.0,0.0,0.0,4.3009,4.3009,4.3009,4.3887,4.4399,4.4399,4.4399,4.4399,4.4399,4.4399,4.4399,4.4399,4.4399,4.4399,4.4399,4.4399,4.4399,4.4399,4.4399,4.4399,4.4399,4.4399,4.4422,4.4446,4.4411,4.4422,4.4446,4.4411,4.4399,4.4411,0.0,0.0,0.0,0.0,0.0,0.0,0.0,0.0,0.0,0.0,0.0,0.0,0.0,0.0,0.0,1.8625,1.8083,1.8012,1.8584,1.9438,2.0262,2.1021,2.085,2.1011,2.1598,0.0,0.0,0.0,0.0,0.0,0.0,2.2607,2.2644,0.0,0.0,0.0,0.0,2.3454,2.3537,2.2866,2.2891,2.2893,2.2864,2.2615,2.2654,0.0,0.0,0.0,2.2707,2.2772,2.2652,2.2497,2.2572,0.0,0.0,0.0,2.5424,2.7117,2.8445,2.9362,3.0641,0.0,3.3831,3.4206,3.7687,0.0,3.8015,0.0,0.0,0.0,0.0,0.0,0.0,0.0,0.0,0.0,0.0,0.0,0.0,0.0,0.0,0.0,0.0,0.0,0.0,0.0,4.3709,4.3709,4.3709,4.4136,4.4399,4.4399,4.4399,4.4399,4.4399,4.4399,4.4399,4.4399,4.4399,4.4399,4.4399,4.4399,4.4399,4.4399,4.4399,4.4399,4.4399,4.4399,4.4399,4.4399,4.4399,4.4399,4.4399,4.4399,4.4399,4.4434,0.0,0.0,0.0,0.0,0.0,0.0,0.0,0.0,0.0,0.0,0.0,0.0,0.0,0.0,0.0,0.0,1.7752,1.7676,1.8273,1.9033,1.9602,1.9978,2.0346,2.0709,2.108,0.0,0.0,0.0,0.0,0.0,2.3324,2.3308,2.3175,0.0,2.4902,2.4806,0.0,0.0,0.0,2.3589,2.3618,2.3334,2.2893,0.0,0.0,2.2804,2.2804,0.0,0.0,0.0,0.0,0.0,0.0,2.3243,0.0,0.0,0.0,2.6371,0.0,0.0,2.9594,3.3325,3.3419,3.3306,0.0,0.0,3.7097,0.0,0.0,0.0,0.0,0.0,0.0,0.0,0.0,0.0,0.0,0.0,0.0,0.0,0.0,0.0,0.0,0.0,0.0,0.0,4.3995,4.3995,4.3995,4.4244,4.4399,4.4399,4.4399,4.4399,4.4399,4.4399,4.4399,4.4399,4.4399,4.4399,4.4399,4.4399,4.4399,4.4399,4.4399,4.4399,4.4399,4.4399,4.4399,4.4399,4.4399,4.4399,4.4399,4.4399,4.4399,4.4457,0.0,0.0,0.0,0.0,0.0,0.0,0.0,0.0,0.0,0.0,0.0,0.0,0.0,1.9115,1.8742,1.7485,1.7103,1.7191,1.7803,1.8407,1.9133,1.9959,1.9553,0.0,1.9695,1.9676,0.0,0.0,0.0,0.0,2.2844,2.3153,2.3894,2.4933,2.4831,2.547,2.6602,0.0,0.0,0.0,0.0,2.4553,0.0,0.0,0.0,0.0,0.0,0.0,0.0,0.0,0.0,0.0,0.0,0.0,0.0,0.0,0.0,0.0,0.0,2.8288,0.0,3.1198,3.1168,3.1134,0.0,0.0,0.0,0.0,0.0,0.0,0.0,0.0,0.0,0.0,0.0,0.0,0.0,0.0,0.0,0.0,0.0,0.0,0.0,0.0,0.0,0.0,4.2876,4.2876,4.2876,4.3851,4.4399,4.4399,4.4399,4.4399,4.4399,4.4399,4.4399,4.4399,4.4399,4.4399,4.4399,4.4399,4.4399,4.4399,4.4399,4.4399,4.4399,4.4399,4.4399,4.4399,4.4399,4.4399,4.4399,4.4399,4.4399,4.4434,0.0,0.0,0.0,0.0,0.0,0.0,0.0,0.0,0.0,0.0,0.0,0.0,0.0,1.8504,1.8236,1.7484,1.6952,1.6882,1.7434,1.8163,1.894,1.9768,1.9423,1.9689,2.0727,1.9997,0.0,0.0,0.0,2.0536,2.0839,2.2309,2.3138,2.3562,2.6433,2.6696,2.515,2.7764,0.0,0.0,0.0,0.0,0.0,0.0,0.0,0.0,0.0,0.0,0.0,0.0,0.0,0.0,0.0,0.0,0.0,0.0,0.0,0.0,0.0,0.0,0.0,2.9657,2.9777,2.9919,3.2066,3.3225,0.0,0.0,0.0,0.0,0.0,0.0,0.0,0.0,0.0,0.0,0.0,0.0,0.0,0.0,0.0,0.0,0.0,0.0,0.0,0.0,0.0,4.2289,4.375,4.3456,4.3596,4.4385,4.4399,4.4399,4.4399,4.4399,4.4399,4.4399,4.4399,4.4399,4.4399,4.4399,4.4399,4.4399,4.4399,4.4399,4.4399,4.4399,4.4399,4.4399,4.4399,4.4399,4.4399,4.4399,4.4399,4.4434,0.0,0.0,0.0,0.0,0.0,0.0,0.0,0.0,0.0,0.0,0.0,0.0,0.0,0.0,1.785,1.7562,1.7001,1.6849,1.727,1.8054,1.87,1.9145,1.9405,1.9837,2.0452,0.0,0.0,0.0,0.0,0.0,0.0,2.1169,2.2101,2.2837,2.6094,2.6653,0.0,0.0,0.0,2.5483,0.0,0.0,2.4704,0.0,0.0,0.0,0.0,0.0,0.0,0.0,0.0,0.0,0.0,0.0,0.0,0.0,0.0,0.0,2.5985,0.0,0.0,0.0,2.7859,2.8187,2.9948,0.0,0.0,0.0,0.0,0.0,0.0,0.0,0.0,0.0,0.0,0.0,0.0,0.0,0.0,0.0,0.0,0.0,0.0,0.0,0.0,0.0,0.0,0.0,4.3762,4.3099,4.3194,4.4359,4.4399,4.4399,4.4399,4.4399,4.4399,4.4399,4.4399,4.4399,4.4399,4.4399,4.4399,4.4399,4.4399,4.4399,4.4399,4.4399,4.4399,4.4399,4.4399,4.4399,4.4399,4.4399,4.4399,4.4446,0.0,0.0,0.0,0.0,0.0,0.0,0.0,0.0,0.0,0.0,0.0,0.0,0.0,0.0,0.0,1.7613,1.7248,1.711,1.7306,1.8054,1.8375,1.8145,1.9424,1.9664,1.8654,0.0,0.0,0.0,0.0,0.0,0.0,0.0,2.086,2.2996,2.3612,2.5209,2.7596,0.0,3.0834,2.9737,0.0,2.7981,2.7925,0.0,0.0,0.0,2.7187,2.6123,0.0,2.5948,0.0,0.0,0.0,0.0,0.0,0.0,0.0,0.0,0.0,0.0,0.0,0.0,0.0,0.0,2.6531,0.0,0.0,0.0,0.0,0.0,0.0,0.0,0.0,0.0,0.0,0.0,0.0,0.0,0.0,0.0,0.0,0.0,0.0,0.0,0.0,0.0,4.1105,4.1576,4.2716,4.2801,4.3309,4.4364,4.4399,4.4399,4.4399,4.4399,4.4399,4.4399,4.4399,4.4399,4.4399,4.4399,4.4399,4.4399,4.4399,4.4399,4.4399,4.4399,4.4399,4.4399,4.4399,4.4399,4.4399,4.4399,4.4411,4.4481,0.0,0.0,0.0,0.0,0.0,0.0,0.0,0.0,0.0,0.0,0.0,0.0,0.0,0.0,1.8142,1.7984,1.7686,1.7562,1.7717,1.8032,1.8425,1.8882,1.8983,1.9088,1.918,1.9428,0.0,0.0,0.0,0.0,0.0,0.0,0.0,0.0,2.2573,2.3532,2.3559,2.8071,0.0,0.0,2.9402,2.7939,0.0,0.0,0.0,0.0,0.0,2.5727,2.5291,0.0,2.5165,2.4394,0.0,0.0,0.0,0.0,0.0,0.0,2.4546,0.0,0.0,0.0,0.0,0.0,0.0,0.0,0.0,0.0,0.0,0.0,0.0,0.0,0.0,0.0,0.0,0.0,0.0,0.0,0.0,0.0,0.0,0.0,0.0,0.0,0.0,0.0,3.865,3.933,4.2005,4.2881,4.3643,4.4385,4.4399,4.4399,4.4399,4.4399,4.4399,4.4399,4.4399,4.4399,4.4399,4.4399,4.4399,4.4399,4.4399,4.4399,4.4399,4.4399,4.4399,4.4399,4.4399,4.4399,4.4399,4.4399,4.4516,4.4716,0.0,0.0,0.0,0.0,0.0,0.0,0.0,0.0,0.0,0.0,0.0,0.0,0.0,0.0,0.0,1.8341,1.8,1.7826,1.7888,1.803,1.8351,1.8922,1.8988,1.9034,1.9069,1.9422,0.0,0.0,0.0,0.0,0.0,0.0,0.0,0.0,0.0,0.0,0.0,0.0,0.0,0.0,2.8166,0.0,0.0,2.7615,2.7169,0.0,0.0,0.0,2.6645,2.7066,2.6382,0.0,0.0,0.0,0.0,0.0,0.0,0.0,0.0,0.0,0.0,0.0,0.0,0.0,2.5499,2.6597,0.0,0.0,0.0,0.0,0.0,0.0,0.0,0.0,0.0,0.0,0.0,0.0,0.0,0.0,0.0,0.0,0.0,3.6266,3.6786,3.7725,3.7531,3.8591,4.1386,4.2537,4.3298,4.3638,4.3652,4.3652,4.3652,4.3652,4.3652,4.3652,4.3905,4.4031,4.4031,4.4287,4.4399,4.4399,4.4399,4.4399,4.4399,4.4399,4.4399,4.4399,4.4399,4.4469,4.4551,4.4434,4.4621,4.4934,0.0,0.0,0.0,0.0,0.0,0.0,0.0,0.0,0.0,0.0,0.0,0.0,0.0,0.0,0.0,0.0,1.8246,1.7925,1.7945,1.807,1.8275,1.8587,1.9166,1.9225,1.8627,1.9198,0.0,0.0,0.0,0.0,0.0,0.0,0.0,0.0,0.0,0.0,0.0,0.0,0.0,2.6929,2.5896,2.7445,0.0,0.0,2.7662,2.7975,3.0067,2.9472,2.79,2.9228,2.8326,0.0,0.0,0.0,0.0,0.0,2.5341,0.0,0.0,0.0,0.0,0.0,0.0,0.0,2.5163,2.6481,2.786,0.0,0.0,0.0,0.0,0.0,0.0,0.0,0.0,0.0,0.0,0.0,0.0,0.0,0.0,0.0,3.5595,3.5941,3.6254,3.6314,3.7357,3.8852,4.0887,4.1954,4.2511,4.2607,4.2663,4.2705,4.2705,4.2764,4.2764,4.2719,4.3242,4.3455,4.3413,4.3961,4.4202,4.4202,4.4202,4.4202,4.4202,4.4273,4.4366,4.4434,4.4411,4.4551,4.4774,4.4492,4.47,4.5101,2.0504,0.0,0.0,0.0,0.0,0.0,0.0,0.0,0.0,0.0,0.0,0.0,0.0,0.0,0.0,0.0,1.8495,1.8125,1.8293,1.8327,1.8417,1.8587,1.8727,1.8774,1.8764,1.8774,0.0,0.0,0.0,0.0,0.0,0.0,0.0,0.0,0.0,0.0,0.0,0.0,0.0,2.3631,2.6123,0.0,2.5582,2.8684,2.7928,2.5643,2.9034,2.9149,2.7885,0.0,2.9165,2.8486,0.0,0.0,0.0,0.0,0.0,0.0,0.0,0.0,0.0,0.0,0.0,0.0,2.3406,2.4296,2.5394,0.0,0.0,0.0,0.0,0.0,0.0,0.0,0.0,0.0,0.0,0.0,0.0,0.0,0.0,0.0,3.498,3.5051,3.528,3.5725,3.7432,3.9213,4.0906,4.1515,4.2036,4.2579,4.3073,4.3326,4.3326,4.3807,4.3807,4.334,4.3441,4.3256,4.2778,4.2891,4.2947,4.2947,4.2947,4.2947,4.2989,4.3469,4.4088,4.4705,4.4481,4.4551,4.4774,4.4492,4.47,4.5101,1.9558,0.0,0.0,0.0,0.0,0.0,0.0,0.0,0.0,0.0,0.0,0.0,0.0,0.0,0.0,0.0,0.0,0.0,0.0,0.0,0.0,1.9249,1.9054,1.8948,1.8948,1.8716,0.0,0.0,0.0,0.0,0.0,0.0,0.0,0.0,0.0,0.0,0.0,0.0,2.0437,2.2586,2.4805,0.0,2.6043,2.8839,2.8814,2.7536,2.9422,2.9591,2.8935,2.9252,2.9372,0.0,0.0,2.7032,2.6775,0.0,2.5418,2.5321,0.0,0.0,0.0,2.2528,0.0,0.0,0.0,2.4042,2.4981,2.6482,2.7308,0.0,0.0,0.0,0.0,0.0,0.0,0.0,0.0,0.0,0.0,0.0,0.0,0.0,3.4763,3.4799,3.5126,3.588,3.7339,3.8749,4.0024,4.0766,4.1306,4.164,4.1938,4.2093,4.2093,4.2699,4.2854,4.257,4.3202,4.334,4.3059,4.3368,4.334,4.3045,4.3045,4.2877,4.2649,4.3256,4.3726,4.4089,4.4462,4.483,4.5129,4.485,4.5069,4.5481,1.8675,0.0,0.0,0.0,0.0,0.0,0.0,0.0,0.0,0.0,0.0,0.0,0.0,0.0,0.0,0.0,0.0,0.0,0.0,0.0,0.0,0.0,1.9483,1.9223,1.9142,1.8769,0.0,0.0,0.0,0.0,0.0,0.0,0.0,0.0,0.0,0.0,0.0,0.0,0.0,2.2877,0.0,2.5502,2.7409,2.9003,2.9677,2.9843,3.0252,3.0419,3.0289,2.9555,0.0,2.9175,2.7934,2.6946,0.0,0.0,0.0,0.0,0.0,0.0,0.0,0.0,0.0,2.2914,0.0,0.0,0.0,2.6224,0.0,0.0,0.0,0.0,0.0,0.0,0.0,0.0,0.0,0.0,0.0,0.0,0.0,0.0,0.0,3.421,3.493,3.62,3.7277,3.8262,3.9155,4.0139,4.0702,4.0702,4.0814,4.087,4.087,4.1477,4.1786,4.1812,4.2868,4.3383,4.3409,4.3936,4.3917,4.3463,4.3463,4.3192,4.2769,4.3251,4.3423,4.3458,4.4413,4.5024,4.5308,4.5161,4.5413,4.579,1.8962,1.8722,0.0,0.0,0.0,0.0,0.0,0.0,0.0,0.0,0.0,0.0,0.0,0.0,0.0,0.0,0.0,0.0,1.9265,0.0,0.0,0.0,0.0,1.917,1.9273,0.0,0.0,0.0,0.0,0.0,0.0,0.0,0.0,0.0,1.8445,0.0,0.0,0.0,2.2303,0.0,2.571,2.5992,0.0,2.9398,2.9868,2.8921,3.0841,3.1513,3.1297,0.0,2.9307,2.9044,0.0,2.635,2.5594,0.0,0.0,0.0,0.0,0.0,0.0,0.0,2.2627,0.0,0.0,0.0,2.3837,2.3909,0.0,0.0,0.0,0.0,0.0,0.0,0.0,0.0,0.0,0.0,0.0,0.0,0.0,0.0,0.0,3.2088,3.3941,3.6136,3.7449,3.8464,3.9166,4.0139,4.0702,4.0702,4.1211,4.1506,4.1506,4.216,4.2483,4.2483,4.2808,4.2979,4.299,4.3283,4.3394,4.3323,4.3323,4.328,4.3223,4.3294,4.342,4.3638,4.4482,4.4753,4.4729,4.5004,4.5284,4.5538,1.7705,1.8354,0.0,0.0,0.0,0.0,0.0,0.0,0.0,0.0,0.0,0.0,0.0,0.0,0.0,0.0,0.0,2.2691,0.0,0.0,0.0,0.0,0.0,0.0,0.0,0.0,0.0,0.0,1.8139,0.0,0.0,0.0,0.0,0.0,1.8168,0.0,2.0864,0.0,2.2447,0.0,0.0,0.0,0.0,2.9491,3.0544,3.0385,3.0672,3.1165,3.1357,0.0,2.941,0.0,0.0,0.0,0.0,0.0,0.0,0.0,0.0,0.0,0.0,0.0,0.0,0.0,2.4119,0.0,2.3251,0.0,0.0,0.0,0.0,0.0,0.0,0.0,2.6126,0.0,0.0,0.0,0.0,0.0,0.0,0.0,0.0,0.0,0.0,0.0,3.5458,3.6695,3.6975,3.9342,4.0702,4.0702,4.0955,4.1081,4.1081,4.1699,4.2022,4.2022,4.2974,4.3412,4.3437,4.4054,4.4149,4.3818,4.3818,4.354,4.3094,4.3452,4.3537,4.3532,4.457,4.4685,4.4316,4.4812,4.5065,4.5213,1.7677,0.0,0.0,0.0,0.0,0.0,0.0,0.0,0.0,0.0,0.0,0.0,2.2992,2.2517,0.0,0.0,2.4143,2.4161,0.0,0.0,2.3205,0.0,0.0,0.0,0.0,0.0,0.0,0.0,0.0,0.0,0.0,0.0,0.0,0.0,0.0,1.9031,2.0865,0.0,2.2943,2.5566,2.6368,2.7036,2.777,2.9429,3.0659,3.1399,3.0763,3.1044,3.1333,2.8943,2.9436,0.0,2.8296,0.0,0.0,0.0,0.0,0.0,2.5658,0.0,0.0,0.0,0.0,0.0,0.0,0.0,0.0,0.0,0.0,0.0,0.0,0.0,0.0,0.0,0.0,0.0,0.0,0.0,0.0,0.0,0.0,0.0,0.0,0.0,0.0,3.1492,3.3858,3.5387,3.5695,3.8726,4.0519,4.0688,4.0702,4.0702,4.0702,4.1126,4.1435,4.1618,4.2999,4.3706,4.3823,4.4781,4.4938,4.4452,4.4452,4.408,4.3524,4.3876,4.3879,4.3739,4.4507,4.4367,4.383,4.4614,4.489,4.4962,1.9987,1.9104,0.0,0.0,0.0,0.0,0.0,0.0,0.0,0.0,0.0,0.0,0.0,0.0,0.0,0.0,0.0,2.4061,2.3749,0.0,2.4163,0.0,0.0,2.0626,0.0,0.0,0.0,0.0,0.0,0.0,0.0,0.0,0.0,0.0,0.0,1.9358,2.154,2.2506,2.4401,2.6868,2.8325,2.9368,2.9996,0.0,2.977,3.0993,3.147,0.0,0.0,2.9807,2.9304,0.0,0.0,0.0,0.0,0.0,0.0,0.0,0.0,0.0,0.0,2.5724,0.0,0.0,0.0,0.0,2.2894,0.0,0.0,0.0,0.0,0.0,0.0,0.0,0.0,0.0,0.0,0.0,0.0,0.0,0.0,0.0,0.0,0.0,0.0,3.1145,3.3511,3.5364,3.6409,3.8592,4.0094,4.0674,4.0702,4.0702,4.0702,4.0716,4.1025,4.1604,4.2773,4.3484,4.3834,4.4963,4.5327,4.5072,4.5072,4.5058,4.5012,4.4697,4.4564,4.4526,4.4171,4.362,4.3177,4.444,4.489,4.489,0.0,0.0,0.0,0.0,0.0,0.0,0.0,2.1771,0.0,0.0,0.0,0.0,0.0,2.4,2.3921,0.0,0.0,2.5852,2.5072,2.5256,0.0,0.0,0.0,2.2299,0.0,0.0,0.0,0.0,0.0,0.0,0.0,0.0,0.0,0.0,0.0,1.9202,0.0,0.0,0.0,0.0,0.0,2.9343,2.971,0.0,0.0,3.0499,3.0994,3.0971,0.0,2.9624,2.9769,3.0234,2.9525,2.8931,2.8801,3.0419,2.8981,0.0,0.0,0.0,2.8814,2.8513,0.0,0.0,0.0,0.0,0.0,0.0,0.0,0.0,0.0,0.0,0.0,0.0,0.0,0.0,0.0,0.0,0.0,0.0,0.0,0.0,0.0,0.0,0.0,2.9133,3.1469,3.3005,3.3371,3.6779,3.8827,3.9039,4.0122,4.0702,4.0702,4.0702,4.08,4.1025,4.1981,4.2715,4.3236,4.4201,4.4806,4.5101,4.5101,4.487,4.4535,4.4803,4.4793,4.4627,4.4899,4.4446,4.3714,4.4149,4.4295,4.4425,2.3345,0.0,0.0,0.0,0.0,0.0,0.0,0.0,0.0,0.0,2.2677,0.0,2.4821,0.0,2.4976,0.0,2.6121,2.6339,2.6235,2.5512,0.0,2.6199,2.4381,0.0,0.0,0.0,0.0,0.0,0.0,1.8577,0.0,0.0,0.0,0.0,0.0,1.915,2.0776,0.0,2.4532,0.0,0.0,2.9262,0.0,0.0,2.9908,3.079,0.0,3.1066,3.0686,3.0392,3.0689,3.112,3.0709,3.0386,3.039,3.1628,3.0385,2.8865,3.0077,3.05,0.0,3.0281,2.95,0.0,2.8211,0.0,0.0,0.0,0.0,0.0,0.0,0.0,0.0,0.0,0.0,0.0,0.0,2.421,0.0,0.0,0.0,0.0,0.0,0.0,2.7229,2.7973,2.9876,3.1361,0.0,0.0,3.7735,3.8187,3.9629,4.0487,4.0702,4.0702,4.0702,4.0712,4.158,4.2155,4.2466,4.3561,4.4229,4.4535,4.4762,4.462,4.4317,4.4861,4.4961,4.4841,4.5413,4.4963,4.4004,4.4004,4.4004,4.4149,0.0,0.0,0.0,0.0,2.3655,0.0,0.0,0.0,2.2898,0.0,2.4108,2.4056,2.4943,2.4589,2.4659,2.5582,2.5224,0.0,2.6994,2.484,0.0,0.0,2.4453,2.3555,2.4914,0.0,0.0,0.0,0.0,0.0,0.0,0.0,0.0,0.0,1.8664,0.0,1.9903,2.2395,2.4356,2.5962,2.769,2.9273,3.0441,2.8978,2.9801,3.1776,3.1969,3.1874,3.1695,3.2004,3.191,3.1814,3.2618,3.2334,3.184,3.2345,3.2166,3.1866,3.2306,3.2426,3.2164,3.0993,0.0,0.0,0.0,0.0,2.81,0.0,0.0,0.0,0.0,0.0,0.0,0.0,0.0,0.0,0.0,0.0,0.0,0.0,0.0,0.0,0.0,2.6471,2.7449,2.7601,2.8783,3.0465,0.0,0.0,3.6688,3.806,3.9062,3.9911,4.0645,4.0589,4.0603,4.0712,4.1541,4.1816,4.1657,4.3048,4.3604,4.3483,4.409,4.434,4.4385,4.4891,4.507,4.5084,4.5616,4.5042,4.3914,4.3935,4.3961,4.4033,2.4586,2.4522,2.4275,0.0,2.3976,2.4347,0.0,0.0,0.0,0.0,2.4045,2.441,2.5474,2.5522,2.5373,2.5133,2.5341,0.0,0.0,0.0,0.0,2.7143,2.6465,2.5868,2.5501,2.4595,0.0,2.3221,0.0,0.0,2.022,0.0,0.0,0.0,0.0,0.0,2.0389,2.2917,2.5325,2.7459,2.7913,2.9112,0.0,0.0,3.1049,3.2394,3.1512,3.1072,3.1,3.1826,3.1791,3.1516,3.2111,3.2301,3.2312,3.2464,3.2683,3.2859,3.2732,3.2845,3.286,3.2301,3.1368,3.0497,0.0,0.0,0.0,0.0,0.0,0.0,0.0,0.0,0.0,0.0,0.0,0.0,0.0,0.0,0.0,2.3227,0.0,0.0,2.4484,2.524,2.5913,2.6398,2.7346,2.8942,3.1359,0.0,0.0,3.6702,3.6522,3.7556,4.001,3.9086,3.9325,4.0702,4.0921,4.1233,4.1618,4.1982,4.2415,4.2862,4.3469,4.3661,4.3668,4.4681,4.4669,4.4055,4.4692,4.4032,4.2776,4.3122,4.3264,4.3351,2.4726,0.0,0.0,2.323,0.0,0.0,2.4241,0.0,0.0,2.4861,2.4718,0.0,2.5996,2.6532,2.6663,2.6296,2.6326,0.0,2.6544,0.0,0.0,2.7784,2.743,2.6947,2.6373,2.5865,0.0,2.4753,0.0,0.0,2.1544,0.0,0.0,0.0,0.0,1.9865,2.0599,2.3583,2.6186,2.8332,2.8562,0.0,0.0,3.068,3.136,3.2564,3.1691,3.1318,3.1319,3.202,3.2068,3.1921,3.2457,3.2658,3.2698,3.2782,3.303,3.3293,3.3323,3.343,3.3561,3.3574,3.2798,3.2041,3.2041,3.1135,3.0291,0.0,0.0,0.0,0.0,0.0,0.0,0.0,0.0,0.0,0.0,0.0,0.0,0.0,2.3404,0.0,2.3505,2.4101,2.483,2.5545,2.6306,2.7513,0.0,0.0,0.0,3.4241,3.5136,3.63,3.7767,3.7087,3.7653,3.9479,3.9479,4.0083,4.1211,4.1477,4.1801,4.2202,4.2834,4.3062,4.3048,4.3822,4.3803,4.3304,4.3511,4.3066,4.2306,4.2293,4.2539,4.2912,2.4405,0.0,0.0,0.0,0.0,0.0,0.0,2.4144,0.0,2.5948,0.0,2.5764,2.6511,2.7443,2.8004,2.7999,0.0,2.7601,2.8551,2.6911,2.6739,2.862,2.7853,2.7405,2.7405,2.701,0.0,0.0,0.0,0.0,0.0,0.0,0.0,0.0,0.0,0.0,0.0,2.4308,2.6841,2.8861,2.9458,3.0744,3.2165,3.0965,3.137,3.2493,3.2128,3.2028,3.2128,3.2443,3.2544,3.2631,3.3057,3.3106,3.3006,3.3116,3.3303,3.3582,3.3949,3.4074,3.4211,3.4602,3.435,3.401,3.401,3.3594,3.3203,3.3203,3.3153,3.264,0.0,0.0,0.0,0.0,0.0,0.0,0.0,0.0,0.0,0.0,0.0,0.0,2.2524,2.3103,2.3945,2.4782,2.5402,2.621,0.0,0.0,0.0,3.1807,3.4281,3.5559,3.5452,0.0,3.6234,3.8257,3.8018,3.8875,4.0716,4.1239,4.1477,4.152,4.2188,4.2491,4.2536,4.2804,4.2853,4.2748,4.2269,4.2092,4.2031,4.1497,4.1802,4.2488,0.0,0.0,0.0,0.0,0.0,2.4731,2.4802,2.6094,2.6721,2.5753,2.6391,2.6974,2.7068,2.7676,2.8061,2.8001,2.7508,0.0,0.0,0.0,0.0,2.8643,2.8528,2.8448,2.8448,2.8367,2.8125,0.0,0.0,0.0,0.0,0.0,0.0,0.0,0.0,0.0,2.4779,2.4962,0.0,2.9435,3.0376,3.095,3.1316,3.1891,3.2405,3.2767,3.2191,3.2179,3.2455,3.273,3.283,3.2817,3.2681,3.3027,3.3406,3.2996,3.3656,3.4511,3.4373,3.4486,3.4668,3.4691,3.4628,3.4564,3.4564,3.4137,3.377,3.377,3.3416,3.3014,3.2726,0.0,0.0,0.0,0.0,0.0,0.0,0.0,0.0,0.0,0.0,2.3404,0.0,2.2377,2.2754,2.3392,0.0,0.0,0.0,0.0,0.0,0.0,3.2772,0.0,0.0,0.0,3.6895,4.0196,3.8636,3.8875,4.0702,4.0814,4.0856,4.0898,4.1506,4.1904,4.2144,4.2686,4.2613,4.2088,4.1289,4.0985,4.0971,4.0858,4.1011,4.1351,0.0,0.0,0.0,0.0,0.0,0.0,0.0,2.6315,0.0,2.6525,2.7358,2.8007,2.7981,2.8494,2.8815,2.8781,2.854,2.8609,2.9102,2.8667,2.8724,2.9447,2.947,0.0,2.8712,2.8964,2.8746,2.7998,0.0,0.0,0.0,0.0,0.0,0.0,0.0,2.3058,0.0,0.0,0.0,2.9986,3.126,3.1949,3.2222,3.2423,3.258,3.2643,3.2354,3.2367,3.2542,3.2804,3.2992,3.3056,3.2793,3.3144,3.3581,3.3182,3.3891,3.4799,3.4811,3.5108,3.545,3.5561,3.5354,3.5118,3.5118,3.4703,3.4237,3.396,3.3684,3.3111,3.182,3.0219,0.0,0.0,0.0,0.0,0.0,0.0,0.0,0.0,0.0,0.0,0.0,0.0,0.0,0.0,0.0,0.0,0.0,0.0,0.0,0.0,0.0,0.0,0.0,0.0,0.0,3.924,3.8327,3.8875,4.0702,4.0702,4.0702,4.0716,4.1011,4.1202,4.1349,4.1645,4.1589,4.1282,4.0868,4.0702,4.0702,4.0702,4.0837,4.1054,0.0,2.5011,0.0,0.0,2.4205,0.0,2.5064,2.6481,2.7469,2.7469,2.8293,2.8873,2.8873,2.9343,2.9607,2.9504,2.9596,2.9711,2.9872,2.9745,2.9768,3.0044,3.0147,2.9826,2.9045,2.9424,2.9206,0.0,0.0,0.0,0.0,0.0,0.0,0.0,0.0,0.0,0.0,0.0,2.9573,3.0801,3.2134,3.2914,3.3256,3.2781,3.2618,3.2656,3.2606,3.2618,3.2694,3.2918,3.313,3.3243,3.2979,3.3306,3.3729,3.3456,3.4089,3.4933,3.5211,3.5632,3.6051,3.6335,3.6031,3.5694,3.5694,3.5268,3.4753,3.4325,3.406,3.3303,3.135,3.0559,0.0,0.0,0.0,0.0,0.0,0.0,0.0,0.0,0.0,0.0,2.5206,0.0,0.0,0.0,0.0,0.0,0.0,0.0,0.0,0.0,0.0,3.3819,3.4203,0.0,3.6305,3.8496,3.8088,3.8875,4.0702,4.0702,4.0702,4.0702,4.0702,4.0702,4.0702,4.0702,4.0702,4.0702,4.0702,4.0702,4.0702,4.0702,4.0805,4.0969,0.0,0.0,0.0,0.0,0.0,0.0,2.7536,2.7916,2.8028,2.8038,2.8839,2.9424,2.9424,2.9849,2.9963,2.9538,2.9883,2.9768,2.8896,2.9654,2.9963,2.9584,2.9975,3.0159,3.0055,3.0113,2.9872,0.0,0.0,0.0,0.0,0.0,0.0,0.0,0.0,0.0,0.0,2.9102,3.0526,3.234,3.2972,3.3259,3.3268,3.2968,3.3006,3.3193,3.2943,3.3018,3.3231,3.3256,3.3268,3.3243,3.2979,3.3431,3.4001,3.3669,3.4323,3.5223,3.5488,3.5776,3.6051,3.6335,3.6355,3.6318,3.6318,3.5844,3.5408,3.5357,3.4577,3.3823,3.36,3.1718,2.9613,0.0,0.0,0.0,0.0,0.0,0.0,0.0,0.0,0.0,0.0,2.2467,0.0,0.0,0.0,0.0,0.0,0.0,0.0,2.9553,0.0,3.2544,3.4175,3.4861,3.6951,4.0421,3.8707,3.8875,4.0702,4.0702,4.0702,4.0702,4.0702,4.0702,4.0702,4.0702,4.0702,4.0702,4.0702,4.0702,4.0702,4.0702,4.0709,4.0752,0.0,0.0,0.0,0.0,0.0,0.0,0.0,2.8577,2.9038,2.9318,2.9691,2.9918,2.9918,3.009,3.0124,2.994,3.009,3.0032,2.9631,2.9986,3.0124,2.9929,3.0101,3.0204,3.0204,3.0204,3.0113,0.0,0.0,0.0,0.0,0.0,0.0,0.0,0.0,2.7954,2.8815,3.056,3.1766,3.2559,3.3075,3.3293,3.3268,3.2993,3.2967,3.3055,3.2942,3.2967,3.3081,3.3243,3.3293,3.3281,3.3168,3.3356,3.3655,3.3805,3.4372,3.5054,3.5488,3.5919,3.6264,3.6369,3.6393,3.6393,3.6393,3.6218,3.5943,3.557,3.4892,3.4209,3.3583,3.267,3.1266,0.0,0.0,0.0,0.0,0.0,0.0,0.0,0.0,0.0,0.0,2.5299,2.4295,0.0,0.0,0.0,0.0,0.0,0.0,3.0684,0.0,3.4384,3.7002,3.6885,3.8137,4.0688,3.9943,3.9971,4.0702,4.0702,4.0702,4.0702,4.0702,4.0702,4.0702,4.0702,4.0702,4.0702,4.0702,4.0702,4.0702,4.0702,4.0702,4.0709,2.8478,0.0,2.7754,0.0,2.7881,2.8017,2.8449,2.9195,2.9784,2.9964,3.0101,3.0204,3.0204,3.0204,3.0136,3.0009,3.0124,3.0078,2.978,3.0044,3.0136,2.9998,3.0124,0.0,3.0204,3.0204,3.0204,3.0204,2.8447,0.0,0.0,0.0,0.0,0.0,2.854,2.9538,2.994,3.1743,3.2593,3.2765,3.3144,3.3293,3.3268,3.3092,3.3029,3.3029,3.3029,3.3029,3.3055,3.3242,3.3243,3.3205,3.3268,3.3293,3.3418,3.4052,3.4506,3.4945,3.5644,3.6121,3.6393,3.6393,3.6393,3.6393,3.6393,3.6346,3.6139,3.5623,3.51,3.451,3.3797,3.3352,3.2316,3.0001,0.0,0.0,0.0,0.0,0.0,0.0,2.7169,2.6937,2.8801,2.677,2.5728,0.0,0.0,0.0,0.0,0.0,0.0,0.0,0.0,0.0,0.0,3.7241,3.8323,4.0702,4.0702,4.0702,4.0702,4.0702,4.0702,4.0702,4.0702,4.0702,4.0702,4.0702,4.0702,4.0702,4.0702,4.0702,4.0702,4.0702,4.0702,4.0702,2.9381,2.8959,2.8701,2.8768,2.9172,2.9477,2.9484,2.9895,3.0021,2.9573,2.9906,3.0204,3.0204,3.0204,3.0009,2.955,2.9929,2.978,2.8781,2.9654,2.9986,0.0,0.0,3.0204,3.0204,3.0204,3.0204,3.0204,0.0,0.0,2.7987,0.0,2.8206,2.8723,3.0285,3.1513,3.2455,3.249,3.2812,3.3293,3.3293,3.3293,3.3293,3.3293,3.3293,3.3293,3.3293,3.3293,3.3293,3.3293,3.3118,3.2954,3.3218,3.3293,3.3505,3.4506,3.4787,3.503,3.6097,3.6393,3.6393,3.6393,3.6393,3.6393,3.6393,3.6205,3.5932,3.5644,3.5166,3.4797,3.4785,3.3694,3.2271,3.0651,0.0,0.0,0.0,0.0,0.0,0.0,2.5502,2.4954,2.6042,2.54,0.0,0.0,0.0,0.0,0.0,0.0,0.0,2.9553,2.9076,0.0,3.4217,3.4903,3.7064,4.0702,4.0702,4.0702,4.0702,4.0702,4.0702,4.0702,4.0702,4.0702,4.0702,4.0702,4.0702,4.0702,4.0702,4.0702,4.0702,4.0702,4.0702,4.0702,2.8508,2.9127,2.9624,2.9327,2.9669,2.9977,2.9975,2.9829,2.9784,2.9953,2.9829,2.984,3.017,3.0204,3.0136,0.0,2.9814,2.9711,0.0,2.9711,2.9791,2.9963,2.9458,2.9183,2.9183,2.9183,2.9183,2.9183,0.0,0.0,0.0,2.9021,2.9664,3.0847,3.1663,3.2202,3.2513,3.2892,3.3144,3.3293,3.3293,3.3293,3.3293,3.3293,3.3293,3.3293,3.3293,3.3181,3.3067,3.3242,3.3118,3.2954,3.3218,3.3168,3.3231,3.4225,3.4665,3.503,3.6109,3.6393,3.6393,3.6393,3.6393,3.6358,3.6169,3.5919,3.5704,3.562,3.5461,3.518,3.4623,3.4188,3.3076,3.0607,3.0921,0.0,0.0,0.0,0.0,0.0,2.7121,2.693,0.0,2.8356,0.0,0.0,0.0,0.0,0.0,0.0,0.0,0.0,3.4234,0.0,3.799,3.7368,3.8267,4.0702,4.0702,4.0702,4.0702,4.0702,4.0702,4.0702,4.0702,4.0702,4.0702,4.0702,4.0702,4.0702,4.0702,4.0702,4.0702,4.0702,4.0702,4.0702,2.8525,2.9239,2.9784,2.9297,2.9443,2.959,2.9398,2.9271,2.9235,2.9353,2.9453,2.9612,2.9909,3.0091,0.0,3.0204,2.9929,2.9894,3.0181,2.9929,2.9883,3.0193,2.9596,2.9252,2.9252,0.0,0.0,2.9252,2.947,2.9837,3.0353,3.0342,3.095,3.2089,3.2375,3.2604,3.2811,3.3168,3.3293,3.3293,3.3293,3.3293,3.3293,3.3293,3.3293,3.3293,3.3293,3.313,3.2929,3.3092,3.2968,3.2781,3.2944,3.2955,3.3081,3.398,3.4434,3.486,3.5835,3.6239,3.6393,3.6393,3.6323,3.6145,3.5788,3.5572,3.5416,3.532,3.5295,3.515,3.4642,3.4388,3.3664,3.1863,3.2262,3.2262,3.0723,0.0,0.0,0.0,0.0,0.0,0.0,3.1108,3.119,0.0,0.0,0.0,0.0,0.0,0.0,3.5307,3.6,0.0,3.9068,3.8299,3.8847,4.0702,4.0702,4.0702,4.0702,4.0702,4.0702,4.0702,4.0702,4.0702,4.0702,4.0702,4.0702,4.0702,4.0702,4.0702,4.0702,4.0702,4.0702,4.0702,2.9189,2.9291,0.0,0.0,2.8702,0.0,2.8122,2.8394,2.8513,2.81,2.884,2.9428,2.9485,2.9886,3.0159,3.0204,0.0,0.0,0.0,3.017,3.017,3.0204,3.0124,3.0101,3.0159,3.0159,3.0204,3.0296,3.0813,3.1329,3.1859,3.1777,3.2041,3.2558,3.2558,3.2834,3.3293,3.3293,3.3293,3.3293,3.3293,3.3293,3.3293,3.3293,3.3293,3.3293,3.3293,3.313,3.2904,3.2929,3.2743,3.2531,3.2544,3.273,3.3068,3.378,3.4189,3.4605,3.5392,3.5991,3.6393,3.6393,3.6181,3.5836,3.5344,3.5199,3.5102,3.4848,3.4799,3.4799,3.4799,3.439,3.4042,3.4018,3.3633,3.3116,3.2478,0.0,0.0,0.0,0.0,0.0,0.0,3.3557,3.4306,0.0,0.0,0.0,0.0,0.0,3.2092,3.4568,3.5255,3.6389,3.8074,3.8088,3.8974,4.0702,4.0702,4.0702,4.0702,4.0702,4.0702,4.0702,4.0702,4.0702,4.0702,4.0702,4.0702,4.0702,4.0702,4.0659,4.0591,4.0559,4.057,4.0591,0.0,0.0,2.9328,2.8789,2.8691,2.8668,2.8547,2.8322,2.8249,2.8501,2.8437,2.8642,2.9416,2.96,2.9806,3.017,2.9872,2.9825,3.0181,2.986,2.9826,3.0182,2.9458,2.9251,2.9653,2.9676,3.0216,3.134,3.1513,3.1858,3.2341,3.2317,3.2604,3.311,3.311,3.3179,3.3293,3.3293,3.3293,3.3293,3.3293,3.3293,3.3293,3.3293,3.3293,3.3293,3.3293,3.313,3.2929,3.3131,3.3031,3.2842,3.3056,3.3156,3.3268,3.3607,3.4164,3.4848,3.544,3.5991,3.6393,3.6393,3.6038,3.5668,3.5536,3.5187,3.4884,3.4811,3.4799,3.4799,3.4799,3.4703,3.4474,3.4066,3.391,3.3248,3.1515,3.0949,0.0,0.0,3.0859,3.2143,3.4163,3.579,3.6404,0.0,0.0,0.0,0.0,3.6019,3.6599,3.9076,3.9321,3.9602,4.0027,4.0041,4.0266,4.0702,4.0702,4.0702,4.0702,4.0702,4.0702,4.0702,4.0702,4.0702,4.0702,4.0702,4.0702,4.0702,4.0702,4.0229,3.9511,3.9092,3.9194,3.95,2.8813,2.9138,2.9258,2.8511,2.8375,2.8386,2.8386,2.7975,2.7845,2.8327,2.8362,2.8571,2.9117,2.9554,2.992,3.0182,2.9963,2.9929,3.0182,2.9963,3.0044,3.0549,3.0044,2.9998,3.0537,3.0549,3.1054,3.2064,3.2099,3.2387,3.2869,3.2869,3.3018,3.3293,3.3293,3.3293,3.3293,3.3293,3.3293,3.3293,3.3293,3.3293,3.3293,3.3293,3.3293,3.3293,3.3293,3.313,3.2929,3.3068,3.3029,3.2929,3.3068,3.3193,3.3318,3.3432,3.3917,3.4543,3.509,3.5632,3.6062,3.6193,3.6003,3.5752,3.5632,3.5283,3.4969,3.4969,3.4896,3.4799,3.4799,3.4799,3.4691,3.4414,3.3766,3.2942,3.1867,3.1227,0.0,3.2059,3.2994,3.4443,3.6638,3.7875,3.8346,3.7826,3.7251,0.0,3.8632,3.7874,3.8422,4.0631,4.0702,4.0702,4.0702,4.0702,4.0702,4.0702,4.0702,4.0702,4.0702,4.0702,4.0702,4.0702,4.0702,4.0702,4.0702,4.0702,4.0702,4.0645,4.0196,3.953,3.8758,3.8034,3.7793,3.7793,2.9312,2.937,2.9232,2.8374,2.8151,2.8105,2.8105,2.7762,2.7655,2.8046,2.8501,2.8827,2.8908,2.9623,3.0114,3.0193,3.0262,3.0319,3.0319,3.0319,3.056,3.11,3.1111,3.1376,3.1893,3.1973,3.2226,3.2616,3.2616,3.2846,3.3293,3.3293,3.3293,3.3293,3.3293,3.3293,3.3293,3.3293,3.3293,3.3293,3.3293,3.3293,3.3293,3.3293,3.3293,3.3293,3.3293,3.3143,3.2955,3.2955,3.2955,3.2955,3.2955,3.313,3.3293,3.3293,3.3581,3.4003,3.4531,3.5138,3.5668,3.5979,3.6039,3.5944,3.5704,3.5416,3.5211,3.5247,3.5017,3.4811,3.4848,3.4835,3.4763,3.4631,3.3507,3.2663,3.2673,0.0,3.2332,3.4748,3.5445,3.6629,3.8946,3.9641,3.9939,3.9939,3.8931,3.9016,4.0617,3.9184,3.9044,4.0645,4.0702,4.0702,4.0702,4.0702,4.0723,4.0741,4.0741,4.0762,4.0809,4.0809,4.0787,4.0741,4.0741,4.072,4.0702,4.0702,4.0702,4.0591,3.9497,3.8711,3.8041,3.693,3.6301,3.5958,2.9783,2.9623,2.9451,2.929,2.8897,2.8585,2.8585,2.8526,2.8503,2.8585,2.8654,2.8897,2.9336,2.952,2.9772,3.017,3.0606,3.0881,3.0881,3.0881,3.1123,3.1652,3.1686,3.1904,3.2375,3.2846,3.3098,3.3179,3.3179,3.3213,3.3293,3.3293,3.3293,3.3293,3.3293,3.3293,3.3293,3.3293,3.3293,3.3293,3.3293,3.3293,3.3293,3.3293,3.3293,3.3293,3.3293,3.3268,3.3242,3.3242,3.3242,3.3242,3.3242,3.328,3.3293,3.3293,3.3343,3.3506,3.3991,3.4847,3.5728,3.6216,3.6169,3.5992,3.5956,3.556,3.5259,3.5488,3.5138,3.4872,3.5102,3.4957,3.4558,3.3831,3.3499,3.3166,3.2688,0.0,3.4908,3.6382,3.7747,3.9042,4.0304,4.0505,4.0561,4.0561,4.0378,4.0393,4.0674,4.0421,4.0393,4.0688,4.0702,4.0702,4.0702,4.0702,4.0784,4.0947,4.0947,4.1068,4.129,4.129,4.1167,4.0947,4.0947,4.0855,4.0702,4.0702,4.0702,4.0559,3.9092,3.7987,3.6989,3.5077,3.4618,3.4872,2.9657,2.9347,2.899,2.8746,2.8491,2.8327,2.8327,2.8105,2.8128,2.8631,2.8701,2.8898,2.9439,2.9726,3.008,3.0583,3.0859,3.1226,3.1766,3.1559,3.1651,3.2157,3.218,3.2421,3.2914,3.3167,3.3293,3.3293,3.3293,3.3293,3.3293,3.3293,3.3293,3.3293,3.3293,3.3293,3.3293,3.3293,3.3293,3.3293,3.3293,3.3293,3.3293,3.3293,3.3293,3.3293,3.3293,3.3293,3.3293,3.3293,3.3293,3.3293,3.3293,3.3293,3.3293,3.3293,3.3469,3.3792,3.4286,3.5005,3.5728,3.6275,3.6311,3.6216,3.6216,3.5919,3.5668,3.5788,3.538,3.5054,3.5175,3.4969,3.4848,3.4992,3.4288,0.0,0.0,3.5461,3.6381,3.7328,3.8955,4.0196,4.0645,4.0702,4.0702,4.0702,4.0702,4.0702,4.0702,4.0702,4.0702,4.0702,4.0702,4.0702,4.0702,4.0702,4.0805,4.1001,4.1001,4.1142,4.1396,4.1241,4.1121,4.099,4.0887,4.0784,4.0691,4.0576,4.0199,3.953,3.8011,3.6664,3.5365,3.386,3.3277,3.3216,2.929,2.899,2.8585,2.8233,2.8163,2.8163,2.8163,2.7857,2.788,2.8608,2.8701,2.8852,2.9267,2.9851,3.0376,3.0775,3.1144,3.1674,3.2444,3.2283,3.2306,3.2662,3.2685,3.288,3.3293,3.3293,3.3293,3.3293,3.3293,3.3293,3.3293,3.3293,3.3293,3.3293,3.3293,3.3293,3.3293,3.3293,3.3293,3.3293,3.3293,3.3293,3.3293,3.3293,3.3293,3.3293,3.3293,3.3293,3.3293,3.3293,3.3293,3.3293,3.3293,3.3293,3.3293,3.3293,3.3556,3.3941,3.447,3.5005,3.5536,3.6086,3.631,3.6393,3.6393,3.6193,3.6027,3.6074,3.5668,3.5308,3.5368,3.5126,3.5161,3.5956,0.0,0.0,0.0,3.6993,3.7495,3.8435,3.9816,4.0702,4.0702,4.0702,4.0702,4.0702,4.0702,4.0702,4.0702,4.0702,4.0702,4.0702,4.0702,4.0702,4.0702,4.0702,4.0827,4.11,4.11,4.1262,4.1543,4.1293,4.1138,4.1089,4.0923,4.0841,4.0741,4.0303,3.9637,3.8713,3.6863,3.5437,3.4265,3.3137,3.2468,3.2128,2.8838,2.877,2.8689,2.8654,2.8643,2.8643,2.8643,2.8619,2.8619,2.8689,2.8701,2.8724,2.8747,2.9689,3.0284,3.0259,3.1571,3.2421,3.2502,3.2926,3.3202,3.3236,3.3236,3.3259,3.3293,3.3293,3.3293,3.3293,3.3293,3.3293,3.3293,3.3293,3.3293,3.3293,3.3293,3.3293,3.3293,3.3293,3.3293,3.3293,3.3293,3.3293,3.3293,3.3293,3.3293,3.3293,3.3293,3.3293,3.3293,3.3293,3.3293,3.3293,3.3293,3.3293,3.3293,3.3293,3.3318,3.3468,3.3941,3.4445,3.4993,3.5512,3.6038,3.6393,3.6393,3.6193,3.6062,3.6323,3.5943,3.5644,3.5908,3.5524,3.5234,3.5431,0.0,0.0,3.7541,3.7802,3.8501,4.027,4.0617,4.0702,4.0702,4.0702,4.0702,4.0702,4.0702,4.0702,4.0702,4.0702,4.0702,4.0702,4.0702,4.0702,4.0702,4.0702,4.0926,4.1375,4.1375,4.162,4.204,4.1779,4.1545,4.1375,4.1354,4.1213,4.088,3.9763,3.9243,3.8883,3.597,3.4776,3.4497,3.305,3.2493,3.2455,2.8303,2.8045,2.7833,2.7833,2.7833,2.7833,2.7833,2.7833,2.7939,2.8233,2.8269,2.8386,2.8666,2.9325,2.9992,3.0638,3.1494,3.2283,3.2947,3.3191,3.3293,3.3293,3.3293,3.3293,3.3293,3.3293,3.3293,3.3293,3.3293,3.3293,3.3293,3.3293,3.3293,3.3293,3.3293,3.3293,3.3293,3.3293,3.3293,3.3293,3.3293,3.3293,3.3293,3.3293,3.3293,3.3293,3.3293,3.3293,3.3293,3.3293,3.3293,3.3293,3.3293,3.3293,3.3293,3.3293,3.3293,3.3343,3.3519,3.3928,3.4506,3.538,3.5752,3.5991,3.631,3.6323,3.6275,3.6381,3.6109,3.6062,3.6744,3.6462,3.654,3.7808,0.0,3.8087,3.9442,3.9634,3.9901,4.0617,4.0702,4.0702,4.0702,4.0702,4.0702,4.0702,4.0702,4.0702,4.0702,4.0702,4.0702,4.0702,4.0702,4.0702,4.0702,4.0702,4.0937,4.1396,4.1396,4.1651,4.2082,4.1821,4.166,4.1577,4.1459,4.1339,4.1135,3.9593,3.8577,3.7784,3.5425,3.4031,3.3288,3.2895,3.2631,3.2519,2.801,2.7619,2.7297,2.7297,2.7297,2.7297,2.7297,2.7297,2.7428,2.7739,2.7774,2.7904,2.8233,2.8947,2.9743,3.0579,3.1349,3.2195,3.3108,3.3243,3.3293,3.3293,3.3293,3.3293,3.3293,3.3293,3.3293,3.3293,3.3293,3.3293,3.3293,3.3293,3.3293,3.3293,3.3293,3.3293,3.3293,3.3293,3.3293,3.3293,3.3293,3.3293,3.3293,3.3293,3.3293,3.3293,3.3293,3.3293,3.3293,3.3293,3.3293,3.3293,3.3293,3.3293,3.3293,3.3293,3.3293,3.3293,3.3293,3.3531,3.399,3.4884,3.5344,3.5704,3.6049,3.6287,3.6487,3.678,3.6699,3.685,3.7781,3.762,3.7885,3.9461,3.9502,3.9656,4.057,4.0702,4.0702,4.0702,4.0702,4.0702,4.0702,4.0702,4.0702,4.0702,4.0702,4.0702,4.0702,4.0702,4.0702,4.0702,4.0702,4.072,4.0795,4.078,4.1029,4.1486,4.1486,4.171,4.2082,4.1821,4.1698,4.1688,4.1545,4.1486,4.135,3.9288,3.8055,3.7196,3.4945,3.3521,3.2769,3.2955,3.2906,3.2769,2.801,2.7619,2.7297,2.7297,2.7297,2.7297,2.7297,2.7297,2.7297,2.7297,2.7297,2.7297,2.7297,2.8545,2.9524,2.9867,3.1198,3.2266,3.2855,3.3143,3.3293,3.3293,3.3293,3.3293,3.3293,3.3293,3.3293,3.3293,3.3293,3.3293,3.3293,3.3293,3.3293,3.3293,3.3293,3.3293,3.3293,3.3293,3.3293,3.3293,3.3293,3.3293,3.3293,3.3293,3.3293,3.3293,3.3293,3.3293,3.3293,3.3293,3.3293,3.3293,3.3293,3.3293,3.3293,3.3293,3.3293,3.3293,3.3293,3.3293,3.3407,3.388,3.4799,3.5596,3.5596,3.6014,3.6663,3.7602,3.7797,3.8092,3.9044,3.8994,3.9086,3.9884,3.9796,3.987,4.0591,4.0702,4.0702,4.0702,4.0702,4.0702,4.0702,4.0702,4.0702,4.0702,4.0702,4.0702,4.0702,4.0702,4.0702,4.0702,4.0702,4.0805,4.1001,4.1001,4.1233,4.1698,4.1698,4.1841,4.2082,4.1821,4.1698,4.1698,4.1698,4.1698,4.1485,3.8805,3.7699,3.7402,3.4447,3.3293,3.3293,3.3293,3.3293,3.3293,2.7572,2.7404,2.7297,2.7297,2.7141,2.7081,2.7274,2.6976,2.6868,2.725,2.7141,2.7093,2.7274,2.8389,2.9414,3.0113,3.13,3.2342,3.3131,3.3256,3.3293,3.3293,3.3293,3.3293,3.3293,3.3293,3.3293,3.3293,3.3293,3.3293,3.3293,3.3293,3.3293,3.3293,3.3293,3.3293,3.3293,3.3293,3.3293,3.3293,3.3293,3.3293,3.3293,3.3293,3.3293,3.3293,3.3293,3.3293,3.3293,3.3293,3.3293,3.3293,3.3293,3.3293,3.3293,3.3293,3.3293,3.3293,3.3293,3.3293,3.3407,3.388,3.4519,3.5138,3.55,3.6014,3.6663,3.7602,3.7797,3.8283,3.9888,4.0,4.0144,4.1043,4.0852,4.067,4.0887,4.0795,4.0702,4.0702,4.0702,4.0702,4.0702,4.0702,4.0702,4.0702,4.0702,4.0702,4.0702,4.0702,4.0702,4.0702,4.0848,4.1025,4.1287,4.11,4.1233,4.1698,4.1698,4.1841,4.2092,4.2016,4.1984,4.1984,4.1984,4.1783,4.1293,3.8751,3.7518,3.6943,3.4324,3.3192,3.3031,3.3231,3.3181,3.3055,2.762,2.7345,2.7141,2.7141,2.6926,2.6794,2.6964,2.6796,2.677,2.7105,2.7093,2.7117,2.7286,2.8401,2.9427,3.0076,3.1509,3.258,3.3106,3.3243,3.3293,3.3293,3.3293,3.3293,3.3293,3.3293,3.3293,3.3293,3.3293,3.3293,3.3293,3.3293,3.3293,3.3293,3.3293,3.3293,3.3293,3.3293,3.3293,3.3293,3.3293,3.3293,3.3293,3.3293,3.3293,3.3293,3.3293,3.3293,3.3293,3.3293,3.3293,3.3293,3.3293,3.3293,3.3293,3.3293,3.3293,3.3293,3.3293,3.3293,3.3368,3.3644,3.4273,3.486,3.5078,3.5704,3.6604,3.7931,3.8202,3.881,4.0823,4.1085,4.1163,4.164,4.1468,4.1258,4.1163,4.0951,4.0827,4.0827,4.0741,4.0702,4.0702,4.0702,4.0702,4.0702,4.0702,4.0702,4.0702,4.0702,4.0702,4.0702,4.0898,4.1131,4.1396,4.1325,4.1468,4.1852,4.1852,4.1939,4.2092,4.2092,4.2092,4.2082,4.1906,4.1444,4.0631,3.8359,3.7024,3.6208,3.4115,3.3193,3.308,3.3243,3.3205,3.3081,2.7963,2.7381,2.6888,2.6865,2.6639,2.6484,2.653,2.6699,2.6853,2.6924,2.7129,2.7274,2.7297,2.8502,2.9481,2.9903,3.1768,3.2942,3.2942,3.3156,3.3293,3.3293,3.3293,3.3293,3.3293,3.3293,3.3293,3.3293,3.3293,3.3293,3.3293,3.3293,3.3293,3.3293,3.3293,3.3293,3.3293,3.3293,3.3293,3.3293,3.3293,3.3293,3.3293,3.3293,3.3293,3.3293,3.3293,3.3293,3.3293,3.3293,3.3293,3.3293,3.3293,3.3293,3.3293,3.3293,3.3293,3.3293,3.3293,3.3293,3.3293,3.3293,3.4015,3.4665,3.4445,3.5187,3.6475,3.8399,3.8789,3.9481,4.17,4.2092,4.2016,4.1775,4.1723,4.164,4.1459,4.1209,4.1032,4.1001,4.0848,4.0709,4.0702,4.0702,4.0702,4.0702,4.0723,4.072,4.072,4.072,4.0744,4.0766,4.094,4.1163,4.1427,4.1629,4.1852,4.2092,4.2092,4.2092,4.2092,4.2092,4.2092,4.2071,4.1609,4.0859,3.9814,3.7816,3.6431,3.5413,3.3893,3.3293,3.3293,3.3293,3.3293,3.3293,2.7607,2.7153,2.6841,2.6626,2.6364,2.6328,2.6757,2.6508,2.6498,2.7131,2.7081,2.707,2.7274,2.8087,2.9045,3.0117,3.2055,3.3206,3.3206,3.3268,3.3293,3.3293,3.3293,3.3293,3.3293,3.3293,3.3293,3.3293,3.3293,3.3293,3.3293,3.3293,3.3293,3.3293,3.3293,3.3293,3.3293,3.3293,3.3293,3.3293,3.3293,3.3293,3.3293,3.3293,3.3293,3.3293,3.3293,3.3293,3.3293,3.3293,3.3293,3.3293,3.3293,3.3293,3.3293,3.3293,3.3293,3.3293,3.3293,3.3293,3.3293,3.3293,3.3731,3.4212,3.4372,3.4896,3.6036,3.8332,3.8789,3.9481,4.17,4.2092,4.2082,4.2016,4.1831,4.1677,4.164,4.1455,4.1241,4.1022,4.0958,4.0876,4.0723,4.0702,4.0702,4.0702,4.0859,4.0926,4.0926,4.0926,4.1025,4.1248,4.1287,4.1423,4.1629,4.1887,4.2036,4.2092,4.2092,4.2092,4.2092,4.2092,4.2092,4.2071,4.1609,4.1075,4.0334,3.7979,3.6643,3.5939,3.4041,3.3293,3.3293,3.3293,3.3293,3.3293,2.7937,2.7333,2.6928,2.7012,2.651,2.6233,2.6651,2.6578,2.6628,2.7046,2.7105,2.7141,2.7286,2.8075,2.9253,3.0877,3.2302,3.3156,3.3281,3.3293,3.3293,3.3293,3.3293,3.3293,3.3293,3.3293,3.3293,3.3293,3.3293,3.3293,3.3293,3.3293,3.3293,3.3293,3.3293,3.3293,3.3293,3.3293,3.3293,3.3293,3.3293,3.3293,3.3293,3.3293,3.3293,3.3293,3.3293,3.3293,3.3293,3.3293,3.3293,3.3293,3.3293,3.3293,3.3293,3.3293,3.3293,3.3293,3.3293,3.3293,3.3293,3.3293,3.3481,3.3731,3.4003,3.5005,3.6365,3.8115,3.8998,4.0015,4.1773,4.2092,4.2092,4.2092,4.1984,4.1897,4.1897,4.1685,4.1483,4.1339,4.1138,4.093,4.0709,4.0702,4.073,4.0848,4.0937,4.1068,4.1174,4.1188,4.1265,4.1396,4.1486,4.1587,4.1698,4.1974,4.2092,4.2092,4.2092,4.2092,4.2092,4.2092,4.2092,4.2061,4.1375,4.0641,3.9809,3.7581,3.6245,3.5426,3.3904,3.3293,3.3293,3.3293,3.3293,3.3293,2.8242,2.7501,2.7003,2.7347,2.6726,2.6257,2.653,2.6758,2.6912,2.696,2.7155,2.7297,2.7297,2.8205,2.9512,3.1318,3.2238,3.2864,3.3206,3.3268,3.3293,3.3293,3.3293,3.3293,3.3293,3.3293,3.3293,3.3293,3.3293,3.3293,3.3293,3.3293,3.3293,3.3293,3.3293,3.3293,3.3293,3.3293,3.3293,3.3293,3.3293,3.3293,3.3293,3.3293,3.3293,3.3293,3.3293,3.3293,3.3293,3.3293,3.3293,3.3293,3.3293,3.3293,3.3293,3.3293,3.3293,3.3293,3.3293,3.3293,3.3293,3.3293,3.3293,3.3406,3.3804,3.5234,3.6817,3.8034,3.9319,4.0575,4.1814,4.2071,4.2092,4.2092,4.2092,4.2092,4.2092,4.1908,4.1754,4.1713,4.1286,4.0926,4.0773,4.0709,4.0784,4.099,4.1043,4.1174,4.1434,4.1459,4.1469,4.1511,4.1644,4.1723,4.1765,4.1995,4.2092,4.2092,4.2092,4.2092,4.2092,4.202,4.1978,4.1937,4.099,4.0109,3.9188,3.7331,3.5963,3.4957,3.3954,3.3444,3.3293,3.3293,3.3293,3.3293,2.757,2.7153,2.6842,2.6676,2.6544,2.6532,2.6805,2.6877,2.6984,2.7214,2.7274,2.7297,2.7297,2.8205,2.9175,3.0069,3.1254,3.2231,3.2908,3.318,3.3293,3.3293,3.3293,3.3293,3.3293,3.3293,3.3293,3.3293,3.3293,3.3293,3.3293,3.3293,3.3293,3.3293,3.3293,3.3293,3.3293,3.3293,3.3293,3.3293,3.3293,3.3293,3.3293,3.3293,3.3293,3.3293,3.3293,3.3293,3.3293,3.3293,3.3293,3.3293,3.3293,3.3293,3.3293,3.3293,3.3293,3.3293,3.3293,3.3293,3.3293,3.3293,3.3293,3.3531,3.4446,3.5354,3.6585,3.8637,3.9664,4.0522,4.1563,4.1939,4.2092,4.2092,4.2092,4.2092,4.2092,4.2071,4.1964,4.1733,4.1286,4.099,4.0958,4.0791,4.0784,4.099,4.1209,4.1434,4.165,4.166,4.1769,4.1999,4.181,4.181,4.2036,4.2082,4.2092,4.2092,4.2092,4.2092,4.2082,4.1683,4.149,4.1438,4.0508,4.0017,3.9774,3.8228,3.6997,3.5998,3.4993,3.4077,3.3293,3.3293,3.3293,3.3293,2.8031,2.7487,2.7167,2.7301,2.7,2.6806,2.7081,2.7129,2.7177,2.7286,2.7297,2.7404,2.7656,2.8687,2.9675,3.0447,3.1411,3.2299,3.307,3.3231,3.3293,3.3293,3.3293,3.3293,3.3293,3.3293,3.3293,3.3293,3.3293,3.3293,3.3293,3.3293,3.3293,3.3293,3.3293,3.3293,3.3293,3.3293,3.3293,3.3293,3.3293,3.3293,3.3293,3.3293,3.3293,3.3293,3.3293,3.3293,3.3293,3.3293,3.3293,3.3293,3.3293,3.3293,3.3293,3.3293,3.3293,3.3293,3.3293,3.3293,3.3293,3.3293,3.3293,3.3706,3.5283,3.6092,3.7027,3.8827,4.01,4.1096,4.1789,4.2016,4.2092,4.2092,4.196,4.1929,4.2082,4.1974,4.1831,4.1698,4.1521,4.1353,4.123,4.1004,4.1015,4.1349,4.1402,4.1553,4.1897,4.1918,4.1984,4.2092,4.1984,4.1984,4.2092,4.2092,4.2092,4.2092,4.1829,4.1714,4.1704,4.149,4.1259,4.0969,4.0289,3.9996,3.9843,3.7792,3.6705,3.614,3.4568,3.3693,3.3293,3.3293,3.3293,3.3293]}]]